<?xml version="1.0" encoding="UTF-8" standalone="no" ?>
<gpx xmlns="http://www.topografix.com/GPX/1/1" xmlns:xsi="http://www.w3.org/2001/XMLSchema-instance" xsi:schemaLocation="http://www.topografix.com/GPX/1/1 http://www.topografix.com/GPX/1/1/gpx.xsd" version="1.1" creator="VisuGPX - https://www.visugpx.com">
  <metadata>
    <name>ZARAOTZ IGELDO 120622</name>
    <desc><![CDATA[
<p>Type: Indéfini<br/>Heure de départ: 10:09 12 juin 2022<br/>Heure d'arrivée: 15:27 12 juin 2022<br/>Distance: 42,7 km (05:18)<br/>Temps déplacement: 04:08<br/>Vitesse moyenne: 8,04 km/h<br/>Vitesse moyenne mouv.: 10,29 km/h<br/>Vitesse Max.: 31,44 km/h<br/>Altitude minimale: 4 m<br/>Altitude maximale: 364 m<br/>Vitesse de montée: 610,4 m/h<br/>Vitesse de descente: 1253,9 m/h<br/>Gain d'altitude: 1175 m<br/>Perte d'altitude: 1176 m<br/>Temps de montée: 01:55<br/>Temps de descente: 00:56<br/></p><hr align="center" width="480" style="height: 2px; width: 517px"/>]]></desc>
  </metadata>
  <trk>
    <name><![CDATA[ZARAOTZ IGELDO 120622]]></name>
    <desc><![CDATA[<p>Type: Indéfini<br/>Heure de départ: 10:09 12 juin 2022<br/>Heure d'arrivée: 15:27 12 juin 2022<br/>Distance: 42,7 km (05:18)<br/>Temps déplacement: 04:08<br/>Vitesse moyenne: 8,04 km/h<br/>Vitesse moyenne mouv.: 10,29 km/h<br/>Vitesse Max.: 31,44 km/h<br/>Altitude minimale: 4 m<br/>Altitude maximale: 364 m<br/>Vitesse de montée: 610,4 m/h<br/>Vitesse de descente: 1253,9 m/h<br/>Gain d'altitude: 1175 m<br/>Perte d'altitude: 1176 m<br/>Temps de montée: 01:55<br/>Temps de descente: 00:56<br/></p><hr align="center" width="480" style="height: 2px; width: 517px"/>]]></desc>
    <extensions>
      <line xmlns="http://www.topografix.com/GPX/gpx_style/0/2">
        <color>0000FF</color>
        <width>4</width>
      </line>
    </extensions>
    <trkseg>
      <trkpt lat="43.27919" lon="-2.15056">
        <ele>11.2</ele>
        <time>2022-06-12T08:09:14Z</time>
      </trkpt>
      <trkpt lat="43.27913" lon="-2.15029">
        <ele>9.2</ele>
        <time>2022-06-12T08:14:00Z</time>
      </trkpt>
      <trkpt lat="43.27917" lon="-2.15002">
        <ele>7.7</ele>
        <time>2022-06-12T08:14:06Z</time>
      </trkpt>
      <trkpt lat="43.27922" lon="-2.14978">
        <ele>7.3</ele>
        <time>2022-06-12T08:14:11Z</time>
      </trkpt>
      <trkpt lat="43.27929" lon="-2.14951">
        <ele>6.8</ele>
        <time>2022-06-12T08:14:17Z</time>
      </trkpt>
      <trkpt lat="43.27936" lon="-2.14924">
        <ele>6.8</ele>
        <time>2022-06-12T08:14:23Z</time>
      </trkpt>
      <trkpt lat="43.27943" lon="-2.14897">
        <ele>6.7</ele>
        <time>2022-06-12T08:14:29Z</time>
      </trkpt>
      <trkpt lat="43.27949" lon="-2.14873">
        <ele>9.3</ele>
        <time>2022-06-12T08:14:35Z</time>
      </trkpt>
      <trkpt lat="43.27957" lon="-2.14849">
        <ele>11.4</ele>
        <time>2022-06-12T08:14:42Z</time>
      </trkpt>
      <trkpt lat="43.27959" lon="-2.14821">
        <ele>10.1</ele>
        <time>2022-06-12T08:14:50Z</time>
      </trkpt>
      <trkpt lat="43.27944" lon="-2.14801">
        <ele>8.6</ele>
        <time>2022-06-12T08:14:56Z</time>
      </trkpt>
      <trkpt lat="43.27937" lon="-2.14777">
        <ele>8.7</ele>
        <time>2022-06-12T08:15:02Z</time>
      </trkpt>
      <trkpt lat="43.27932" lon="-2.14753">
        <ele>8.2</ele>
        <time>2022-06-12T08:15:08Z</time>
      </trkpt>
      <trkpt lat="43.27923" lon="-2.14728">
        <ele>8.9</ele>
        <time>2022-06-12T08:15:15Z</time>
      </trkpt>
      <trkpt lat="43.27914" lon="-2.14702">
        <ele>9.3</ele>
        <time>2022-06-12T08:15:22Z</time>
      </trkpt>
      <trkpt lat="43.27905" lon="-2.14677">
        <ele>9.5</ele>
        <time>2022-06-12T08:15:29Z</time>
      </trkpt>
      <trkpt lat="43.27895" lon="-2.14655">
        <ele>10.5</ele>
        <time>2022-06-12T08:15:35Z</time>
      </trkpt>
      <trkpt lat="43.27886" lon="-2.14633">
        <ele>11.3</ele>
        <time>2022-06-12T08:15:41Z</time>
      </trkpt>
      <trkpt lat="43.27876" lon="-2.14608">
        <ele>11</ele>
        <time>2022-06-12T08:15:47Z</time>
      </trkpt>
      <trkpt lat="43.27867" lon="-2.14584">
        <ele>12.2</ele>
        <time>2022-06-12T08:15:54Z</time>
      </trkpt>
      <trkpt lat="43.27858" lon="-2.14562">
        <ele>13.3</ele>
        <time>2022-06-12T08:16:01Z</time>
      </trkpt>
      <trkpt lat="43.2785" lon="-2.14539">
        <ele>15.2</ele>
        <time>2022-06-12T08:16:10Z</time>
      </trkpt>
      <trkpt lat="43.27841" lon="-2.14516">
        <ele>17.2</ele>
        <time>2022-06-12T08:16:21Z</time>
      </trkpt>
      <trkpt lat="43.27831" lon="-2.14492">
        <ele>19.2</ele>
        <time>2022-06-12T08:16:32Z</time>
      </trkpt>
      <trkpt lat="43.27822" lon="-2.14471">
        <ele>20.9</ele>
        <time>2022-06-12T08:16:42Z</time>
      </trkpt>
      <trkpt lat="43.27813" lon="-2.14447">
        <ele>23.2</ele>
        <time>2022-06-12T08:16:54Z</time>
      </trkpt>
      <trkpt lat="43.27805" lon="-2.14424">
        <ele>24.5</ele>
        <time>2022-06-12T08:17:07Z</time>
      </trkpt>
      <trkpt lat="43.27792" lon="-2.14406">
        <ele>30.4</ele>
        <time>2022-06-12T08:17:21Z</time>
      </trkpt>
      <trkpt lat="43.27773" lon="-2.14402">
        <ele>31.5</ele>
        <time>2022-06-12T08:17:34Z</time>
      </trkpt>
      <trkpt lat="43.27759" lon="-2.14385">
        <ele>32.3</ele>
        <time>2022-06-12T08:17:46Z</time>
      </trkpt>
      <trkpt lat="43.27743" lon="-2.14372">
        <ele>32.5</ele>
        <time>2022-06-12T08:17:56Z</time>
      </trkpt>
      <trkpt lat="43.2773" lon="-2.14354">
        <ele>35.4</ele>
        <time>2022-06-12T08:18:07Z</time>
      </trkpt>
      <trkpt lat="43.27717" lon="-2.14336">
        <ele>37.4</ele>
        <time>2022-06-12T08:18:19Z</time>
      </trkpt>
      <trkpt lat="43.27702" lon="-2.14321">
        <ele>38.9</ele>
        <time>2022-06-12T08:18:32Z</time>
      </trkpt>
      <trkpt lat="43.27689" lon="-2.14302">
        <ele>39.6</ele>
        <time>2022-06-12T08:18:44Z</time>
      </trkpt>
      <trkpt lat="43.27676" lon="-2.14283">
        <ele>43.6</ele>
        <time>2022-06-12T08:18:57Z</time>
      </trkpt>
      <trkpt lat="43.27661" lon="-2.14267">
        <ele>46.2</ele>
        <time>2022-06-12T08:19:08Z</time>
      </trkpt>
      <trkpt lat="43.27651" lon="-2.14246">
        <ele>47.8</ele>
        <time>2022-06-12T08:19:21Z</time>
      </trkpt>
      <trkpt lat="43.27635" lon="-2.14232">
        <ele>52.4</ele>
        <time>2022-06-12T08:19:34Z</time>
      </trkpt>
      <trkpt lat="43.27616" lon="-2.14223">
        <ele>47</ele>
        <time>2022-06-12T08:19:42Z</time>
      </trkpt>
      <trkpt lat="43.27598" lon="-2.14215">
        <ele>45.6</ele>
        <time>2022-06-12T08:19:47Z</time>
      </trkpt>
      <trkpt lat="43.27579" lon="-2.14205">
        <ele>46.3</ele>
        <time>2022-06-12T08:19:54Z</time>
      </trkpt>
      <trkpt lat="43.27561" lon="-2.14202">
        <ele>46.4</ele>
        <time>2022-06-12T08:20:01Z</time>
      </trkpt>
      <trkpt lat="43.27542" lon="-2.14198">
        <ele>50</ele>
        <time>2022-06-12T08:20:12Z</time>
      </trkpt>
      <trkpt lat="43.2753" lon="-2.14179">
        <ele>60.8</ele>
        <time>2022-06-12T08:20:22Z</time>
      </trkpt>
      <trkpt lat="43.27513" lon="-2.14168">
        <ele>62.8</ele>
        <time>2022-06-12T08:20:34Z</time>
      </trkpt>
      <trkpt lat="43.27498" lon="-2.14152">
        <ele>62.5</ele>
        <time>2022-06-12T08:20:46Z</time>
      </trkpt>
      <trkpt lat="43.27485" lon="-2.14133">
        <ele>63.2</ele>
        <time>2022-06-12T08:20:59Z</time>
      </trkpt>
      <trkpt lat="43.27475" lon="-2.14111">
        <ele>64.9</ele>
        <time>2022-06-12T08:21:13Z</time>
      </trkpt>
      <trkpt lat="43.27463" lon="-2.14091">
        <ele>68.6</ele>
        <time>2022-06-12T08:21:27Z</time>
      </trkpt>
      <trkpt lat="43.27452" lon="-2.14071">
        <ele>71.8</ele>
        <time>2022-06-12T08:21:41Z</time>
      </trkpt>
      <trkpt lat="43.27441" lon="-2.14052">
        <ele>75.3</ele>
        <time>2022-06-12T08:21:54Z</time>
      </trkpt>
      <trkpt lat="43.2743" lon="-2.14031">
        <ele>75.7</ele>
        <time>2022-06-12T08:22:05Z</time>
      </trkpt>
      <trkpt lat="43.2742" lon="-2.14009">
        <ele>76.3</ele>
        <time>2022-06-12T08:22:15Z</time>
      </trkpt>
      <trkpt lat="43.27405" lon="-2.13995">
        <ele>78.2</ele>
        <time>2022-06-12T08:22:26Z</time>
      </trkpt>
      <trkpt lat="43.2739" lon="-2.13979">
        <ele>82.9</ele>
        <time>2022-06-12T08:22:37Z</time>
      </trkpt>
      <trkpt lat="43.27375" lon="-2.13964">
        <ele>83.4</ele>
        <time>2022-06-12T08:22:50Z</time>
      </trkpt>
      <trkpt lat="43.27359" lon="-2.13951">
        <ele>82.8</ele>
        <time>2022-06-12T08:23:03Z</time>
      </trkpt>
      <trkpt lat="43.27342" lon="-2.13938">
        <ele>82.7</ele>
        <time>2022-06-12T08:23:11Z</time>
      </trkpt>
      <trkpt lat="43.27321" lon="-2.13934">
        <ele>82.1</ele>
        <time>2022-06-12T08:23:16Z</time>
      </trkpt>
      <trkpt lat="43.27302" lon="-2.13927">
        <ele>82.7</ele>
        <time>2022-06-12T08:23:24Z</time>
      </trkpt>
      <trkpt lat="43.27286" lon="-2.13914">
        <ele>85.3</ele>
        <time>2022-06-12T08:23:34Z</time>
      </trkpt>
      <trkpt lat="43.27268" lon="-2.13904">
        <ele>87.6</ele>
        <time>2022-06-12T08:23:45Z</time>
      </trkpt>
      <trkpt lat="43.27251" lon="-2.13893">
        <ele>90</ele>
        <time>2022-06-12T08:23:56Z</time>
      </trkpt>
      <trkpt lat="43.27242" lon="-2.13871">
        <ele>91.9</ele>
        <time>2022-06-12T08:24:07Z</time>
      </trkpt>
      <trkpt lat="43.27232" lon="-2.13849">
        <ele>95.1</ele>
        <time>2022-06-12T08:24:22Z</time>
      </trkpt>
      <trkpt lat="43.27241" lon="-2.13825">
        <ele>95.8</ele>
        <time>2022-06-12T08:24:32Z</time>
      </trkpt>
      <trkpt lat="43.2725" lon="-2.13802">
        <ele>96.1</ele>
        <time>2022-06-12T08:24:40Z</time>
      </trkpt>
      <trkpt lat="43.27258" lon="-2.13778">
        <ele>95.8</ele>
        <time>2022-06-12T08:24:49Z</time>
      </trkpt>
      <trkpt lat="43.27272" lon="-2.13758">
        <ele>95.4</ele>
        <time>2022-06-12T08:24:58Z</time>
      </trkpt>
      <trkpt lat="43.27292" lon="-2.13765">
        <ele>94.8</ele>
        <time>2022-06-12T08:25:04Z</time>
      </trkpt>
      <trkpt lat="43.27311" lon="-2.13775">
        <ele>95</ele>
        <time>2022-06-12T08:25:10Z</time>
      </trkpt>
      <trkpt lat="43.27326" lon="-2.13762">
        <ele>95.3</ele>
        <time>2022-06-12T08:25:23Z</time>
      </trkpt>
      <trkpt lat="43.27338" lon="-2.13742">
        <ele>96.2</ele>
        <time>2022-06-12T08:25:32Z</time>
      </trkpt>
      <trkpt lat="43.27353" lon="-2.13724">
        <ele>96.9</ele>
        <time>2022-06-12T08:25:41Z</time>
      </trkpt>
      <trkpt lat="43.27369" lon="-2.13708">
        <ele>97.1</ele>
        <time>2022-06-12T08:25:49Z</time>
      </trkpt>
      <trkpt lat="43.27369" lon="-2.13681">
        <ele>97.8</ele>
        <time>2022-06-12T08:25:59Z</time>
      </trkpt>
      <trkpt lat="43.27356" lon="-2.13662">
        <ele>100</ele>
        <time>2022-06-12T08:26:10Z</time>
      </trkpt>
      <trkpt lat="43.27349" lon="-2.13637">
        <ele>103.6</ele>
        <time>2022-06-12T08:26:22Z</time>
      </trkpt>
      <trkpt lat="43.27347" lon="-2.13612">
        <ele>105.8</ele>
        <time>2022-06-12T08:26:33Z</time>
      </trkpt>
      <trkpt lat="43.27348" lon="-2.13587">
        <ele>106</ele>
        <time>2022-06-12T08:26:42Z</time>
      </trkpt>
      <trkpt lat="43.27351" lon="-2.13561">
        <ele>105.9</ele>
        <time>2022-06-12T08:26:50Z</time>
      </trkpt>
      <trkpt lat="43.27359" lon="-2.13537">
        <ele>107.9</ele>
        <time>2022-06-12T08:26:59Z</time>
      </trkpt>
      <trkpt lat="43.27375" lon="-2.13526">
        <ele>110.4</ele>
        <time>2022-06-12T08:27:09Z</time>
      </trkpt>
      <trkpt lat="43.27391" lon="-2.13508">
        <ele>111.4</ele>
        <time>2022-06-12T08:27:16Z</time>
      </trkpt>
      <trkpt lat="43.27414" lon="-2.13501">
        <ele>104.9</ele>
        <time>2022-06-12T08:27:22Z</time>
      </trkpt>
      <trkpt lat="43.27422" lon="-2.13476">
        <ele>98</ele>
        <time>2022-06-12T08:27:26Z</time>
      </trkpt>
      <trkpt lat="43.27425" lon="-2.1345">
        <ele>91.1</ele>
        <time>2022-06-12T08:27:33Z</time>
      </trkpt>
      <trkpt lat="43.27427" lon="-2.13423">
        <ele>86.3</ele>
        <time>2022-06-12T08:27:39Z</time>
      </trkpt>
      <trkpt lat="43.2742" lon="-2.13395">
        <ele>84.3</ele>
        <time>2022-06-12T08:27:44Z</time>
      </trkpt>
      <trkpt lat="43.27412" lon="-2.13371">
        <ele>78.2</ele>
        <time>2022-06-12T08:27:48Z</time>
      </trkpt>
      <trkpt lat="43.27396" lon="-2.13359">
        <ele>71.9</ele>
        <time>2022-06-12T08:27:54Z</time>
      </trkpt>
      <trkpt lat="43.27379" lon="-2.13349">
        <ele>65.6</ele>
        <time>2022-06-12T08:28:01Z</time>
      </trkpt>
      <trkpt lat="43.27395" lon="-2.13335">
        <ele>66.4</ele>
        <time>2022-06-12T08:28:08Z</time>
      </trkpt>
      <trkpt lat="43.27416" lon="-2.13328">
        <ele>64.8</ele>
        <time>2022-06-12T08:28:12Z</time>
      </trkpt>
      <trkpt lat="43.27433" lon="-2.13326">
        <ele>58.1</ele>
        <time>2022-06-12T08:28:28Z</time>
      </trkpt>
      <trkpt lat="43.27445" lon="-2.13306">
        <ele>54.2</ele>
        <time>2022-06-12T08:28:36Z</time>
      </trkpt>
      <trkpt lat="43.2744" lon="-2.1328">
        <ele>48.9</ele>
        <time>2022-06-12T08:28:48Z</time>
      </trkpt>
      <trkpt lat="43.27441" lon="-2.13251">
        <ele>40.3</ele>
        <time>2022-06-12T08:28:55Z</time>
      </trkpt>
      <trkpt lat="43.27452" lon="-2.13231">
        <ele>33</ele>
        <time>2022-06-12T08:28:59Z</time>
      </trkpt>
      <trkpt lat="43.27462" lon="-2.13209">
        <ele>25</ele>
        <time>2022-06-12T08:29:04Z</time>
      </trkpt>
      <trkpt lat="43.27473" lon="-2.13188">
        <ele>19.5</ele>
        <time>2022-06-12T08:29:13Z</time>
      </trkpt>
      <trkpt lat="43.27493" lon="-2.13193">
        <ele>15.8</ele>
        <time>2022-06-12T08:29:29Z</time>
      </trkpt>
      <trkpt lat="43.27497" lon="-2.13167">
        <ele>13.7</ele>
        <time>2022-06-12T08:29:36Z</time>
      </trkpt>
      <trkpt lat="43.27487" lon="-2.13143">
        <ele>13.9</ele>
        <time>2022-06-12T08:29:42Z</time>
      </trkpt>
      <trkpt lat="43.2748" lon="-2.13118">
        <ele>11.7</ele>
        <time>2022-06-12T08:29:54Z</time>
      </trkpt>
      <trkpt lat="43.27474" lon="-2.13092">
        <ele>11.1</ele>
        <time>2022-06-12T08:30:01Z</time>
      </trkpt>
      <trkpt lat="43.27465" lon="-2.13065">
        <ele>9.5</ele>
        <time>2022-06-12T08:30:11Z</time>
      </trkpt>
      <trkpt lat="43.27457" lon="-2.13042">
        <ele>9.1</ele>
        <time>2022-06-12T08:30:15Z</time>
      </trkpt>
      <trkpt lat="43.2745" lon="-2.13015">
        <ele>9</ele>
        <time>2022-06-12T08:30:19Z</time>
      </trkpt>
      <trkpt lat="43.27447" lon="-2.12987">
        <ele>8.9</ele>
        <time>2022-06-12T08:30:23Z</time>
      </trkpt>
      <trkpt lat="43.27446" lon="-2.12957">
        <ele>9.2</ele>
        <time>2022-06-12T08:30:28Z</time>
      </trkpt>
      <trkpt lat="43.27445" lon="-2.12931">
        <ele>8.8</ele>
        <time>2022-06-12T08:30:33Z</time>
      </trkpt>
      <trkpt lat="43.27445" lon="-2.12904">
        <ele>9.3</ele>
        <time>2022-06-12T08:30:38Z</time>
      </trkpt>
      <trkpt lat="43.27444" lon="-2.12878">
        <ele>9.6</ele>
        <time>2022-06-12T08:30:44Z</time>
      </trkpt>
      <trkpt lat="43.27443" lon="-2.12851">
        <ele>10.8</ele>
        <time>2022-06-12T08:30:50Z</time>
      </trkpt>
      <trkpt lat="43.27443" lon="-2.12825">
        <ele>11</ele>
        <time>2022-06-12T08:30:55Z</time>
      </trkpt>
      <trkpt lat="43.27448" lon="-2.12796">
        <ele>10.6</ele>
        <time>2022-06-12T08:31:00Z</time>
      </trkpt>
      <trkpt lat="43.27449" lon="-2.12769">
        <ele>9.9</ele>
        <time>2022-06-12T08:31:05Z</time>
      </trkpt>
      <trkpt lat="43.27448" lon="-2.1274">
        <ele>12.2</ele>
        <time>2022-06-12T08:31:10Z</time>
      </trkpt>
      <trkpt lat="43.27446" lon="-2.12714">
        <ele>11.6</ele>
        <time>2022-06-12T08:31:15Z</time>
      </trkpt>
      <trkpt lat="43.27444" lon="-2.12689">
        <ele>12.2</ele>
        <time>2022-06-12T08:31:20Z</time>
      </trkpt>
      <trkpt lat="43.27443" lon="-2.1266">
        <ele>11.8</ele>
        <time>2022-06-12T08:31:26Z</time>
      </trkpt>
      <trkpt lat="43.27442" lon="-2.12634">
        <ele>11.1</ele>
        <time>2022-06-12T08:31:31Z</time>
      </trkpt>
      <trkpt lat="43.27442" lon="-2.12608">
        <ele>10.5</ele>
        <time>2022-06-12T08:31:36Z</time>
      </trkpt>
      <trkpt lat="43.27439" lon="-2.12582">
        <ele>9.4</ele>
        <time>2022-06-12T08:31:41Z</time>
      </trkpt>
      <trkpt lat="43.27452" lon="-2.12564">
        <ele>11.5</ele>
        <time>2022-06-12T08:31:47Z</time>
      </trkpt>
      <trkpt lat="43.2747" lon="-2.12565">
        <ele>11.4</ele>
        <time>2022-06-12T08:31:58Z</time>
      </trkpt>
      <trkpt lat="43.2749" lon="-2.12569">
        <ele>12.9</ele>
        <time>2022-06-12T08:32:08Z</time>
      </trkpt>
      <trkpt lat="43.2751" lon="-2.12563">
        <ele>12.4</ele>
        <time>2022-06-12T08:32:15Z</time>
      </trkpt>
      <trkpt lat="43.27529" lon="-2.12569">
        <ele>13</ele>
        <time>2022-06-12T08:32:21Z</time>
      </trkpt>
      <trkpt lat="43.27547" lon="-2.12571">
        <ele>13.1</ele>
        <time>2022-06-12T08:32:27Z</time>
      </trkpt>
      <trkpt lat="43.27567" lon="-2.12575">
        <ele>12.9</ele>
        <time>2022-06-12T08:32:33Z</time>
      </trkpt>
      <trkpt lat="43.27587" lon="-2.12577">
        <ele>12.7</ele>
        <time>2022-06-12T08:32:39Z</time>
      </trkpt>
      <trkpt lat="43.27606" lon="-2.1258">
        <ele>12.1</ele>
        <time>2022-06-12T08:32:44Z</time>
      </trkpt>
      <trkpt lat="43.27626" lon="-2.12572">
        <ele>5.5</ele>
      </trkpt>
      <trkpt lat="43.27626" lon="-2.12618">
        <ele>6.5</ele>
      </trkpt>
      <trkpt lat="43.27595" lon="-2.12719">
        <ele>3.8</ele>
      </trkpt>
      <trkpt lat="43.27614" lon="-2.12734">
        <ele>7.9</ele>
      </trkpt>
      <trkpt lat="43.27621" lon="-2.12731">
        <ele>9.4</ele>
      </trkpt>
      <trkpt lat="43.27641" lon="-2.1275">
        <ele>14</ele>
      </trkpt>
      <trkpt lat="43.27621" lon="-2.12792">
        <ele>5.1</ele>
      </trkpt>
      <trkpt lat="43.27623" lon="-2.12809">
        <ele>3</ele>
      </trkpt>
      <trkpt lat="43.27686" lon="-2.12807">
        <ele>3</ele>
      </trkpt>
      <trkpt lat="43.27745" lon="-2.12783">
        <ele>2.9</ele>
      </trkpt>
      <trkpt lat="43.27954" lon="-2.12675">
        <ele>3</ele>
      </trkpt>
      <trkpt lat="43.27982" lon="-2.12691">
        <ele>3</ele>
      </trkpt>
      <trkpt lat="43.2801" lon="-2.12683">
        <ele>3</ele>
      </trkpt>
      <trkpt lat="43.2826" lon="-2.12716">
        <ele>5.9</ele>
      </trkpt>
      <trkpt lat="43.28283" lon="-2.12686">
        <ele>6</ele>
      </trkpt>
      <trkpt lat="43.28286" lon="-2.12315">
        <ele>11.9</ele>
      </trkpt>
      <trkpt lat="43.28333" lon="-2.12088">
        <ele>28.1</ele>
      </trkpt>
      <trkpt lat="43.28336" lon="-2.12017">
        <ele>38.3</ele>
      </trkpt>
      <trkpt lat="43.28308" lon="-2.11873">
        <ele>49.8</ele>
      </trkpt>
      <trkpt lat="43.28303" lon="-2.11714">
        <ele>56.7</ele>
      </trkpt>
      <trkpt lat="43.28281" lon="-2.11667">
        <ele>65</ele>
      </trkpt>
      <trkpt lat="43.28206" lon="-2.11624">
        <ele>80</ele>
      </trkpt>
      <trkpt lat="43.28172" lon="-2.1148">
        <ele>78.6</ele>
      </trkpt>
      <trkpt lat="43.28192" lon="-2.11347">
        <ele>66.7</ele>
      </trkpt>
      <trkpt lat="43.28235" lon="-2.11245">
        <ele>64.1</ele>
      </trkpt>
      <trkpt lat="43.28204" lon="-2.11194">
        <ele>55.7</ele>
      </trkpt>
      <trkpt lat="43.28215" lon="-2.11164">
        <ele>54.8</ele>
      </trkpt>
      <trkpt lat="43.28247" lon="-2.11168">
        <ele>65.5</ele>
        <time>2022-06-12T08:47:26Z</time>
      </trkpt>
      <trkpt lat="43.28265" lon="-2.1116">
        <ele>67.4</ele>
        <time>2022-06-12T08:47:34Z</time>
      </trkpt>
      <trkpt lat="43.2828" lon="-2.11145">
        <ele>68.4</ele>
        <time>2022-06-12T08:47:42Z</time>
      </trkpt>
      <trkpt lat="43.28296" lon="-2.11131">
        <ele>70.9</ele>
        <time>2022-06-12T08:47:51Z</time>
      </trkpt>
      <trkpt lat="43.28314" lon="-2.11125">
        <ele>72.3</ele>
        <time>2022-06-12T08:48:00Z</time>
      </trkpt>
      <trkpt lat="43.28334" lon="-2.11124">
        <ele>73.3</ele>
        <time>2022-06-12T08:48:10Z</time>
      </trkpt>
      <trkpt lat="43.28353" lon="-2.11123">
        <ele>74.5</ele>
        <time>2022-06-12T08:48:19Z</time>
      </trkpt>
      <trkpt lat="43.28372" lon="-2.11123">
        <ele>76.7</ele>
        <time>2022-06-12T08:48:28Z</time>
      </trkpt>
      <trkpt lat="43.2839" lon="-2.11124">
        <ele>78.7</ele>
        <time>2022-06-12T08:48:37Z</time>
      </trkpt>
      <trkpt lat="43.28409" lon="-2.1112">
        <ele>80.2</ele>
        <time>2022-06-12T08:48:47Z</time>
      </trkpt>
      <trkpt lat="43.28426" lon="-2.11111">
        <ele>82.5</ele>
        <time>2022-06-12T08:48:56Z</time>
      </trkpt>
      <trkpt lat="43.28442" lon="-2.11099">
        <ele>84.1</ele>
        <time>2022-06-12T08:49:05Z</time>
      </trkpt>
      <trkpt lat="43.28457" lon="-2.11081">
        <ele>85.3</ele>
        <time>2022-06-12T08:49:14Z</time>
      </trkpt>
      <trkpt lat="43.28467" lon="-2.1106">
        <ele>85.8</ele>
        <time>2022-06-12T08:49:22Z</time>
      </trkpt>
      <trkpt lat="43.28475" lon="-2.11037">
        <ele>85.9</ele>
        <time>2022-06-12T08:49:30Z</time>
      </trkpt>
      <trkpt lat="43.28479" lon="-2.11011">
        <ele>86.4</ele>
        <time>2022-06-12T08:49:37Z</time>
      </trkpt>
      <trkpt lat="43.28479" lon="-2.10985">
        <ele>87.2</ele>
        <time>2022-06-12T08:49:45Z</time>
      </trkpt>
      <trkpt lat="43.2847" lon="-2.10962">
        <ele>89.1</ele>
        <time>2022-06-12T08:49:53Z</time>
      </trkpt>
      <trkpt lat="43.28458" lon="-2.10942">
        <ele>90.6</ele>
        <time>2022-06-12T08:50:01Z</time>
      </trkpt>
      <trkpt lat="43.28454" lon="-2.10917">
        <ele>90.1</ele>
        <time>2022-06-12T08:50:08Z</time>
      </trkpt>
      <trkpt lat="43.28454" lon="-2.10893">
        <ele>89.4</ele>
        <time>2022-06-12T08:50:13Z</time>
      </trkpt>
      <trkpt lat="43.28464" lon="-2.10868">
        <ele>90</ele>
        <time>2022-06-12T08:50:19Z</time>
      </trkpt>
      <trkpt lat="43.28473" lon="-2.10844">
        <ele>92.1</ele>
        <time>2022-06-12T08:50:29Z</time>
      </trkpt>
      <trkpt lat="43.28474" lon="-2.10818">
        <ele>93.8</ele>
        <time>2022-06-12T08:50:39Z</time>
      </trkpt>
      <trkpt lat="43.28472" lon="-2.10794">
        <ele>96.4</ele>
        <time>2022-06-12T08:50:49Z</time>
      </trkpt>
      <trkpt lat="43.28469" lon="-2.10768">
        <ele>98.1</ele>
        <time>2022-06-12T08:51:00Z</time>
      </trkpt>
      <trkpt lat="43.28472" lon="-2.10743">
        <ele>101.4</ele>
        <time>2022-06-12T08:51:11Z</time>
      </trkpt>
      <trkpt lat="43.28484" lon="-2.10724">
        <ele>104.4</ele>
        <time>2022-06-12T08:51:25Z</time>
      </trkpt>
      <trkpt lat="43.28494" lon="-2.10703">
        <ele>107.4</ele>
        <time>2022-06-12T08:51:40Z</time>
      </trkpt>
      <trkpt lat="43.28499" lon="-2.10679">
        <ele>109.4</ele>
        <time>2022-06-12T08:51:52Z</time>
      </trkpt>
      <trkpt lat="43.28508" lon="-2.10656">
        <ele>111.7</ele>
        <time>2022-06-12T08:52:04Z</time>
      </trkpt>
      <trkpt lat="43.28517" lon="-2.10633">
        <ele>112.1</ele>
        <time>2022-06-12T08:52:14Z</time>
      </trkpt>
      <trkpt lat="43.28523" lon="-2.10609">
        <ele>116.4</ele>
        <time>2022-06-12T08:52:26Z</time>
      </trkpt>
      <trkpt lat="43.28527" lon="-2.10583">
        <ele>116.9</ele>
        <time>2022-06-12T08:52:36Z</time>
      </trkpt>
      <trkpt lat="43.2853" lon="-2.10558">
        <ele>118.7</ele>
        <time>2022-06-12T08:52:46Z</time>
      </trkpt>
      <trkpt lat="43.28535" lon="-2.10533">
        <ele>119.2</ele>
        <time>2022-06-12T08:52:56Z</time>
      </trkpt>
      <trkpt lat="43.28539" lon="-2.10508">
        <ele>121</ele>
        <time>2022-06-12T08:53:07Z</time>
      </trkpt>
      <trkpt lat="43.28544" lon="-2.10482">
        <ele>121.8</ele>
        <time>2022-06-12T08:53:17Z</time>
      </trkpt>
      <trkpt lat="43.28552" lon="-2.10457">
        <ele>122.8</ele>
        <time>2022-06-12T08:53:27Z</time>
      </trkpt>
      <trkpt lat="43.28563" lon="-2.10435">
        <ele>125</ele>
        <time>2022-06-12T08:53:38Z</time>
      </trkpt>
      <trkpt lat="43.28577" lon="-2.1042">
        <ele>126.5</ele>
        <time>2022-06-12T08:53:48Z</time>
      </trkpt>
      <trkpt lat="43.28596" lon="-2.10414">
        <ele>128</ele>
        <time>2022-06-12T08:53:59Z</time>
      </trkpt>
      <trkpt lat="43.28614" lon="-2.10408">
        <ele>129.3</ele>
        <time>2022-06-12T08:54:09Z</time>
      </trkpt>
      <trkpt lat="43.28628" lon="-2.1039">
        <ele>131.4</ele>
        <time>2022-06-12T08:54:19Z</time>
      </trkpt>
      <trkpt lat="43.28641" lon="-2.10372">
        <ele>132.2</ele>
        <time>2022-06-12T08:54:28Z</time>
      </trkpt>
      <trkpt lat="43.28656" lon="-2.10357">
        <ele>133.9</ele>
        <time>2022-06-12T08:54:37Z</time>
      </trkpt>
      <trkpt lat="43.28673" lon="-2.10346">
        <ele>136.7</ele>
        <time>2022-06-12T08:54:46Z</time>
      </trkpt>
      <trkpt lat="43.28691" lon="-2.10339">
        <ele>137.4</ele>
        <time>2022-06-12T08:54:56Z</time>
      </trkpt>
      <trkpt lat="43.28709" lon="-2.10333">
        <ele>139.7</ele>
        <time>2022-06-12T08:55:06Z</time>
      </trkpt>
      <trkpt lat="43.28727" lon="-2.10328">
        <ele>143.9</ele>
        <time>2022-06-12T08:55:16Z</time>
      </trkpt>
      <trkpt lat="43.28747" lon="-2.10324">
        <ele>144.4</ele>
        <time>2022-06-12T08:55:26Z</time>
      </trkpt>
      <trkpt lat="43.28765" lon="-2.1032">
        <ele>145.2</ele>
        <time>2022-06-12T08:55:36Z</time>
      </trkpt>
      <trkpt lat="43.28784" lon="-2.10313">
        <ele>148.4</ele>
        <time>2022-06-12T08:55:46Z</time>
      </trkpt>
      <trkpt lat="43.288" lon="-2.103">
        <ele>148</ele>
        <time>2022-06-12T08:55:56Z</time>
      </trkpt>
      <trkpt lat="43.28816" lon="-2.10288">
        <ele>149.1</ele>
        <time>2022-06-12T08:56:06Z</time>
      </trkpt>
      <trkpt lat="43.28834" lon="-2.10276">
        <ele>150.4</ele>
        <time>2022-06-12T08:56:16Z</time>
      </trkpt>
      <trkpt lat="43.28851" lon="-2.10266">
        <ele>152.8</ele>
        <time>2022-06-12T08:56:27Z</time>
      </trkpt>
      <trkpt lat="43.28869" lon="-2.10254">
        <ele>157.2</ele>
        <time>2022-06-12T08:56:38Z</time>
      </trkpt>
      <trkpt lat="43.28878" lon="-2.10231">
        <ele>157.1</ele>
        <time>2022-06-12T08:56:48Z</time>
      </trkpt>
      <trkpt lat="43.28885" lon="-2.10206">
        <ele>161</ele>
        <time>2022-06-12T08:56:58Z</time>
      </trkpt>
      <trkpt lat="43.28867" lon="-2.10198">
        <ele>163.9</ele>
        <time>2022-06-12T08:57:09Z</time>
      </trkpt>
      <trkpt lat="43.28848" lon="-2.10189">
        <ele>162.6</ele>
        <time>2022-06-12T08:57:17Z</time>
      </trkpt>
      <trkpt lat="43.28837" lon="-2.10169">
        <ele>162.9</ele>
        <time>2022-06-12T08:57:24Z</time>
      </trkpt>
      <trkpt lat="43.28819" lon="-2.10163">
        <ele>163.5</ele>
        <time>2022-06-12T08:57:32Z</time>
      </trkpt>
      <trkpt lat="43.288" lon="-2.10158">
        <ele>162.9</ele>
        <time>2022-06-12T08:57:40Z</time>
      </trkpt>
      <trkpt lat="43.28786" lon="-2.10141">
        <ele>161.8</ele>
        <time>2022-06-12T08:57:48Z</time>
      </trkpt>
      <trkpt lat="43.28777" lon="-2.10119">
        <ele>163.3</ele>
        <time>2022-06-12T08:57:57Z</time>
      </trkpt>
      <trkpt lat="43.28774" lon="-2.10094">
        <ele>164.2</ele>
        <time>2022-06-12T08:58:07Z</time>
      </trkpt>
      <trkpt lat="43.28769" lon="-2.10067">
        <ele>164.6</ele>
        <time>2022-06-12T08:58:17Z</time>
      </trkpt>
      <trkpt lat="43.28754" lon="-2.10048">
        <ele>166.6</ele>
        <time>2022-06-12T08:58:26Z</time>
      </trkpt>
      <trkpt lat="43.28739" lon="-2.10032">
        <ele>167.8</ele>
        <time>2022-06-12T08:58:35Z</time>
      </trkpt>
      <trkpt lat="43.28728" lon="-2.10012">
        <ele>169.7</ele>
        <time>2022-06-12T08:58:44Z</time>
      </trkpt>
      <trkpt lat="43.28723" lon="-2.09988">
        <ele>170.6</ele>
        <time>2022-06-12T08:58:54Z</time>
      </trkpt>
      <trkpt lat="43.28723" lon="-2.09961">
        <ele>170.6</ele>
        <time>2022-06-12T08:59:04Z</time>
      </trkpt>
      <trkpt lat="43.28729" lon="-2.09936">
        <ele>171.2</ele>
        <time>2022-06-12T08:59:14Z</time>
      </trkpt>
      <trkpt lat="43.28735" lon="-2.09911">
        <ele>172.6</ele>
        <time>2022-06-12T08:59:23Z</time>
      </trkpt>
      <trkpt lat="43.28743" lon="-2.09887">
        <ele>173.9</ele>
        <time>2022-06-12T08:59:32Z</time>
      </trkpt>
      <trkpt lat="43.28752" lon="-2.09865">
        <ele>176.2</ele>
        <time>2022-06-12T08:59:41Z</time>
      </trkpt>
      <trkpt lat="43.28764" lon="-2.09846">
        <ele>179.7</ele>
        <time>2022-06-12T08:59:50Z</time>
      </trkpt>
      <trkpt lat="43.28777" lon="-2.09826">
        <ele>180.3</ele>
        <time>2022-06-12T09:00:00Z</time>
      </trkpt>
      <trkpt lat="43.28787" lon="-2.09806">
        <ele>181.1</ele>
        <time>2022-06-12T09:00:08Z</time>
      </trkpt>
      <trkpt lat="43.28795" lon="-2.09783">
        <ele>182.3</ele>
        <time>2022-06-12T09:00:18Z</time>
      </trkpt>
      <trkpt lat="43.28801" lon="-2.09759">
        <ele>184.1</ele>
        <time>2022-06-12T09:00:28Z</time>
      </trkpt>
      <trkpt lat="43.28807" lon="-2.09736">
        <ele>184.7</ele>
        <time>2022-06-12T09:00:38Z</time>
      </trkpt>
      <trkpt lat="43.28809" lon="-2.09711">
        <ele>185.6</ele>
        <time>2022-06-12T09:00:48Z</time>
      </trkpt>
      <trkpt lat="43.28807" lon="-2.09684">
        <ele>185.9</ele>
        <time>2022-06-12T09:00:59Z</time>
      </trkpt>
      <trkpt lat="43.2881" lon="-2.09659">
        <ele>189.2</ele>
        <time>2022-06-12T09:01:09Z</time>
      </trkpt>
      <trkpt lat="43.28818" lon="-2.09636">
        <ele>192.4</ele>
        <time>2022-06-12T09:01:18Z</time>
      </trkpt>
      <trkpt lat="43.2883" lon="-2.09615">
        <ele>193</ele>
        <time>2022-06-12T09:01:28Z</time>
      </trkpt>
      <trkpt lat="43.28848" lon="-2.09604">
        <ele>194.9</ele>
        <time>2022-06-12T09:01:38Z</time>
      </trkpt>
      <trkpt lat="43.28867" lon="-2.09596">
        <ele>195.9</ele>
        <time>2022-06-12T09:01:48Z</time>
      </trkpt>
      <trkpt lat="43.28886" lon="-2.09588">
        <ele>197.1</ele>
        <time>2022-06-12T09:01:58Z</time>
      </trkpt>
      <trkpt lat="43.28902" lon="-2.09576">
        <ele>200.4</ele>
        <time>2022-06-12T09:02:09Z</time>
      </trkpt>
      <trkpt lat="43.28917" lon="-2.09562">
        <ele>199.7</ele>
        <time>2022-06-12T09:02:20Z</time>
      </trkpt>
      <trkpt lat="43.28928" lon="-2.09541">
        <ele>203.2</ele>
        <time>2022-06-12T09:02:32Z</time>
      </trkpt>
      <trkpt lat="43.28931" lon="-2.09514">
        <ele>205.2</ele>
        <time>2022-06-12T09:02:43Z</time>
      </trkpt>
      <trkpt lat="43.28928" lon="-2.09487">
        <ele>206.7</ele>
        <time>2022-06-12T09:02:55Z</time>
      </trkpt>
      <trkpt lat="43.28924" lon="-2.09462">
        <ele>210.2</ele>
        <time>2022-06-12T09:03:05Z</time>
      </trkpt>
      <trkpt lat="43.28933" lon="-2.09439">
        <ele>210.7</ele>
        <time>2022-06-12T09:03:16Z</time>
      </trkpt>
      <trkpt lat="43.28942" lon="-2.09462">
        <ele>213.7</ele>
        <time>2022-06-12T09:03:28Z</time>
      </trkpt>
      <trkpt lat="43.28941" lon="-2.09488">
        <ele>215.1</ele>
        <time>2022-06-12T09:03:40Z</time>
      </trkpt>
      <trkpt lat="43.28944" lon="-2.09513">
        <ele>216.4</ele>
        <time>2022-06-12T09:03:51Z</time>
      </trkpt>
      <trkpt lat="43.28948" lon="-2.09539">
        <ele>219</ele>
        <time>2022-06-12T09:04:02Z</time>
      </trkpt>
      <trkpt lat="43.28949" lon="-2.09564">
        <ele>220.7</ele>
        <time>2022-06-12T09:04:13Z</time>
      </trkpt>
      <trkpt lat="43.28943" lon="-2.09588">
        <ele>223.4</ele>
        <time>2022-06-12T09:04:25Z</time>
      </trkpt>
      <trkpt lat="43.28929" lon="-2.09604">
        <ele>224.4</ele>
        <time>2022-06-12T09:04:35Z</time>
      </trkpt>
      <trkpt lat="43.28914" lon="-2.09622">
        <ele>224.3</ele>
        <time>2022-06-12T09:04:47Z</time>
      </trkpt>
      <trkpt lat="43.28901" lon="-2.09642">
        <ele>226.3</ele>
        <time>2022-06-12T09:04:58Z</time>
      </trkpt>
      <trkpt lat="43.2889" lon="-2.09663">
        <ele>228.3</ele>
        <time>2022-06-12T09:05:09Z</time>
      </trkpt>
      <trkpt lat="43.28884" lon="-2.09688">
        <ele>228.5</ele>
        <time>2022-06-12T09:05:20Z</time>
      </trkpt>
      <trkpt lat="43.28883" lon="-2.09713">
        <ele>228.3</ele>
        <time>2022-06-12T09:05:31Z</time>
      </trkpt>
      <trkpt lat="43.28882" lon="-2.09739">
        <ele>229.6</ele>
        <time>2022-06-12T09:05:42Z</time>
      </trkpt>
      <trkpt lat="43.28883" lon="-2.09766">
        <ele>229.2</ele>
        <time>2022-06-12T09:05:52Z</time>
      </trkpt>
      <trkpt lat="43.28881" lon="-2.09792">
        <ele>229.9</ele>
        <time>2022-06-12T09:06:02Z</time>
      </trkpt>
      <trkpt lat="43.2888" lon="-2.09818">
        <ele>231.8</ele>
        <time>2022-06-12T09:06:12Z</time>
      </trkpt>
      <trkpt lat="43.28879" lon="-2.09843">
        <ele>234.1</ele>
        <time>2022-06-12T09:06:21Z</time>
      </trkpt>
      <trkpt lat="43.28877" lon="-2.09868">
        <ele>234.1</ele>
        <time>2022-06-12T09:06:30Z</time>
      </trkpt>
      <trkpt lat="43.28875" lon="-2.09894">
        <ele>238</ele>
        <time>2022-06-12T09:06:41Z</time>
      </trkpt>
      <trkpt lat="43.28878" lon="-2.0992">
        <ele>240.8</ele>
        <time>2022-06-12T09:06:51Z</time>
      </trkpt>
      <trkpt lat="43.28882" lon="-2.09945">
        <ele>242.7</ele>
        <time>2022-06-12T09:07:02Z</time>
      </trkpt>
      <trkpt lat="43.2889" lon="-2.0997">
        <ele>244.7</ele>
        <time>2022-06-12T09:07:13Z</time>
      </trkpt>
      <trkpt lat="43.289" lon="-2.0999">
        <ele>246.2</ele>
        <time>2022-06-12T09:07:23Z</time>
      </trkpt>
      <trkpt lat="43.28916" lon="-2.10005">
        <ele>246.5</ele>
        <time>2022-06-12T09:07:33Z</time>
      </trkpt>
      <trkpt lat="43.28934" lon="-2.10012">
        <ele>245.9</ele>
        <time>2022-06-12T09:07:43Z</time>
      </trkpt>
      <trkpt lat="43.28952" lon="-2.10024">
        <ele>247.4</ele>
        <time>2022-06-12T09:07:53Z</time>
      </trkpt>
      <trkpt lat="43.28969" lon="-2.10032">
        <ele>246.8</ele>
        <time>2022-06-12T09:08:03Z</time>
      </trkpt>
      <trkpt lat="43.28986" lon="-2.10044">
        <ele>248.5</ele>
        <time>2022-06-12T09:08:13Z</time>
      </trkpt>
      <trkpt lat="43.29005" lon="-2.10044">
        <ele>251</ele>
        <time>2022-06-12T09:08:24Z</time>
      </trkpt>
      <trkpt lat="43.29024" lon="-2.10047">
        <ele>254.4</ele>
        <time>2022-06-12T09:08:34Z</time>
      </trkpt>
      <trkpt lat="43.29035" lon="-2.10066">
        <ele>258.8</ele>
        <time>2022-06-12T09:08:44Z</time>
      </trkpt>
      <trkpt lat="43.29049" lon="-2.10085">
        <ele>260.3</ele>
        <time>2022-06-12T09:08:54Z</time>
      </trkpt>
      <trkpt lat="43.29066" lon="-2.10097">
        <ele>259.5</ele>
        <time>2022-06-12T09:09:05Z</time>
      </trkpt>
      <trkpt lat="43.29074" lon="-2.10119">
        <ele>263</ele>
        <time>2022-06-12T09:09:16Z</time>
      </trkpt>
      <trkpt lat="43.2907" lon="-2.10143">
        <ele>265.8</ele>
        <time>2022-06-12T09:09:25Z</time>
      </trkpt>
      <trkpt lat="43.29062" lon="-2.10166">
        <ele>268.6</ele>
        <time>2022-06-12T09:09:34Z</time>
      </trkpt>
      <trkpt lat="43.29052" lon="-2.10189">
        <ele>272.6</ele>
        <time>2022-06-12T09:09:44Z</time>
      </trkpt>
      <trkpt lat="43.29046" lon="-2.10213">
        <ele>272.9</ele>
        <time>2022-06-12T09:09:54Z</time>
      </trkpt>
      <trkpt lat="43.29044" lon="-2.10238">
        <ele>272.8</ele>
        <time>2022-06-12T09:10:03Z</time>
      </trkpt>
      <trkpt lat="43.29038" lon="-2.10263">
        <ele>275</ele>
        <time>2022-06-12T09:10:13Z</time>
      </trkpt>
      <trkpt lat="43.29031" lon="-2.10286">
        <ele>276.9</ele>
        <time>2022-06-12T09:10:23Z</time>
      </trkpt>
      <trkpt lat="43.29026" lon="-2.1031">
        <ele>277.7</ele>
        <time>2022-06-12T09:10:32Z</time>
      </trkpt>
      <trkpt lat="43.29025" lon="-2.10335">
        <ele>278.5</ele>
        <time>2022-06-12T09:10:41Z</time>
      </trkpt>
      <trkpt lat="43.29027" lon="-2.1036">
        <ele>278</ele>
        <time>2022-06-12T09:10:51Z</time>
      </trkpt>
      <trkpt lat="43.29018" lon="-2.10384">
        <ele>281.7</ele>
        <time>2022-06-12T09:11:02Z</time>
      </trkpt>
      <trkpt lat="43.29005" lon="-2.10402">
        <ele>279.8</ele>
        <time>2022-06-12T09:11:11Z</time>
      </trkpt>
      <trkpt lat="43.28991" lon="-2.1042">
        <ele>282.4</ele>
        <time>2022-06-12T09:11:22Z</time>
      </trkpt>
      <trkpt lat="43.2898" lon="-2.10441">
        <ele>284.9</ele>
        <time>2022-06-12T09:11:32Z</time>
      </trkpt>
      <trkpt lat="43.28977" lon="-2.10466">
        <ele>286.9</ele>
        <time>2022-06-12T09:11:44Z</time>
      </trkpt>
      <trkpt lat="43.2898" lon="-2.1049">
        <ele>289.1</ele>
        <time>2022-06-12T09:11:58Z</time>
      </trkpt>
      <trkpt lat="43.28995" lon="-2.10476">
        <ele>290.9</ele>
        <time>2022-06-12T09:12:17Z</time>
      </trkpt>
      <trkpt lat="43.29006" lon="-2.10456">
        <ele>293.4</ele>
        <time>2022-06-12T09:12:32Z</time>
      </trkpt>
      <trkpt lat="43.29018" lon="-2.10437">
        <ele>294.5</ele>
        <time>2022-06-12T09:12:44Z</time>
      </trkpt>
      <trkpt lat="43.29031" lon="-2.10418">
        <ele>294.7</ele>
        <time>2022-06-12T09:12:54Z</time>
      </trkpt>
      <trkpt lat="43.29043" lon="-2.10397">
        <ele>295.2</ele>
        <time>2022-06-12T09:13:04Z</time>
      </trkpt>
      <trkpt lat="43.29055" lon="-2.10378">
        <ele>296.9</ele>
        <time>2022-06-12T09:13:13Z</time>
      </trkpt>
      <trkpt lat="43.2906" lon="-2.10352">
        <ele>298</ele>
        <time>2022-06-12T09:13:22Z</time>
      </trkpt>
      <trkpt lat="43.29065" lon="-2.10326">
        <ele>300.5</ele>
        <time>2022-06-12T09:13:31Z</time>
      </trkpt>
      <trkpt lat="43.29072" lon="-2.10302">
        <ele>298.5</ele>
        <time>2022-06-12T09:13:39Z</time>
      </trkpt>
      <trkpt lat="43.2908" lon="-2.10276">
        <ele>299</ele>
        <time>2022-06-12T09:13:46Z</time>
      </trkpt>
      <trkpt lat="43.29088" lon="-2.10254">
        <ele>300.9</ele>
        <time>2022-06-12T09:13:52Z</time>
      </trkpt>
      <trkpt lat="43.29095" lon="-2.1023">
        <ele>300</ele>
        <time>2022-06-12T09:13:58Z</time>
      </trkpt>
      <trkpt lat="43.29106" lon="-2.10206">
        <ele>299.4</ele>
        <time>2022-06-12T09:14:05Z</time>
      </trkpt>
      <trkpt lat="43.29117" lon="-2.10184">
        <ele>298.6</ele>
        <time>2022-06-12T09:14:12Z</time>
      </trkpt>
      <trkpt lat="43.29129" lon="-2.10164">
        <ele>300</ele>
        <time>2022-06-12T09:14:19Z</time>
      </trkpt>
      <trkpt lat="43.29144" lon="-2.10146">
        <ele>299.9</ele>
        <time>2022-06-12T09:14:26Z</time>
      </trkpt>
      <trkpt lat="43.29161" lon="-2.10135">
        <ele>302.6</ele>
        <time>2022-06-12T09:14:33Z</time>
      </trkpt>
      <trkpt lat="43.29178" lon="-2.10123">
        <ele>304.7</ele>
        <time>2022-06-12T09:14:41Z</time>
      </trkpt>
      <trkpt lat="43.29194" lon="-2.10107">
        <ele>305.8</ele>
        <time>2022-06-12T09:14:53Z</time>
      </trkpt>
      <trkpt lat="43.29201" lon="-2.10084">
        <ele>308.7</ele>
        <time>2022-06-12T09:15:01Z</time>
      </trkpt>
      <trkpt lat="43.29208" lon="-2.10061">
        <ele>309.5</ele>
        <time>2022-06-12T09:15:10Z</time>
      </trkpt>
      <trkpt lat="43.29213" lon="-2.10036">
        <ele>310.3</ele>
        <time>2022-06-12T09:15:22Z</time>
      </trkpt>
      <trkpt lat="43.29218" lon="-2.10011">
        <ele>308.3</ele>
        <time>2022-06-12T09:15:35Z</time>
      </trkpt>
      <trkpt lat="43.29223" lon="-2.09986">
        <ele>309.2</ele>
        <time>2022-06-12T09:15:47Z</time>
      </trkpt>
      <trkpt lat="43.29229" lon="-2.0996">
        <ele>311.4</ele>
        <time>2022-06-12T09:15:59Z</time>
      </trkpt>
      <trkpt lat="43.29235" lon="-2.09935">
        <ele>314.2</ele>
        <time>2022-06-12T09:16:10Z</time>
      </trkpt>
      <trkpt lat="43.29241" lon="-2.0991">
        <ele>317.4</ele>
        <time>2022-06-12T09:16:20Z</time>
      </trkpt>
      <trkpt lat="43.29246" lon="-2.09885">
        <ele>318.8</ele>
        <time>2022-06-12T09:16:30Z</time>
      </trkpt>
      <trkpt lat="43.2925" lon="-2.09859">
        <ele>318.4</ele>
        <time>2022-06-12T09:16:40Z</time>
      </trkpt>
      <trkpt lat="43.29252" lon="-2.09834">
        <ele>319.5</ele>
        <time>2022-06-12T09:16:49Z</time>
      </trkpt>
      <trkpt lat="43.29256" lon="-2.09807">
        <ele>319.6</ele>
        <time>2022-06-12T09:16:58Z</time>
      </trkpt>
      <trkpt lat="43.29263" lon="-2.0978">
        <ele>321.3</ele>
        <time>2022-06-12T09:17:07Z</time>
      </trkpt>
      <trkpt lat="43.29268" lon="-2.09755">
        <ele>321.1</ele>
        <time>2022-06-12T09:17:15Z</time>
      </trkpt>
      <trkpt lat="43.29276" lon="-2.0973">
        <ele>322.4</ele>
        <time>2022-06-12T09:17:23Z</time>
      </trkpt>
      <trkpt lat="43.29285" lon="-2.09704">
        <ele>323.1</ele>
        <time>2022-06-12T09:17:31Z</time>
      </trkpt>
      <trkpt lat="43.29292" lon="-2.09681">
        <ele>322.3</ele>
        <time>2022-06-12T09:17:38Z</time>
      </trkpt>
      <trkpt lat="43.293" lon="-2.09657">
        <ele>324.3</ele>
        <time>2022-06-12T09:17:44Z</time>
      </trkpt>
      <trkpt lat="43.29309" lon="-2.09633">
        <ele>326.7</ele>
        <time>2022-06-12T09:17:50Z</time>
      </trkpt>
      <trkpt lat="43.29316" lon="-2.09609">
        <ele>327.2</ele>
        <time>2022-06-12T09:17:57Z</time>
      </trkpt>
      <trkpt lat="43.29324" lon="-2.09584">
        <ele>328.6</ele>
        <time>2022-06-12T09:18:05Z</time>
      </trkpt>
      <trkpt lat="43.29328" lon="-2.09557">
        <ele>330.3</ele>
        <time>2022-06-12T09:18:12Z</time>
      </trkpt>
      <trkpt lat="43.29327" lon="-2.09529">
        <ele>330.5</ele>
        <time>2022-06-12T09:18:19Z</time>
      </trkpt>
      <trkpt lat="43.29327" lon="-2.09503">
        <ele>331.5</ele>
        <time>2022-06-12T09:18:26Z</time>
      </trkpt>
      <trkpt lat="43.29328" lon="-2.09476">
        <ele>330.7</ele>
        <time>2022-06-12T09:18:32Z</time>
      </trkpt>
      <trkpt lat="43.29327" lon="-2.09451">
        <ele>331.6</ele>
        <time>2022-06-12T09:18:38Z</time>
      </trkpt>
      <trkpt lat="43.29327" lon="-2.09425">
        <ele>332.3</ele>
        <time>2022-06-12T09:18:44Z</time>
      </trkpt>
      <trkpt lat="43.29325" lon="-2.09398">
        <ele>332.6</ele>
        <time>2022-06-12T09:18:51Z</time>
      </trkpt>
      <trkpt lat="43.29327" lon="-2.09371">
        <ele>332.5</ele>
        <time>2022-06-12T09:19:00Z</time>
      </trkpt>
      <trkpt lat="43.29328" lon="-2.09344">
        <ele>332.8</ele>
        <time>2022-06-12T09:19:07Z</time>
      </trkpt>
      <trkpt lat="43.29328" lon="-2.09317">
        <ele>334</ele>
        <time>2022-06-12T09:19:13Z</time>
      </trkpt>
      <trkpt lat="43.29329" lon="-2.09292">
        <ele>334.6</ele>
        <time>2022-06-12T09:19:19Z</time>
      </trkpt>
      <trkpt lat="43.29328" lon="-2.09265">
        <ele>334.4</ele>
        <time>2022-06-12T09:19:25Z</time>
      </trkpt>
      <trkpt lat="43.29329" lon="-2.09239">
        <ele>336.2</ele>
        <time>2022-06-12T09:19:31Z</time>
      </trkpt>
      <trkpt lat="43.29329" lon="-2.09213">
        <ele>337.1</ele>
        <time>2022-06-12T09:19:37Z</time>
      </trkpt>
      <trkpt lat="43.29332" lon="-2.09186">
        <ele>336</ele>
        <time>2022-06-12T09:19:43Z</time>
      </trkpt>
      <trkpt lat="43.29335" lon="-2.09161">
        <ele>336.8</ele>
        <time>2022-06-12T09:19:48Z</time>
      </trkpt>
      <trkpt lat="43.29341" lon="-2.09136">
        <ele>337.9</ele>
        <time>2022-06-12T09:19:53Z</time>
      </trkpt>
      <trkpt lat="43.29347" lon="-2.09112">
        <ele>339.4</ele>
        <time>2022-06-12T09:19:58Z</time>
      </trkpt>
      <trkpt lat="43.29353" lon="-2.09089">
        <ele>338.7</ele>
        <time>2022-06-12T09:20:03Z</time>
      </trkpt>
      <trkpt lat="43.2936" lon="-2.09061">
        <ele>340</ele>
        <time>2022-06-12T09:20:09Z</time>
      </trkpt>
      <trkpt lat="43.29366" lon="-2.09033">
        <ele>339.9</ele>
        <time>2022-06-12T09:20:15Z</time>
      </trkpt>
      <trkpt lat="43.29372" lon="-2.09007">
        <ele>339.3</ele>
        <time>2022-06-12T09:20:21Z</time>
      </trkpt>
      <trkpt lat="43.29378" lon="-2.08979">
        <ele>339.7</ele>
        <time>2022-06-12T09:20:27Z</time>
      </trkpt>
      <trkpt lat="43.29383" lon="-2.08951">
        <ele>339.6</ele>
        <time>2022-06-12T09:20:33Z</time>
      </trkpt>
      <trkpt lat="43.29392" lon="-2.08924">
        <ele>340.6</ele>
        <time>2022-06-12T09:20:39Z</time>
      </trkpt>
      <trkpt lat="43.29396" lon="-2.08899">
        <ele>339.5</ele>
        <time>2022-06-12T09:28:39Z</time>
      </trkpt>
      <trkpt lat="43.29401" lon="-2.08872">
        <ele>338.4</ele>
        <time>2022-06-12T09:28:47Z</time>
      </trkpt>
      <trkpt lat="43.29409" lon="-2.08846">
        <ele>338.1</ele>
        <time>2022-06-12T09:28:54Z</time>
      </trkpt>
      <trkpt lat="43.29418" lon="-2.08822">
        <ele>338.1</ele>
        <time>2022-06-12T09:29:01Z</time>
      </trkpt>
      <trkpt lat="43.29427" lon="-2.08799">
        <ele>339</ele>
        <time>2022-06-12T09:29:08Z</time>
      </trkpt>
      <trkpt lat="43.29435" lon="-2.08776">
        <ele>338.3</ele>
        <time>2022-06-12T09:29:15Z</time>
      </trkpt>
      <trkpt lat="43.29441" lon="-2.08751">
        <ele>337.4</ele>
        <time>2022-06-12T09:29:23Z</time>
      </trkpt>
      <trkpt lat="43.29449" lon="-2.08728">
        <ele>336.5</ele>
        <time>2022-06-12T09:29:31Z</time>
      </trkpt>
      <trkpt lat="43.29458" lon="-2.08702">
        <ele>337.9</ele>
        <time>2022-06-12T09:29:40Z</time>
      </trkpt>
      <trkpt lat="43.29466" lon="-2.0868">
        <ele>339.5</ele>
        <time>2022-06-12T09:29:47Z</time>
      </trkpt>
      <trkpt lat="43.29475" lon="-2.08657">
        <ele>342.4</ele>
        <time>2022-06-12T09:29:54Z</time>
      </trkpt>
      <trkpt lat="43.29483" lon="-2.08634">
        <ele>344.1</ele>
        <time>2022-06-12T09:30:01Z</time>
      </trkpt>
      <trkpt lat="43.2949" lon="-2.08609">
        <ele>344.1</ele>
        <time>2022-06-12T09:30:09Z</time>
      </trkpt>
      <trkpt lat="43.29496" lon="-2.08585">
        <ele>344.3</ele>
        <time>2022-06-12T09:30:16Z</time>
      </trkpt>
      <trkpt lat="43.29502" lon="-2.0856">
        <ele>345.9</ele>
        <time>2022-06-12T09:30:23Z</time>
      </trkpt>
      <trkpt lat="43.29507" lon="-2.08536">
        <ele>348.1</ele>
        <time>2022-06-12T09:30:29Z</time>
      </trkpt>
      <trkpt lat="43.29512" lon="-2.08508">
        <ele>349.3</ele>
        <time>2022-06-12T09:30:36Z</time>
      </trkpt>
      <trkpt lat="43.29517" lon="-2.0848">
        <ele>348.2</ele>
        <time>2022-06-12T09:30:43Z</time>
      </trkpt>
      <trkpt lat="43.29517" lon="-2.08455">
        <ele>348.2</ele>
        <time>2022-06-12T09:30:50Z</time>
      </trkpt>
      <trkpt lat="43.29514" lon="-2.0843">
        <ele>347.6</ele>
        <time>2022-06-12T09:30:57Z</time>
      </trkpt>
      <trkpt lat="43.29509" lon="-2.08402">
        <ele>348.4</ele>
        <time>2022-06-12T09:31:04Z</time>
      </trkpt>
      <trkpt lat="43.29506" lon="-2.08375">
        <ele>349</ele>
        <time>2022-06-12T09:31:10Z</time>
      </trkpt>
      <trkpt lat="43.29504" lon="-2.08348">
        <ele>349.3</ele>
        <time>2022-06-12T09:31:16Z</time>
      </trkpt>
      <trkpt lat="43.29502" lon="-2.08322">
        <ele>349.1</ele>
        <time>2022-06-12T09:31:23Z</time>
      </trkpt>
      <trkpt lat="43.29501" lon="-2.08292">
        <ele>348</ele>
        <time>2022-06-12T09:31:29Z</time>
      </trkpt>
      <trkpt lat="43.29499" lon="-2.08262">
        <ele>348.8</ele>
        <time>2022-06-12T09:31:35Z</time>
      </trkpt>
      <trkpt lat="43.29497" lon="-2.08233">
        <ele>346.1</ele>
        <time>2022-06-12T09:31:40Z</time>
      </trkpt>
      <trkpt lat="43.29497" lon="-2.08208">
        <ele>346.2</ele>
        <time>2022-06-12T09:31:44Z</time>
      </trkpt>
      <trkpt lat="43.29501" lon="-2.08179">
        <ele>345.2</ele>
        <time>2022-06-12T09:31:49Z</time>
      </trkpt>
      <trkpt lat="43.29505" lon="-2.08148">
        <ele>342.5</ele>
        <time>2022-06-12T09:31:54Z</time>
      </trkpt>
      <trkpt lat="43.29508" lon="-2.08123">
        <ele>342.6</ele>
        <time>2022-06-12T09:31:58Z</time>
      </trkpt>
      <trkpt lat="43.29514" lon="-2.081">
        <ele>343.8</ele>
        <time>2022-06-12T09:32:02Z</time>
      </trkpt>
      <trkpt lat="43.29518" lon="-2.08075">
        <ele>344.5</ele>
        <time>2022-06-12T09:32:06Z</time>
      </trkpt>
      <trkpt lat="43.29523" lon="-2.0805">
        <ele>344.6</ele>
        <time>2022-06-12T09:32:10Z</time>
      </trkpt>
      <trkpt lat="43.29526" lon="-2.08025">
        <ele>346</ele>
        <time>2022-06-12T09:32:14Z</time>
      </trkpt>
      <trkpt lat="43.29524" lon="-2.07995">
        <ele>347.6</ele>
        <time>2022-06-12T09:32:19Z</time>
      </trkpt>
      <trkpt lat="43.29522" lon="-2.07967">
        <ele>345.8</ele>
        <time>2022-06-12T09:32:24Z</time>
      </trkpt>
      <trkpt lat="43.29521" lon="-2.07939">
        <ele>348.6</ele>
        <time>2022-06-12T09:32:29Z</time>
      </trkpt>
      <trkpt lat="43.2952" lon="-2.07914">
        <ele>347</ele>
        <time>2022-06-12T09:32:35Z</time>
      </trkpt>
      <trkpt lat="43.2952" lon="-2.07889">
        <ele>347.3</ele>
        <time>2022-06-12T09:32:42Z</time>
      </trkpt>
      <trkpt lat="43.29502" lon="-2.079">
        <ele>350.6</ele>
        <time>2022-06-12T09:32:51Z</time>
      </trkpt>
      <trkpt lat="43.29488" lon="-2.07916">
        <ele>355.1</ele>
        <time>2022-06-12T09:33:19Z</time>
      </trkpt>
      <trkpt lat="43.29483" lon="-2.0789">
        <ele>349.8</ele>
        <time>2022-06-12T09:33:40Z</time>
      </trkpt>
      <trkpt lat="43.29478" lon="-2.07865">
        <ele>350.6</ele>
        <time>2022-06-12T09:33:45Z</time>
      </trkpt>
      <trkpt lat="43.29473" lon="-2.07838">
        <ele>349.3</ele>
        <time>2022-06-12T09:33:49Z</time>
      </trkpt>
      <trkpt lat="43.29469" lon="-2.07813">
        <ele>347.1</ele>
        <time>2022-06-12T09:33:52Z</time>
      </trkpt>
      <trkpt lat="43.29466" lon="-2.07787">
        <ele>348.4</ele>
        <time>2022-06-12T09:33:56Z</time>
      </trkpt>
      <trkpt lat="43.29462" lon="-2.07758">
        <ele>345.7</ele>
        <time>2022-06-12T09:33:59Z</time>
      </trkpt>
      <trkpt lat="43.29458" lon="-2.07733">
        <ele>341.3</ele>
        <time>2022-06-12T09:34:02Z</time>
      </trkpt>
      <trkpt lat="43.2945" lon="-2.07702">
        <ele>335.8</ele>
        <time>2022-06-12T09:34:06Z</time>
      </trkpt>
      <trkpt lat="43.29441" lon="-2.07672">
        <ele>332.3</ele>
        <time>2022-06-12T09:34:10Z</time>
      </trkpt>
      <trkpt lat="43.29438" lon="-2.07643">
        <ele>329.5</ele>
        <time>2022-06-12T09:34:14Z</time>
      </trkpt>
      <trkpt lat="43.29439" lon="-2.07611">
        <ele>328.4</ele>
        <time>2022-06-12T09:34:18Z</time>
      </trkpt>
      <trkpt lat="43.29438" lon="-2.07579">
        <ele>326.1</ele>
        <time>2022-06-12T09:34:22Z</time>
      </trkpt>
      <trkpt lat="43.29441" lon="-2.0755">
        <ele>323.6</ele>
        <time>2022-06-12T09:34:25Z</time>
      </trkpt>
      <trkpt lat="43.2945" lon="-2.0752">
        <ele>323.1</ele>
        <time>2022-06-12T09:34:28Z</time>
      </trkpt>
      <trkpt lat="43.2946" lon="-2.07488">
        <ele>320.7</ele>
        <time>2022-06-12T09:34:31Z</time>
      </trkpt>
      <trkpt lat="43.29469" lon="-2.07462">
        <ele>318.7</ele>
        <time>2022-06-12T09:34:34Z</time>
      </trkpt>
      <trkpt lat="43.29478" lon="-2.07437">
        <ele>319.6</ele>
        <time>2022-06-12T09:34:37Z</time>
      </trkpt>
      <trkpt lat="43.29486" lon="-2.0741">
        <ele>317.7</ele>
        <time>2022-06-12T09:34:40Z</time>
      </trkpt>
      <trkpt lat="43.29496" lon="-2.07385">
        <ele>318.5</ele>
        <time>2022-06-12T09:34:43Z</time>
      </trkpt>
      <trkpt lat="43.29507" lon="-2.07362">
        <ele>316.1</ele>
        <time>2022-06-12T09:34:55Z</time>
      </trkpt>
      <trkpt lat="43.29518" lon="-2.07336">
        <ele>314.5</ele>
        <time>2022-06-12T09:35:01Z</time>
      </trkpt>
      <trkpt lat="43.29527" lon="-2.07312">
        <ele>311.2</ele>
        <time>2022-06-12T09:35:05Z</time>
      </trkpt>
      <trkpt lat="43.29537" lon="-2.07285">
        <ele>310.8</ele>
        <time>2022-06-12T09:35:09Z</time>
      </trkpt>
      <trkpt lat="43.29545" lon="-2.07261">
        <ele>313.3</ele>
        <time>2022-06-12T09:35:19Z</time>
      </trkpt>
      <trkpt lat="43.29545" lon="-2.07237">
        <ele>317.6</ele>
        <time>2022-06-12T09:35:30Z</time>
      </trkpt>
      <trkpt lat="43.29548" lon="-2.07212">
        <ele>312</ele>
        <time>2022-06-12T09:35:35Z</time>
      </trkpt>
      <trkpt lat="43.29545" lon="-2.07184">
        <ele>311</ele>
        <time>2022-06-12T09:35:40Z</time>
      </trkpt>
      <trkpt lat="43.29547" lon="-2.07158">
        <ele>310.5</ele>
        <time>2022-06-12T09:35:44Z</time>
      </trkpt>
      <trkpt lat="43.2955" lon="-2.07126">
        <ele>309.3</ele>
        <time>2022-06-12T09:35:48Z</time>
      </trkpt>
      <trkpt lat="43.29553" lon="-2.071">
        <ele>307.7</ele>
        <time>2022-06-12T09:35:53Z</time>
      </trkpt>
      <trkpt lat="43.29553" lon="-2.07071">
        <ele>303.5</ele>
        <time>2022-06-12T09:36:25Z</time>
      </trkpt>
      <trkpt lat="43.29554" lon="-2.07044">
        <ele>305.5</ele>
        <time>2022-06-12T09:36:31Z</time>
      </trkpt>
      <trkpt lat="43.29551" lon="-2.0702">
        <ele>303.1</ele>
        <time>2022-06-12T09:36:37Z</time>
      </trkpt>
      <trkpt lat="43.29552" lon="-2.06991">
        <ele>305.5</ele>
        <time>2022-06-12T09:36:42Z</time>
      </trkpt>
      <trkpt lat="43.29561" lon="-2.06964">
        <ele>301.2</ele>
        <time>2022-06-12T09:36:47Z</time>
      </trkpt>
      <trkpt lat="43.2957" lon="-2.06938">
        <ele>301.8</ele>
        <time>2022-06-12T09:36:52Z</time>
      </trkpt>
      <trkpt lat="43.29579" lon="-2.06914">
        <ele>295.1</ele>
        <time>2022-06-12T09:36:58Z</time>
      </trkpt>
      <trkpt lat="43.29586" lon="-2.06889">
        <ele>294.5</ele>
        <time>2022-06-12T09:37:03Z</time>
      </trkpt>
      <trkpt lat="43.29584" lon="-2.06863">
        <ele>297.1</ele>
        <time>2022-06-12T09:37:12Z</time>
      </trkpt>
      <trkpt lat="43.29582" lon="-2.06838">
        <ele>296.9</ele>
        <time>2022-06-12T09:37:19Z</time>
      </trkpt>
      <trkpt lat="43.29574" lon="-2.06814">
        <ele>290.7</ele>
        <time>2022-06-12T09:37:26Z</time>
      </trkpt>
      <trkpt lat="43.29566" lon="-2.06789">
        <ele>282.7</ele>
        <time>2022-06-12T09:37:32Z</time>
      </trkpt>
      <trkpt lat="43.29557" lon="-2.06766">
        <ele>285.1</ele>
        <time>2022-06-12T09:37:50Z</time>
      </trkpt>
      <trkpt lat="43.29548" lon="-2.06743">
        <ele>279.9</ele>
        <time>2022-06-12T09:37:58Z</time>
      </trkpt>
      <trkpt lat="43.29536" lon="-2.06724">
        <ele>276.8</ele>
        <time>2022-06-12T09:38:07Z</time>
      </trkpt>
      <trkpt lat="43.29523" lon="-2.06701">
        <ele>272</ele>
        <time>2022-06-12T09:38:13Z</time>
      </trkpt>
      <trkpt lat="43.29514" lon="-2.06672">
        <ele>273.4</ele>
        <time>2022-06-12T09:38:17Z</time>
      </trkpt>
      <trkpt lat="43.29514" lon="-2.06648">
        <ele>265.8</ele>
        <time>2022-06-12T09:38:29Z</time>
      </trkpt>
      <trkpt lat="43.29514" lon="-2.0662">
        <ele>267.3</ele>
        <time>2022-06-12T09:39:05Z</time>
      </trkpt>
      <trkpt lat="43.2951" lon="-2.0659">
        <ele>266.9</ele>
        <time>2022-06-12T09:39:10Z</time>
      </trkpt>
      <trkpt lat="43.29512" lon="-2.0656">
        <ele>265.4</ele>
        <time>2022-06-12T09:39:15Z</time>
      </trkpt>
      <trkpt lat="43.29508" lon="-2.06533">
        <ele>265.1</ele>
        <time>2022-06-12T09:39:19Z</time>
      </trkpt>
      <trkpt lat="43.295" lon="-2.06509">
        <ele>261.6</ele>
        <time>2022-06-12T09:39:24Z</time>
      </trkpt>
      <trkpt lat="43.29491" lon="-2.06483">
        <ele>256.7</ele>
        <time>2022-06-12T09:39:32Z</time>
      </trkpt>
      <trkpt lat="43.29479" lon="-2.06463">
        <ele>253.5</ele>
        <time>2022-06-12T09:39:39Z</time>
      </trkpt>
      <trkpt lat="43.29467" lon="-2.06443">
        <ele>245.2</ele>
        <time>2022-06-12T09:39:48Z</time>
      </trkpt>
      <trkpt lat="43.29448" lon="-2.06438">
        <ele>240.4</ele>
        <time>2022-06-12T09:39:56Z</time>
      </trkpt>
      <trkpt lat="43.29432" lon="-2.06421">
        <ele>235.1</ele>
        <time>2022-06-12T09:40:01Z</time>
      </trkpt>
      <trkpt lat="43.29424" lon="-2.06397">
        <ele>232</ele>
        <time>2022-06-12T09:40:08Z</time>
      </trkpt>
      <trkpt lat="43.29436" lon="-2.06377">
        <ele>226.9</ele>
        <time>2022-06-12T09:40:18Z</time>
      </trkpt>
      <trkpt lat="43.29423" lon="-2.06395">
        <ele>223.3</ele>
        <time>2022-06-12T09:40:27Z</time>
      </trkpt>
      <trkpt lat="43.29434" lon="-2.06373">
        <ele>221.6</ele>
        <time>2022-06-12T09:40:45Z</time>
      </trkpt>
      <trkpt lat="43.29446" lon="-2.06353">
        <ele>224.3</ele>
        <time>2022-06-12T09:40:53Z</time>
      </trkpt>
      <trkpt lat="43.29458" lon="-2.06331">
        <ele>224.8</ele>
        <time>2022-06-12T09:41:01Z</time>
      </trkpt>
      <trkpt lat="43.29468" lon="-2.0631">
        <ele>224.2</ele>
        <time>2022-06-12T09:41:07Z</time>
      </trkpt>
      <trkpt lat="43.29479" lon="-2.06286">
        <ele>224.7</ele>
        <time>2022-06-12T09:41:14Z</time>
      </trkpt>
      <trkpt lat="43.2949" lon="-2.06264">
        <ele>223.5</ele>
        <time>2022-06-12T09:41:20Z</time>
      </trkpt>
      <trkpt lat="43.295" lon="-2.06242">
        <ele>221.8</ele>
        <time>2022-06-12T09:41:25Z</time>
      </trkpt>
      <trkpt lat="43.29509" lon="-2.06216">
        <ele>220.2</ele>
        <time>2022-06-12T09:41:30Z</time>
      </trkpt>
      <trkpt lat="43.29519" lon="-2.0619">
        <ele>220.1</ele>
        <time>2022-06-12T09:41:35Z</time>
      </trkpt>
      <trkpt lat="43.29525" lon="-2.06162">
        <ele>218.9</ele>
        <time>2022-06-12T09:41:40Z</time>
      </trkpt>
      <trkpt lat="43.29531" lon="-2.06134">
        <ele>217.9</ele>
        <time>2022-06-12T09:41:45Z</time>
      </trkpt>
      <trkpt lat="43.29548" lon="-2.0612">
        <ele>216.7</ele>
        <time>2022-06-12T09:41:50Z</time>
      </trkpt>
      <trkpt lat="43.29571" lon="-2.06118">
        <ele>215.4</ele>
        <time>2022-06-12T09:41:54Z</time>
      </trkpt>
      <trkpt lat="43.29589" lon="-2.061">
        <ele>214.5</ele>
        <time>2022-06-12T09:41:58Z</time>
      </trkpt>
      <trkpt lat="43.29607" lon="-2.0608">
        <ele>212.2</ele>
        <time>2022-06-12T09:42:02Z</time>
      </trkpt>
      <trkpt lat="43.29626" lon="-2.06079">
        <ele>212.1</ele>
        <time>2022-06-12T09:42:05Z</time>
      </trkpt>
      <trkpt lat="43.29646" lon="-2.06092">
        <ele>210.3</ele>
        <time>2022-06-12T09:42:09Z</time>
      </trkpt>
      <trkpt lat="43.29656" lon="-2.06113">
        <ele>211.5</ele>
        <time>2022-06-12T09:42:13Z</time>
      </trkpt>
      <trkpt lat="43.29677" lon="-2.06132">
        <ele>211.8</ele>
        <time>2022-06-12T09:42:18Z</time>
      </trkpt>
      <trkpt lat="43.29692" lon="-2.06148">
        <ele>214.3</ele>
        <time>2022-06-12T09:42:29Z</time>
      </trkpt>
      <trkpt lat="43.29711" lon="-2.06145">
        <ele>223.7</ele>
        <time>2022-06-12T09:42:45Z</time>
      </trkpt>
      <trkpt lat="43.29725" lon="-2.06129">
        <ele>222.2</ele>
        <time>2022-06-12T09:42:57Z</time>
      </trkpt>
      <trkpt lat="43.29735" lon="-2.06107">
        <ele>227.4</ele>
        <time>2022-06-12T09:43:11Z</time>
      </trkpt>
      <trkpt lat="43.29745" lon="-2.06085">
        <ele>227.9</ele>
        <time>2022-06-12T09:43:29Z</time>
      </trkpt>
      <trkpt lat="43.29757" lon="-2.06064">
        <ele>232.4</ele>
        <time>2022-06-12T09:43:44Z</time>
      </trkpt>
      <trkpt lat="43.29767" lon="-2.06042">
        <ele>232.9</ele>
        <time>2022-06-12T09:43:56Z</time>
      </trkpt>
      <trkpt lat="43.29775" lon="-2.06019">
        <ele>234.1</ele>
        <time>2022-06-12T09:44:09Z</time>
      </trkpt>
      <trkpt lat="43.29785" lon="-2.05996">
        <ele>233.3</ele>
        <time>2022-06-12T09:44:23Z</time>
      </trkpt>
      <trkpt lat="43.29795" lon="-2.05975">
        <ele>237.8</ele>
        <time>2022-06-12T09:44:36Z</time>
      </trkpt>
      <trkpt lat="43.29807" lon="-2.05955">
        <ele>242.7</ele>
        <time>2022-06-12T09:44:48Z</time>
      </trkpt>
      <trkpt lat="43.29818" lon="-2.05935">
        <ele>242.6</ele>
        <time>2022-06-12T09:45:00Z</time>
      </trkpt>
      <trkpt lat="43.29832" lon="-2.05917">
        <ele>245.2</ele>
        <time>2022-06-12T09:45:12Z</time>
      </trkpt>
      <trkpt lat="43.29846" lon="-2.05896">
        <ele>243.5</ele>
        <time>2022-06-12T09:45:23Z</time>
      </trkpt>
      <trkpt lat="43.29862" lon="-2.0588">
        <ele>241.7</ele>
        <time>2022-06-12T09:45:28Z</time>
      </trkpt>
      <trkpt lat="43.29877" lon="-2.0586">
        <ele>240.4</ele>
        <time>2022-06-12T09:45:32Z</time>
      </trkpt>
      <trkpt lat="43.29892" lon="-2.05839">
        <ele>238.5</ele>
        <time>2022-06-12T09:45:35Z</time>
      </trkpt>
      <trkpt lat="43.29906" lon="-2.05811">
        <ele>238</ele>
        <time>2022-06-12T09:45:38Z</time>
      </trkpt>
      <trkpt lat="43.2991" lon="-2.05787">
        <ele>239.5</ele>
        <time>2022-06-12T09:45:44Z</time>
      </trkpt>
      <trkpt lat="43.29914" lon="-2.05761">
        <ele>242.7</ele>
        <time>2022-06-12T09:45:58Z</time>
      </trkpt>
      <trkpt lat="43.29914" lon="-2.05735">
        <ele>252.8</ele>
        <time>2022-06-12T09:46:21Z</time>
      </trkpt>
      <trkpt lat="43.29919" lon="-2.05711">
        <ele>251.4</ele>
        <time>2022-06-12T09:46:34Z</time>
      </trkpt>
      <trkpt lat="43.29922" lon="-2.05686">
        <ele>253.5</ele>
        <time>2022-06-12T09:46:48Z</time>
      </trkpt>
      <trkpt lat="43.29927" lon="-2.0566">
        <ele>252.1</ele>
        <time>2022-06-12T09:47:03Z</time>
      </trkpt>
      <trkpt lat="43.2993" lon="-2.05635">
        <ele>256.5</ele>
        <time>2022-06-12T09:47:16Z</time>
      </trkpt>
      <trkpt lat="43.29937" lon="-2.05611">
        <ele>258.2</ele>
        <time>2022-06-12T09:47:28Z</time>
      </trkpt>
      <trkpt lat="43.29948" lon="-2.05589">
        <ele>257.6</ele>
        <time>2022-06-12T09:47:43Z</time>
      </trkpt>
      <trkpt lat="43.2996" lon="-2.0557">
        <ele>263.7</ele>
        <time>2022-06-12T09:48:00Z</time>
      </trkpt>
      <trkpt lat="43.29973" lon="-2.05552">
        <ele>269.8</ele>
        <time>2022-06-12T09:48:19Z</time>
      </trkpt>
      <trkpt lat="43.29989" lon="-2.0554">
        <ele>274.2</ele>
        <time>2022-06-12T09:48:38Z</time>
      </trkpt>
      <trkpt lat="43.30007" lon="-2.05534">
        <ele>277.1</ele>
        <time>2022-06-12T09:48:56Z</time>
      </trkpt>
      <trkpt lat="43.30025" lon="-2.05529">
        <ele>279.4</ele>
        <time>2022-06-12T09:49:12Z</time>
      </trkpt>
      <trkpt lat="43.30043" lon="-2.05525">
        <ele>279.3</ele>
        <time>2022-06-12T09:49:26Z</time>
      </trkpt>
      <trkpt lat="43.30062" lon="-2.05524">
        <ele>281</ele>
        <time>2022-06-12T09:49:38Z</time>
      </trkpt>
      <trkpt lat="43.30081" lon="-2.05521">
        <ele>279.8</ele>
        <time>2022-06-12T09:49:50Z</time>
      </trkpt>
      <trkpt lat="43.301" lon="-2.05525">
        <ele>283.2</ele>
        <time>2022-06-12T09:50:02Z</time>
      </trkpt>
      <trkpt lat="43.3009" lon="-2.05546">
        <ele>283.8</ele>
        <time>2022-06-12T09:50:22Z</time>
      </trkpt>
      <trkpt lat="43.30072" lon="-2.05556">
        <ele>285.9</ele>
        <time>2022-06-12T09:50:32Z</time>
      </trkpt>
      <trkpt lat="43.30055" lon="-2.05566">
        <ele>288.4</ele>
        <time>2022-06-12T09:50:42Z</time>
      </trkpt>
      <trkpt lat="43.3004" lon="-2.0558">
        <ele>289.7</ele>
        <time>2022-06-12T09:50:51Z</time>
      </trkpt>
      <trkpt lat="43.30026" lon="-2.05596">
        <ele>290.9</ele>
        <time>2022-06-12T09:51:00Z</time>
      </trkpt>
      <trkpt lat="43.30016" lon="-2.05618">
        <ele>293.5</ele>
        <time>2022-06-12T09:51:09Z</time>
      </trkpt>
      <trkpt lat="43.30009" lon="-2.05641">
        <ele>295.2</ele>
        <time>2022-06-12T09:51:18Z</time>
      </trkpt>
      <trkpt lat="43.30006" lon="-2.05667">
        <ele>298.5</ele>
        <time>2022-06-12T09:51:28Z</time>
      </trkpt>
      <trkpt lat="43.30005" lon="-2.05692">
        <ele>298.8</ele>
        <time>2022-06-12T09:51:38Z</time>
      </trkpt>
      <trkpt lat="43.30006" lon="-2.05718">
        <ele>299.6</ele>
        <time>2022-06-12T09:51:48Z</time>
      </trkpt>
      <trkpt lat="43.30006" lon="-2.05743">
        <ele>301.4</ele>
        <time>2022-06-12T09:51:58Z</time>
      </trkpt>
      <trkpt lat="43.30007" lon="-2.0577">
        <ele>302.1</ele>
        <time>2022-06-12T09:52:09Z</time>
      </trkpt>
      <trkpt lat="43.30009" lon="-2.05795">
        <ele>303.4</ele>
        <time>2022-06-12T09:52:19Z</time>
      </trkpt>
      <trkpt lat="43.30011" lon="-2.05821">
        <ele>305</ele>
        <time>2022-06-12T09:52:29Z</time>
      </trkpt>
      <trkpt lat="43.30016" lon="-2.05845">
        <ele>307.2</ele>
        <time>2022-06-12T09:52:39Z</time>
      </trkpt>
      <trkpt lat="43.3002" lon="-2.05871">
        <ele>308.4</ele>
        <time>2022-06-12T09:52:50Z</time>
      </trkpt>
      <trkpt lat="43.30016" lon="-2.05898">
        <ele>312.8</ele>
        <time>2022-06-12T09:53:01Z</time>
      </trkpt>
      <trkpt lat="43.3001" lon="-2.05922">
        <ele>311.9</ele>
        <time>2022-06-12T09:53:11Z</time>
      </trkpt>
      <trkpt lat="43.30002" lon="-2.05946">
        <ele>313.7</ele>
        <time>2022-06-12T09:53:21Z</time>
      </trkpt>
      <trkpt lat="43.29992" lon="-2.0597">
        <ele>316.4</ele>
        <time>2022-06-12T09:53:31Z</time>
      </trkpt>
      <trkpt lat="43.29986" lon="-2.05994">
        <ele>317.4</ele>
        <time>2022-06-12T09:53:40Z</time>
      </trkpt>
      <trkpt lat="43.29983" lon="-2.06019">
        <ele>317.2</ele>
        <time>2022-06-12T09:53:49Z</time>
      </trkpt>
      <trkpt lat="43.29984" lon="-2.06046">
        <ele>318.3</ele>
        <time>2022-06-12T09:53:59Z</time>
      </trkpt>
      <trkpt lat="43.29983" lon="-2.06074">
        <ele>318.4</ele>
        <time>2022-06-12T09:54:08Z</time>
      </trkpt>
      <trkpt lat="43.29981" lon="-2.061">
        <ele>318.6</ele>
        <time>2022-06-12T09:54:16Z</time>
      </trkpt>
      <trkpt lat="43.29979" lon="-2.06127">
        <ele>320.7</ele>
        <time>2022-06-12T09:54:24Z</time>
      </trkpt>
      <trkpt lat="43.29974" lon="-2.06153">
        <ele>323.2</ele>
        <time>2022-06-12T09:54:32Z</time>
      </trkpt>
      <trkpt lat="43.29967" lon="-2.06176">
        <ele>326.6</ele>
        <time>2022-06-12T09:54:40Z</time>
      </trkpt>
      <trkpt lat="43.29959" lon="-2.06202">
        <ele>328.2</ele>
        <time>2022-06-12T09:54:49Z</time>
      </trkpt>
      <trkpt lat="43.29952" lon="-2.06227">
        <ele>331.8</ele>
        <time>2022-06-12T09:54:58Z</time>
      </trkpt>
      <trkpt lat="43.29942" lon="-2.06248">
        <ele>331.8</ele>
        <time>2022-06-12T09:55:09Z</time>
      </trkpt>
      <trkpt lat="43.29933" lon="-2.0627">
        <ele>333.1</ele>
        <time>2022-06-12T09:55:19Z</time>
      </trkpt>
      <trkpt lat="43.29923" lon="-2.06293">
        <ele>335.4</ele>
        <time>2022-06-12T09:55:30Z</time>
      </trkpt>
      <trkpt lat="43.29917" lon="-2.06318">
        <ele>339.2</ele>
        <time>2022-06-12T09:55:41Z</time>
      </trkpt>
      <trkpt lat="43.29918" lon="-2.06345">
        <ele>339.8</ele>
        <time>2022-06-12T09:55:52Z</time>
      </trkpt>
      <trkpt lat="43.29923" lon="-2.0637">
        <ele>342</ele>
        <time>2022-06-12T09:56:03Z</time>
      </trkpt>
      <trkpt lat="43.29934" lon="-2.06392">
        <ele>340.3</ele>
        <time>2022-06-12T09:56:11Z</time>
      </trkpt>
      <trkpt lat="43.29939" lon="-2.06417">
        <ele>337.8</ele>
        <time>2022-06-12T10:00:42Z</time>
      </trkpt>
      <trkpt lat="43.29949" lon="-2.06438">
        <ele>338.8</ele>
        <time>2022-06-12T10:00:49Z</time>
      </trkpt>
      <trkpt lat="43.29958" lon="-2.06463">
        <ele>338.5</ele>
        <time>2022-06-12T10:00:55Z</time>
      </trkpt>
      <trkpt lat="43.29968" lon="-2.06487">
        <ele>338.8</ele>
        <time>2022-06-12T10:01:00Z</time>
      </trkpt>
      <trkpt lat="43.29974" lon="-2.06514">
        <ele>338.6</ele>
        <time>2022-06-12T10:01:05Z</time>
      </trkpt>
      <trkpt lat="43.29965" lon="-2.06541">
        <ele>338.9</ele>
        <time>2022-06-12T10:01:10Z</time>
      </trkpt>
      <trkpt lat="43.29955" lon="-2.06565">
        <ele>337.1</ele>
        <time>2022-06-12T10:01:14Z</time>
      </trkpt>
      <trkpt lat="43.29952" lon="-2.06593">
        <ele>336.3</ele>
        <time>2022-06-12T10:01:18Z</time>
      </trkpt>
      <trkpt lat="43.29959" lon="-2.0662">
        <ele>337.5</ele>
        <time>2022-06-12T10:01:22Z</time>
      </trkpt>
      <trkpt lat="43.29976" lon="-2.06633">
        <ele>337.4</ele>
        <time>2022-06-12T10:01:27Z</time>
      </trkpt>
      <trkpt lat="43.29995" lon="-2.06648">
        <ele>339.6</ele>
        <time>2022-06-12T10:01:33Z</time>
      </trkpt>
      <trkpt lat="43.30005" lon="-2.0667">
        <ele>338.5</ele>
        <time>2022-06-12T10:01:39Z</time>
      </trkpt>
      <trkpt lat="43.30009" lon="-2.06698">
        <ele>340.5</ele>
        <time>2022-06-12T10:01:46Z</time>
      </trkpt>
      <trkpt lat="43.30007" lon="-2.06725">
        <ele>339.4</ele>
        <time>2022-06-12T10:01:54Z</time>
      </trkpt>
      <trkpt lat="43.29998" lon="-2.0675">
        <ele>340.9</ele>
        <time>2022-06-12T10:02:02Z</time>
      </trkpt>
      <trkpt lat="43.29988" lon="-2.06773">
        <ele>342.8</ele>
        <time>2022-06-12T10:02:10Z</time>
      </trkpt>
      <trkpt lat="43.29976" lon="-2.06795">
        <ele>344.4</ele>
        <time>2022-06-12T10:02:18Z</time>
      </trkpt>
      <trkpt lat="43.29962" lon="-2.06814">
        <ele>344.4</ele>
        <time>2022-06-12T10:02:25Z</time>
      </trkpt>
      <trkpt lat="43.2995" lon="-2.06835">
        <ele>347.2</ele>
        <time>2022-06-12T10:02:32Z</time>
      </trkpt>
      <trkpt lat="43.2994" lon="-2.0686">
        <ele>349.6</ele>
        <time>2022-06-12T10:02:39Z</time>
      </trkpt>
      <trkpt lat="43.29934" lon="-2.06884">
        <ele>349.8</ele>
        <time>2022-06-12T10:02:45Z</time>
      </trkpt>
      <trkpt lat="43.29935" lon="-2.06912">
        <ele>349.3</ele>
        <time>2022-06-12T10:02:52Z</time>
      </trkpt>
      <trkpt lat="43.29934" lon="-2.06937">
        <ele>349.6</ele>
        <time>2022-06-12T10:02:59Z</time>
      </trkpt>
      <trkpt lat="43.29951" lon="-2.0692">
        <ele>345.7</ele>
        <time>2022-06-12T10:03:52Z</time>
      </trkpt>
      <trkpt lat="43.29953" lon="-2.06891">
        <ele>342</ele>
        <time>2022-06-12T10:03:57Z</time>
      </trkpt>
      <trkpt lat="43.29973" lon="-2.06896">
        <ele>337.6</ele>
        <time>2022-06-12T10:04:05Z</time>
      </trkpt>
      <trkpt lat="43.29983" lon="-2.0692">
        <ele>336.7</ele>
        <time>2022-06-12T10:04:12Z</time>
      </trkpt>
      <trkpt lat="43.29989" lon="-2.06947">
        <ele>334</ele>
        <time>2022-06-12T10:04:17Z</time>
      </trkpt>
      <trkpt lat="43.29994" lon="-2.06973">
        <ele>331.1</ele>
        <time>2022-06-12T10:04:21Z</time>
      </trkpt>
      <trkpt lat="43.30013" lon="-2.06975">
        <ele>323.7</ele>
        <time>2022-06-12T10:04:29Z</time>
      </trkpt>
      <trkpt lat="43.3001" lon="-2.06947">
        <ele>317.4</ele>
        <time>2022-06-12T10:04:46Z</time>
      </trkpt>
      <trkpt lat="43.30028" lon="-2.06951">
        <ele>312.9</ele>
        <time>2022-06-12T10:04:58Z</time>
      </trkpt>
      <trkpt lat="43.30045" lon="-2.0697">
        <ele>308.8</ele>
        <time>2022-06-12T10:05:04Z</time>
      </trkpt>
      <trkpt lat="43.30061" lon="-2.06985">
        <ele>306.8</ele>
        <time>2022-06-12T10:05:08Z</time>
      </trkpt>
      <trkpt lat="43.3007" lon="-2.07008">
        <ele>304.9</ele>
        <time>2022-06-12T10:05:11Z</time>
      </trkpt>
      <trkpt lat="43.30077" lon="-2.07031">
        <ele>302.5</ele>
        <time>2022-06-12T10:05:14Z</time>
      </trkpt>
      <trkpt lat="43.30083" lon="-2.07058">
        <ele>298.7</ele>
        <time>2022-06-12T10:05:18Z</time>
      </trkpt>
      <trkpt lat="43.30089" lon="-2.07087">
        <ele>296.9</ele>
        <time>2022-06-12T10:05:22Z</time>
      </trkpt>
      <trkpt lat="43.30093" lon="-2.07111">
        <ele>295</ele>
        <time>2022-06-12T10:05:26Z</time>
      </trkpt>
      <trkpt lat="43.30099" lon="-2.07135">
        <ele>292.9</ele>
        <time>2022-06-12T10:05:29Z</time>
      </trkpt>
      <trkpt lat="43.30103" lon="-2.07165">
        <ele>292.1</ele>
        <time>2022-06-12T10:05:33Z</time>
      </trkpt>
      <trkpt lat="43.30106" lon="-2.07195">
        <ele>289</ele>
        <time>2022-06-12T10:05:37Z</time>
      </trkpt>
      <trkpt lat="43.30104" lon="-2.07219">
        <ele>286.7</ele>
        <time>2022-06-12T10:05:40Z</time>
      </trkpt>
      <trkpt lat="43.30101" lon="-2.07245">
        <ele>282.6</ele>
        <time>2022-06-12T10:05:44Z</time>
      </trkpt>
      <trkpt lat="43.3012" lon="-2.07239">
        <ele>277.8</ele>
        <time>2022-06-12T10:05:50Z</time>
      </trkpt>
      <trkpt lat="43.30136" lon="-2.07226">
        <ele>276.6</ele>
        <time>2022-06-12T10:05:54Z</time>
      </trkpt>
      <trkpt lat="43.3015" lon="-2.07209">
        <ele>274.2</ele>
        <time>2022-06-12T10:05:58Z</time>
      </trkpt>
      <trkpt lat="43.3016" lon="-2.07188">
        <ele>270.3</ele>
        <time>2022-06-12T10:06:24Z</time>
      </trkpt>
      <trkpt lat="43.3017" lon="-2.07159">
        <ele>266.5</ele>
        <time>2022-06-12T10:06:29Z</time>
      </trkpt>
      <trkpt lat="43.30186" lon="-2.07147">
        <ele>261.6</ele>
        <time>2022-06-12T10:06:35Z</time>
      </trkpt>
      <trkpt lat="43.30198" lon="-2.0717">
        <ele>257.7</ele>
        <time>2022-06-12T10:06:40Z</time>
      </trkpt>
      <trkpt lat="43.30204" lon="-2.07197">
        <ele>255.4</ele>
        <time>2022-06-12T10:06:45Z</time>
      </trkpt>
      <trkpt lat="43.30205" lon="-2.07224">
        <ele>251.6</ele>
        <time>2022-06-12T10:06:49Z</time>
      </trkpt>
      <trkpt lat="43.30201" lon="-2.07253">
        <ele>249.7</ele>
        <time>2022-06-12T10:06:54Z</time>
      </trkpt>
      <trkpt lat="43.30197" lon="-2.07278">
        <ele>249.2</ele>
        <time>2022-06-12T10:06:58Z</time>
      </trkpt>
      <trkpt lat="43.30194" lon="-2.07306">
        <ele>246</ele>
        <time>2022-06-12T10:07:03Z</time>
      </trkpt>
      <trkpt lat="43.30193" lon="-2.07332">
        <ele>243.1</ele>
        <time>2022-06-12T10:07:45Z</time>
      </trkpt>
      <trkpt lat="43.30195" lon="-2.07359">
        <ele>239.2</ele>
        <time>2022-06-12T10:07:51Z</time>
      </trkpt>
      <trkpt lat="43.3019" lon="-2.07385">
        <ele>237.8</ele>
        <time>2022-06-12T10:07:58Z</time>
      </trkpt>
      <trkpt lat="43.30183" lon="-2.07409">
        <ele>231.8</ele>
        <time>2022-06-12T10:08:06Z</time>
      </trkpt>
      <trkpt lat="43.30179" lon="-2.07433">
        <ele>226.5</ele>
        <time>2022-06-12T10:08:14Z</time>
      </trkpt>
      <trkpt lat="43.3017" lon="-2.07456">
        <ele>226.8</ele>
        <time>2022-06-12T10:08:21Z</time>
      </trkpt>
      <trkpt lat="43.30152" lon="-2.07466">
        <ele>222.2</ele>
        <time>2022-06-12T10:08:45Z</time>
      </trkpt>
      <trkpt lat="43.30134" lon="-2.0747">
        <ele>220.1</ele>
        <time>2022-06-12T10:08:53Z</time>
      </trkpt>
      <trkpt lat="43.30116" lon="-2.07479">
        <ele>221.1</ele>
        <time>2022-06-12T10:09:03Z</time>
      </trkpt>
      <trkpt lat="43.301" lon="-2.07494">
        <ele>214.1</ele>
        <time>2022-06-12T10:09:10Z</time>
      </trkpt>
      <trkpt lat="43.30105" lon="-2.0752">
        <ele>212.5</ele>
        <time>2022-06-12T10:09:32Z</time>
      </trkpt>
      <trkpt lat="43.30111" lon="-2.07543">
        <ele>209.7</ele>
        <time>2022-06-12T10:09:42Z</time>
      </trkpt>
      <trkpt lat="43.30108" lon="-2.07569">
        <ele>214.9</ele>
        <time>2022-06-12T10:09:59Z</time>
      </trkpt>
      <trkpt lat="43.301" lon="-2.07592">
        <ele>216.6</ele>
        <time>2022-06-12T10:10:15Z</time>
      </trkpt>
      <trkpt lat="43.30095" lon="-2.07617">
        <ele>219.8</ele>
        <time>2022-06-12T10:10:27Z</time>
      </trkpt>
      <trkpt lat="43.30097" lon="-2.07642">
        <ele>221.9</ele>
        <time>2022-06-12T10:10:45Z</time>
      </trkpt>
      <trkpt lat="43.301" lon="-2.07667">
        <ele>223.8</ele>
        <time>2022-06-12T10:11:07Z</time>
      </trkpt>
      <trkpt lat="43.30096" lon="-2.07692">
        <ele>223.9</ele>
        <time>2022-06-12T10:11:17Z</time>
      </trkpt>
      <trkpt lat="43.30091" lon="-2.07716">
        <ele>224</ele>
        <time>2022-06-12T10:11:26Z</time>
      </trkpt>
      <trkpt lat="43.30082" lon="-2.0774">
        <ele>223.5</ele>
        <time>2022-06-12T10:11:35Z</time>
      </trkpt>
      <trkpt lat="43.30073" lon="-2.07762">
        <ele>223.4</ele>
        <time>2022-06-12T10:11:43Z</time>
      </trkpt>
      <trkpt lat="43.30063" lon="-2.07787">
        <ele>221.9</ele>
        <time>2022-06-12T10:12:03Z</time>
      </trkpt>
      <trkpt lat="43.30054" lon="-2.07809">
        <ele>220.2</ele>
        <time>2022-06-12T10:12:08Z</time>
      </trkpt>
      <trkpt lat="43.30064" lon="-2.07833">
        <ele>217</ele>
        <time>2022-06-12T10:12:16Z</time>
      </trkpt>
      <trkpt lat="43.30079" lon="-2.07851">
        <ele>216.1</ele>
        <time>2022-06-12T10:12:22Z</time>
      </trkpt>
      <trkpt lat="43.30091" lon="-2.07871">
        <ele>214.8</ele>
        <time>2022-06-12T10:12:29Z</time>
      </trkpt>
      <trkpt lat="43.30076" lon="-2.07885">
        <ele>219.5</ele>
        <time>2022-06-12T10:12:41Z</time>
      </trkpt>
      <trkpt lat="43.30058" lon="-2.07891">
        <ele>219.1</ele>
        <time>2022-06-12T10:12:53Z</time>
      </trkpt>
      <trkpt lat="43.30041" lon="-2.07904">
        <ele>221.3</ele>
        <time>2022-06-12T10:13:06Z</time>
      </trkpt>
      <trkpt lat="43.30024" lon="-2.07915">
        <ele>223.3</ele>
        <time>2022-06-12T10:13:18Z</time>
      </trkpt>
      <trkpt lat="43.30009" lon="-2.0793">
        <ele>225.5</ele>
        <time>2022-06-12T10:13:31Z</time>
      </trkpt>
      <trkpt lat="43.29992" lon="-2.07939">
        <ele>228.1</ele>
        <time>2022-06-12T10:13:43Z</time>
      </trkpt>
      <trkpt lat="43.29973" lon="-2.07939">
        <ele>228.6</ele>
        <time>2022-06-12T10:13:53Z</time>
      </trkpt>
      <trkpt lat="43.29955" lon="-2.07935">
        <ele>230.1</ele>
        <time>2022-06-12T10:14:01Z</time>
      </trkpt>
      <trkpt lat="43.29937" lon="-2.07941">
        <ele>229.2</ele>
        <time>2022-06-12T10:14:09Z</time>
      </trkpt>
      <trkpt lat="43.29924" lon="-2.0796">
        <ele>229.2</ele>
        <time>2022-06-12T10:14:19Z</time>
      </trkpt>
      <trkpt lat="43.29932" lon="-2.07983">
        <ele>231.6</ele>
        <time>2022-06-12T10:14:27Z</time>
      </trkpt>
      <trkpt lat="43.29946" lon="-2.07999">
        <ele>233.4</ele>
        <time>2022-06-12T10:14:35Z</time>
      </trkpt>
      <trkpt lat="43.29961" lon="-2.08013">
        <ele>235.9</ele>
        <time>2022-06-12T10:14:43Z</time>
      </trkpt>
      <trkpt lat="43.29975" lon="-2.0803">
        <ele>237.2</ele>
        <time>2022-06-12T10:14:52Z</time>
      </trkpt>
      <trkpt lat="43.29988" lon="-2.08051">
        <ele>238.5</ele>
        <time>2022-06-12T10:15:01Z</time>
      </trkpt>
      <trkpt lat="43.30005" lon="-2.08064">
        <ele>242.1</ele>
        <time>2022-06-12T10:15:10Z</time>
      </trkpt>
      <trkpt lat="43.30022" lon="-2.08078">
        <ele>243.8</ele>
        <time>2022-06-12T10:15:20Z</time>
      </trkpt>
      <trkpt lat="43.30007" lon="-2.08093">
        <ele>247.4</ele>
        <time>2022-06-12T10:15:37Z</time>
      </trkpt>
      <trkpt lat="43.29991" lon="-2.08103">
        <ele>248.3</ele>
        <time>2022-06-12T10:15:48Z</time>
      </trkpt>
      <trkpt lat="43.29978" lon="-2.08124">
        <ele>248.9</ele>
        <time>2022-06-12T10:16:00Z</time>
      </trkpt>
      <trkpt lat="43.29965" lon="-2.08144">
        <ele>248.9</ele>
        <time>2022-06-12T10:16:09Z</time>
      </trkpt>
      <trkpt lat="43.29954" lon="-2.08164">
        <ele>248.7</ele>
        <time>2022-06-12T10:16:17Z</time>
      </trkpt>
      <trkpt lat="43.2994" lon="-2.08185">
        <ele>248.8</ele>
        <time>2022-06-12T10:16:23Z</time>
      </trkpt>
      <trkpt lat="43.29925" lon="-2.08201">
        <ele>247.2</ele>
        <time>2022-06-12T10:16:27Z</time>
      </trkpt>
      <trkpt lat="43.2991" lon="-2.08223">
        <ele>246.7</ele>
        <time>2022-06-12T10:16:31Z</time>
      </trkpt>
      <trkpt lat="43.29901" lon="-2.08247">
        <ele>246.8</ele>
        <time>2022-06-12T10:16:36Z</time>
      </trkpt>
      <trkpt lat="43.29888" lon="-2.0827">
        <ele>247.4</ele>
        <time>2022-06-12T10:16:42Z</time>
      </trkpt>
      <trkpt lat="43.29889" lon="-2.08297">
        <ele>248.6</ele>
        <time>2022-06-12T10:16:49Z</time>
      </trkpt>
      <trkpt lat="43.29886" lon="-2.08322">
        <ele>249.7</ele>
        <time>2022-06-12T10:16:57Z</time>
      </trkpt>
      <trkpt lat="43.29873" lon="-2.08342">
        <ele>250.6</ele>
        <time>2022-06-12T10:17:06Z</time>
      </trkpt>
      <trkpt lat="43.29859" lon="-2.08359">
        <ele>249.4</ele>
        <time>2022-06-12T10:17:15Z</time>
      </trkpt>
      <trkpt lat="43.2985" lon="-2.08384">
        <ele>248</ele>
        <time>2022-06-12T10:17:22Z</time>
      </trkpt>
      <trkpt lat="43.2984" lon="-2.08405">
        <ele>248</ele>
        <time>2022-06-12T10:17:28Z</time>
      </trkpt>
      <trkpt lat="43.29827" lon="-2.08425">
        <ele>246.9</ele>
        <time>2022-06-12T10:17:34Z</time>
      </trkpt>
      <trkpt lat="43.29813" lon="-2.08446">
        <ele>246.5</ele>
        <time>2022-06-12T10:17:41Z</time>
      </trkpt>
      <trkpt lat="43.29797" lon="-2.08461">
        <ele>247.5</ele>
        <time>2022-06-12T10:17:45Z</time>
      </trkpt>
      <trkpt lat="43.29797" lon="-2.08486">
        <ele>248</ele>
        <time>2022-06-12T10:17:58Z</time>
      </trkpt>
      <trkpt lat="43.29801" lon="-2.08513">
        <ele>247.3</ele>
        <time>2022-06-12T10:18:12Z</time>
      </trkpt>
      <trkpt lat="43.29798" lon="-2.08539">
        <ele>250.1</ele>
        <time>2022-06-12T10:18:23Z</time>
      </trkpt>
      <trkpt lat="43.29803" lon="-2.08563">
        <ele>250.4</ele>
        <time>2022-06-12T10:18:35Z</time>
      </trkpt>
      <trkpt lat="43.29804" lon="-2.08589">
        <ele>252</ele>
        <time>2022-06-12T10:18:47Z</time>
      </trkpt>
      <trkpt lat="43.29793" lon="-2.08609">
        <ele>259.3</ele>
        <time>2022-06-12T10:19:04Z</time>
      </trkpt>
      <trkpt lat="43.29777" lon="-2.08623">
        <ele>263.2</ele>
        <time>2022-06-12T10:19:20Z</time>
      </trkpt>
      <trkpt lat="43.29762" lon="-2.08639">
        <ele>265.5</ele>
        <time>2022-06-12T10:19:36Z</time>
      </trkpt>
      <trkpt lat="43.29747" lon="-2.08653">
        <ele>266</ele>
        <time>2022-06-12T10:19:49Z</time>
      </trkpt>
      <trkpt lat="43.2973" lon="-2.08666">
        <ele>268.5</ele>
        <time>2022-06-12T10:20:04Z</time>
      </trkpt>
      <trkpt lat="43.29716" lon="-2.08683">
        <ele>269.7</ele>
        <time>2022-06-12T10:20:13Z</time>
      </trkpt>
      <trkpt lat="43.29702" lon="-2.087">
        <ele>270.2</ele>
        <time>2022-06-12T10:20:24Z</time>
      </trkpt>
      <trkpt lat="43.29689" lon="-2.0872">
        <ele>269.8</ele>
        <time>2022-06-12T10:20:33Z</time>
      </trkpt>
      <trkpt lat="43.29676" lon="-2.0874">
        <ele>275.1</ele>
        <time>2022-06-12T10:20:42Z</time>
      </trkpt>
      <trkpt lat="43.29662" lon="-2.0876">
        <ele>277.7</ele>
        <time>2022-06-12T10:20:52Z</time>
      </trkpt>
      <trkpt lat="43.29654" lon="-2.08783">
        <ele>278.3</ele>
        <time>2022-06-12T10:21:02Z</time>
      </trkpt>
      <trkpt lat="43.29646" lon="-2.08807">
        <ele>278.3</ele>
        <time>2022-06-12T10:21:12Z</time>
      </trkpt>
      <trkpt lat="43.29633" lon="-2.08827">
        <ele>275</ele>
        <time>2022-06-12T10:21:21Z</time>
      </trkpt>
      <trkpt lat="43.29618" lon="-2.08842">
        <ele>276.8</ele>
        <time>2022-06-12T10:21:29Z</time>
      </trkpt>
      <trkpt lat="43.29618" lon="-2.0887">
        <ele>278.6</ele>
        <time>2022-06-12T10:21:34Z</time>
      </trkpt>
      <trkpt lat="43.29621" lon="-2.08897">
        <ele>285.3</ele>
        <time>2022-06-12T10:21:41Z</time>
      </trkpt>
      <trkpt lat="43.29612" lon="-2.0892">
        <ele>285.4</ele>
        <time>2022-06-12T10:21:48Z</time>
      </trkpt>
      <trkpt lat="43.2961" lon="-2.08946">
        <ele>282.8</ele>
        <time>2022-06-12T10:21:55Z</time>
      </trkpt>
      <trkpt lat="43.29627" lon="-2.08956">
        <ele>283.9</ele>
        <time>2022-06-12T10:22:07Z</time>
      </trkpt>
      <trkpt lat="43.29641" lon="-2.08974">
        <ele>286.2</ele>
        <time>2022-06-12T10:22:21Z</time>
      </trkpt>
      <trkpt lat="43.29645" lon="-2.08999">
        <ele>291.1</ele>
        <time>2022-06-12T10:22:34Z</time>
      </trkpt>
      <trkpt lat="43.29636" lon="-2.09022">
        <ele>289.1</ele>
        <time>2022-06-12T10:22:47Z</time>
      </trkpt>
      <trkpt lat="43.29629" lon="-2.09045">
        <ele>292.1</ele>
        <time>2022-06-12T10:23:02Z</time>
      </trkpt>
      <trkpt lat="43.29613" lon="-2.09033">
        <ele>291.1</ele>
        <time>2022-06-12T10:24:53Z</time>
      </trkpt>
      <trkpt lat="43.29595" lon="-2.0904">
        <ele>296.9</ele>
        <time>2022-06-12T10:25:06Z</time>
      </trkpt>
      <trkpt lat="43.29582" lon="-2.0906">
        <ele>298.6</ele>
        <time>2022-06-12T10:25:18Z</time>
      </trkpt>
      <trkpt lat="43.29569" lon="-2.09081">
        <ele>298.4</ele>
        <time>2022-06-12T10:25:28Z</time>
      </trkpt>
      <trkpt lat="43.29558" lon="-2.09103">
        <ele>300.9</ele>
        <time>2022-06-12T10:25:37Z</time>
      </trkpt>
      <trkpt lat="43.29548" lon="-2.09126">
        <ele>300.9</ele>
        <time>2022-06-12T10:25:45Z</time>
      </trkpt>
      <trkpt lat="43.29537" lon="-2.09148">
        <ele>301.4</ele>
        <time>2022-06-12T10:25:52Z</time>
      </trkpt>
      <trkpt lat="43.29526" lon="-2.0917">
        <ele>303.1</ele>
        <time>2022-06-12T10:25:59Z</time>
      </trkpt>
      <trkpt lat="43.29518" lon="-2.09191">
        <ele>303.4</ele>
        <time>2022-06-12T10:26:05Z</time>
      </trkpt>
      <trkpt lat="43.29508" lon="-2.09214">
        <ele>304.2</ele>
        <time>2022-06-12T10:26:12Z</time>
      </trkpt>
      <trkpt lat="43.29498" lon="-2.09236">
        <ele>307</ele>
        <time>2022-06-12T10:26:19Z</time>
      </trkpt>
      <trkpt lat="43.29486" lon="-2.09257">
        <ele>310.3</ele>
        <time>2022-06-12T10:26:54Z</time>
      </trkpt>
      <trkpt lat="43.29474" lon="-2.09276">
        <ele>310.1</ele>
        <time>2022-06-12T10:34:45Z</time>
      </trkpt>
      <trkpt lat="43.29475" lon="-2.09304">
        <ele>309.3</ele>
        <time>2022-06-12T10:34:50Z</time>
      </trkpt>
      <trkpt lat="43.29457" lon="-2.09314">
        <ele>308.1</ele>
        <time>2022-06-12T10:35:00Z</time>
      </trkpt>
      <trkpt lat="43.29442" lon="-2.09329">
        <ele>309.6</ele>
        <time>2022-06-12T10:35:11Z</time>
      </trkpt>
      <trkpt lat="43.29429" lon="-2.09349">
        <ele>310.8</ele>
        <time>2022-06-12T10:35:19Z</time>
      </trkpt>
      <trkpt lat="43.29418" lon="-2.09371">
        <ele>311.2</ele>
        <time>2022-06-12T10:35:28Z</time>
      </trkpt>
      <trkpt lat="43.2941" lon="-2.09396">
        <ele>310.8</ele>
        <time>2022-06-12T10:35:36Z</time>
      </trkpt>
      <trkpt lat="43.29399" lon="-2.09419">
        <ele>309.7</ele>
        <time>2022-06-12T10:35:43Z</time>
      </trkpt>
      <trkpt lat="43.2939" lon="-2.09442">
        <ele>308.9</ele>
        <time>2022-06-12T10:35:50Z</time>
      </trkpt>
      <trkpt lat="43.29383" lon="-2.09467">
        <ele>309.2</ele>
        <time>2022-06-12T10:35:58Z</time>
      </trkpt>
      <trkpt lat="43.29373" lon="-2.0949">
        <ele>308.1</ele>
        <time>2022-06-12T10:36:06Z</time>
      </trkpt>
      <trkpt lat="43.29368" lon="-2.09516">
        <ele>310.9</ele>
        <time>2022-06-12T10:36:14Z</time>
      </trkpt>
      <trkpt lat="43.29375" lon="-2.09541">
        <ele>312.2</ele>
        <time>2022-06-12T10:36:22Z</time>
      </trkpt>
      <trkpt lat="43.29374" lon="-2.09568">
        <ele>312.5</ele>
        <time>2022-06-12T10:36:33Z</time>
      </trkpt>
      <trkpt lat="43.29369" lon="-2.09594">
        <ele>314</ele>
        <time>2022-06-12T10:36:40Z</time>
      </trkpt>
      <trkpt lat="43.29359" lon="-2.09614">
        <ele>314.2</ele>
        <time>2022-06-12T10:36:49Z</time>
      </trkpt>
      <trkpt lat="43.29346" lon="-2.09633">
        <ele>315.6</ele>
        <time>2022-06-12T10:36:59Z</time>
      </trkpt>
      <trkpt lat="43.29333" lon="-2.09652">
        <ele>315.3</ele>
        <time>2022-06-12T10:37:08Z</time>
      </trkpt>
      <trkpt lat="43.29325" lon="-2.09675">
        <ele>316.9</ele>
        <time>2022-06-12T10:37:16Z</time>
      </trkpt>
      <trkpt lat="43.29316" lon="-2.09699">
        <ele>315.5</ele>
        <time>2022-06-12T10:37:24Z</time>
      </trkpt>
      <trkpt lat="43.29305" lon="-2.09721">
        <ele>315.3</ele>
        <time>2022-06-12T10:37:31Z</time>
      </trkpt>
      <trkpt lat="43.29295" lon="-2.09744">
        <ele>314.3</ele>
        <time>2022-06-12T10:37:39Z</time>
      </trkpt>
      <trkpt lat="43.29285" lon="-2.09765">
        <ele>315.8</ele>
        <time>2022-06-12T10:37:46Z</time>
      </trkpt>
      <trkpt lat="43.29274" lon="-2.09786">
        <ele>316.1</ele>
        <time>2022-06-12T10:37:55Z</time>
      </trkpt>
      <trkpt lat="43.29266" lon="-2.09809">
        <ele>314.8</ele>
        <time>2022-06-12T10:38:04Z</time>
      </trkpt>
      <trkpt lat="43.29264" lon="-2.09834">
        <ele>316.8</ele>
        <time>2022-06-12T10:38:13Z</time>
      </trkpt>
      <trkpt lat="43.29283" lon="-2.09843">
        <ele>316.8</ele>
        <time>2022-06-12T10:38:18Z</time>
      </trkpt>
      <trkpt lat="43.293" lon="-2.09851">
        <ele>317.2</ele>
        <time>2022-06-12T10:38:23Z</time>
      </trkpt>
      <trkpt lat="43.29318" lon="-2.09859">
        <ele>317.9</ele>
        <time>2022-06-12T10:38:30Z</time>
      </trkpt>
      <trkpt lat="43.29334" lon="-2.0987">
        <ele>319.3</ele>
        <time>2022-06-12T10:38:37Z</time>
      </trkpt>
      <trkpt lat="43.2935" lon="-2.09885">
        <ele>322.2</ele>
        <time>2022-06-12T10:38:47Z</time>
      </trkpt>
      <trkpt lat="43.29367" lon="-2.09877">
        <ele>322.2</ele>
        <time>2022-06-12T10:38:56Z</time>
      </trkpt>
      <trkpt lat="43.29387" lon="-2.09877">
        <ele>324</ele>
        <time>2022-06-12T10:39:05Z</time>
      </trkpt>
      <trkpt lat="43.29406" lon="-2.09876">
        <ele>325.9</ele>
        <time>2022-06-12T10:39:16Z</time>
      </trkpt>
      <trkpt lat="43.29424" lon="-2.09883">
        <ele>324.4</ele>
        <time>2022-06-12T10:39:26Z</time>
      </trkpt>
      <trkpt lat="43.29439" lon="-2.099">
        <ele>324.7</ele>
        <time>2022-06-12T10:39:34Z</time>
      </trkpt>
      <trkpt lat="43.2945" lon="-2.09922">
        <ele>323.4</ele>
        <time>2022-06-12T10:39:41Z</time>
      </trkpt>
      <trkpt lat="43.29456" lon="-2.09947">
        <ele>325.3</ele>
        <time>2022-06-12T10:39:49Z</time>
      </trkpt>
      <trkpt lat="43.29454" lon="-2.09974">
        <ele>325</ele>
        <time>2022-06-12T10:39:56Z</time>
      </trkpt>
      <trkpt lat="43.29452" lon="-2.10002">
        <ele>325.7</ele>
        <time>2022-06-12T10:40:03Z</time>
      </trkpt>
      <trkpt lat="43.29453" lon="-2.10028">
        <ele>326.9</ele>
        <time>2022-06-12T10:40:10Z</time>
      </trkpt>
      <trkpt lat="43.29452" lon="-2.10055">
        <ele>326.4</ele>
        <time>2022-06-12T10:40:17Z</time>
      </trkpt>
      <trkpt lat="43.2945" lon="-2.10081">
        <ele>326.6</ele>
        <time>2022-06-12T10:40:24Z</time>
      </trkpt>
      <trkpt lat="43.29449" lon="-2.10106">
        <ele>327.2</ele>
        <time>2022-06-12T10:40:31Z</time>
      </trkpt>
      <trkpt lat="43.29444" lon="-2.10133">
        <ele>328.2</ele>
        <time>2022-06-12T10:40:37Z</time>
      </trkpt>
      <trkpt lat="43.2944" lon="-2.10157">
        <ele>329.8</ele>
        <time>2022-06-12T10:40:44Z</time>
      </trkpt>
      <trkpt lat="43.29437" lon="-2.10182">
        <ele>330.8</ele>
        <time>2022-06-12T10:40:52Z</time>
      </trkpt>
      <trkpt lat="43.29437" lon="-2.10209">
        <ele>334.4</ele>
        <time>2022-06-12T10:41:02Z</time>
      </trkpt>
      <trkpt lat="43.2944" lon="-2.10236">
        <ele>334.7</ele>
        <time>2022-06-12T10:41:11Z</time>
      </trkpt>
      <trkpt lat="43.29435" lon="-2.1026">
        <ele>336.9</ele>
        <time>2022-06-12T10:41:19Z</time>
      </trkpt>
      <trkpt lat="43.29429" lon="-2.10283">
        <ele>336.4</ele>
        <time>2022-06-12T10:41:27Z</time>
      </trkpt>
      <trkpt lat="43.29423" lon="-2.1031">
        <ele>336.8</ele>
        <time>2022-06-12T10:41:35Z</time>
      </trkpt>
      <trkpt lat="43.29419" lon="-2.10336">
        <ele>336.1</ele>
        <time>2022-06-12T10:41:44Z</time>
      </trkpt>
      <trkpt lat="43.29416" lon="-2.10362">
        <ele>337.4</ele>
        <time>2022-06-12T10:41:52Z</time>
      </trkpt>
      <trkpt lat="43.29409" lon="-2.10386">
        <ele>340</ele>
        <time>2022-06-12T10:42:00Z</time>
      </trkpt>
      <trkpt lat="43.29401" lon="-2.10408">
        <ele>340.1</ele>
        <time>2022-06-12T10:42:07Z</time>
      </trkpt>
      <trkpt lat="43.29388" lon="-2.1043">
        <ele>339.1</ele>
        <time>2022-06-12T10:42:15Z</time>
      </trkpt>
      <trkpt lat="43.29374" lon="-2.10448">
        <ele>342.5</ele>
        <time>2022-06-12T10:42:27Z</time>
      </trkpt>
      <trkpt lat="43.29356" lon="-2.10454">
        <ele>345.4</ele>
        <time>2022-06-12T10:42:38Z</time>
      </trkpt>
      <trkpt lat="43.29338" lon="-2.10452">
        <ele>349.3</ele>
        <time>2022-06-12T10:42:51Z</time>
      </trkpt>
      <trkpt lat="43.29319" lon="-2.10456">
        <ele>352.5</ele>
        <time>2022-06-12T10:43:04Z</time>
      </trkpt>
      <trkpt lat="43.293" lon="-2.10464">
        <ele>355.2</ele>
        <time>2022-06-12T10:43:18Z</time>
      </trkpt>
      <trkpt lat="43.29284" lon="-2.10479">
        <ele>360.3</ele>
        <time>2022-06-12T10:43:32Z</time>
      </trkpt>
      <trkpt lat="43.29272" lon="-2.10498">
        <ele>361.4</ele>
        <time>2022-06-12T10:43:44Z</time>
      </trkpt>
      <trkpt lat="43.29269" lon="-2.10524">
        <ele>361</ele>
        <time>2022-06-12T10:43:54Z</time>
      </trkpt>
      <trkpt lat="43.29262" lon="-2.10549">
        <ele>362.3</ele>
        <time>2022-06-12T10:44:03Z</time>
      </trkpt>
      <trkpt lat="43.29256" lon="-2.10573">
        <ele>361.3</ele>
        <time>2022-06-12T10:44:11Z</time>
      </trkpt>
      <trkpt lat="43.29253" lon="-2.10598">
        <ele>361.7</ele>
        <time>2022-06-12T10:44:21Z</time>
      </trkpt>
      <trkpt lat="43.2925" lon="-2.10624">
        <ele>362.6</ele>
        <time>2022-06-12T10:44:34Z</time>
      </trkpt>
      <trkpt lat="43.29251" lon="-2.1065">
        <ele>363.3</ele>
        <time>2022-06-12T10:44:44Z</time>
      </trkpt>
      <trkpt lat="43.29252" lon="-2.10675">
        <ele>364.8</ele>
        <time>2022-06-12T10:44:54Z</time>
      </trkpt>
      <trkpt lat="43.29245" lon="-2.107">
        <ele>365.1</ele>
        <time>2022-06-12T10:45:05Z</time>
      </trkpt>
      <trkpt lat="43.29247" lon="-2.10727">
        <ele>366.2</ele>
        <time>2022-06-12T10:45:16Z</time>
      </trkpt>
      <trkpt lat="43.29242" lon="-2.10751">
        <ele>366.6</ele>
        <time>2022-06-12T10:47:49Z</time>
      </trkpt>
      <trkpt lat="43.29229" lon="-2.10769">
        <ele>365.5</ele>
        <time>2022-06-12T10:48:02Z</time>
      </trkpt>
      <trkpt lat="43.29226" lon="-2.10796">
        <ele>365</ele>
        <time>2022-06-12T10:48:13Z</time>
      </trkpt>
      <trkpt lat="43.29222" lon="-2.10822">
        <ele>363.6</ele>
        <time>2022-06-12T10:48:21Z</time>
      </trkpt>
      <trkpt lat="43.29217" lon="-2.10848">
        <ele>362.1</ele>
        <time>2022-06-12T10:48:32Z</time>
      </trkpt>
      <trkpt lat="43.29214" lon="-2.10873">
        <ele>360.6</ele>
        <time>2022-06-12T10:48:48Z</time>
      </trkpt>
      <trkpt lat="43.29214" lon="-2.109">
        <ele>359.2</ele>
        <time>2022-06-12T10:49:26Z</time>
      </trkpt>
      <trkpt lat="43.29224" lon="-2.10923">
        <ele>352</ele>
        <time>2022-06-12T10:49:35Z</time>
      </trkpt>
      <trkpt lat="43.2923" lon="-2.10948">
        <ele>349.1</ele>
        <time>2022-06-12T10:49:42Z</time>
      </trkpt>
      <trkpt lat="43.2923" lon="-2.10977">
        <ele>343.2</ele>
        <time>2022-06-12T10:49:48Z</time>
      </trkpt>
      <trkpt lat="43.29227" lon="-2.11003">
        <ele>337.9</ele>
        <time>2022-06-12T10:49:52Z</time>
      </trkpt>
      <trkpt lat="43.29225" lon="-2.11028">
        <ele>336.7</ele>
        <time>2022-06-12T10:49:55Z</time>
      </trkpt>
      <trkpt lat="43.29222" lon="-2.11055">
        <ele>335.8</ele>
        <time>2022-06-12T10:49:59Z</time>
      </trkpt>
      <trkpt lat="43.29222" lon="-2.11082">
        <ele>335.8</ele>
        <time>2022-06-12T10:50:03Z</time>
      </trkpt>
      <trkpt lat="43.29216" lon="-2.11115">
        <ele>334.5</ele>
        <time>2022-06-12T10:50:07Z</time>
      </trkpt>
      <trkpt lat="43.29212" lon="-2.11141">
        <ele>333.1</ele>
        <time>2022-06-12T10:50:10Z</time>
      </trkpt>
      <trkpt lat="43.29202" lon="-2.1117">
        <ele>330.8</ele>
        <time>2022-06-12T10:50:14Z</time>
      </trkpt>
      <trkpt lat="43.29194" lon="-2.11197">
        <ele>330.7</ele>
        <time>2022-06-12T10:50:18Z</time>
      </trkpt>
      <trkpt lat="43.29186" lon="-2.11221">
        <ele>332.3</ele>
        <time>2022-06-12T10:50:22Z</time>
      </trkpt>
      <trkpt lat="43.29179" lon="-2.11247">
        <ele>332.4</ele>
        <time>2022-06-12T10:50:26Z</time>
      </trkpt>
      <trkpt lat="43.29172" lon="-2.11273">
        <ele>330.3</ele>
        <time>2022-06-12T10:50:30Z</time>
      </trkpt>
      <trkpt lat="43.29166" lon="-2.11301">
        <ele>326.3</ele>
        <time>2022-06-12T10:50:35Z</time>
      </trkpt>
      <trkpt lat="43.29162" lon="-2.11327">
        <ele>323.6</ele>
        <time>2022-06-12T10:50:39Z</time>
      </trkpt>
      <trkpt lat="43.29156" lon="-2.11352">
        <ele>322.9</ele>
        <time>2022-06-12T10:50:43Z</time>
      </trkpt>
      <trkpt lat="43.29155" lon="-2.11378">
        <ele>319.5</ele>
        <time>2022-06-12T10:50:47Z</time>
      </trkpt>
      <trkpt lat="43.29151" lon="-2.11405">
        <ele>316.4</ele>
        <time>2022-06-12T10:50:51Z</time>
      </trkpt>
      <trkpt lat="43.29148" lon="-2.11431">
        <ele>312</ele>
        <time>2022-06-12T10:50:55Z</time>
      </trkpt>
      <trkpt lat="43.29144" lon="-2.11458">
        <ele>307.4</ele>
        <time>2022-06-12T10:50:59Z</time>
      </trkpt>
      <trkpt lat="43.29139" lon="-2.11485">
        <ele>306.6</ele>
        <time>2022-06-12T10:51:02Z</time>
      </trkpt>
      <trkpt lat="43.29153" lon="-2.11465">
        <ele>294.9</ele>
        <time>2022-06-12T10:52:36Z</time>
      </trkpt>
      <trkpt lat="43.29169" lon="-2.11442">
        <ele>292.9</ele>
        <time>2022-06-12T10:52:42Z</time>
      </trkpt>
      <trkpt lat="43.29182" lon="-2.11418">
        <ele>292</ele>
        <time>2022-06-12T10:52:46Z</time>
      </trkpt>
      <trkpt lat="43.29195" lon="-2.11393">
        <ele>293.1</ele>
        <time>2022-06-12T10:52:50Z</time>
      </trkpt>
      <trkpt lat="43.29207" lon="-2.11367">
        <ele>293.5</ele>
        <time>2022-06-12T10:52:54Z</time>
      </trkpt>
      <trkpt lat="43.29217" lon="-2.11344">
        <ele>294.3</ele>
        <time>2022-06-12T10:53:02Z</time>
      </trkpt>
      <trkpt lat="43.29225" lon="-2.11319">
        <ele>293.3</ele>
        <time>2022-06-12T10:53:08Z</time>
      </trkpt>
      <trkpt lat="43.29234" lon="-2.11295">
        <ele>293.1</ele>
        <time>2022-06-12T10:53:12Z</time>
      </trkpt>
      <trkpt lat="43.29241" lon="-2.11272">
        <ele>292</ele>
        <time>2022-06-12T10:53:16Z</time>
      </trkpt>
      <trkpt lat="43.29248" lon="-2.11247">
        <ele>293.8</ele>
        <time>2022-06-12T10:53:23Z</time>
      </trkpt>
      <trkpt lat="43.29257" lon="-2.11226">
        <ele>294.7</ele>
        <time>2022-06-12T10:53:30Z</time>
      </trkpt>
      <trkpt lat="43.29261" lon="-2.112">
        <ele>294.5</ele>
        <time>2022-06-12T10:53:38Z</time>
      </trkpt>
      <trkpt lat="43.29266" lon="-2.11175">
        <ele>295.1</ele>
        <time>2022-06-12T10:53:46Z</time>
      </trkpt>
      <trkpt lat="43.29274" lon="-2.11152">
        <ele>298.2</ele>
        <time>2022-06-12T10:53:56Z</time>
      </trkpt>
      <trkpt lat="43.29281" lon="-2.11127">
        <ele>296.8</ele>
        <time>2022-06-12T10:54:04Z</time>
      </trkpt>
      <trkpt lat="43.29292" lon="-2.11105">
        <ele>299</ele>
        <time>2022-06-12T10:54:11Z</time>
      </trkpt>
      <trkpt lat="43.29302" lon="-2.11082">
        <ele>296.6</ele>
        <time>2022-06-12T10:54:18Z</time>
      </trkpt>
      <trkpt lat="43.29308" lon="-2.11056">
        <ele>297.7</ele>
        <time>2022-06-12T10:54:24Z</time>
      </trkpt>
      <trkpt lat="43.2932" lon="-2.11034">
        <ele>298.4</ele>
        <time>2022-06-12T10:54:31Z</time>
      </trkpt>
      <trkpt lat="43.29327" lon="-2.11008">
        <ele>295.6</ele>
        <time>2022-06-12T10:54:38Z</time>
      </trkpt>
      <trkpt lat="43.29338" lon="-2.10987">
        <ele>294.5</ele>
        <time>2022-06-12T10:54:43Z</time>
      </trkpt>
      <trkpt lat="43.2935" lon="-2.10966">
        <ele>296.7</ele>
        <time>2022-06-12T10:55:09Z</time>
      </trkpt>
      <trkpt lat="43.29361" lon="-2.10942">
        <ele>295.5</ele>
        <time>2022-06-12T10:55:14Z</time>
      </trkpt>
      <trkpt lat="43.29371" lon="-2.1092">
        <ele>293.5</ele>
        <time>2022-06-12T10:55:19Z</time>
      </trkpt>
      <trkpt lat="43.29377" lon="-2.10896">
        <ele>288.5</ele>
        <time>2022-06-12T10:56:24Z</time>
      </trkpt>
      <trkpt lat="43.29386" lon="-2.10918">
        <ele>272.6</ele>
        <time>2022-06-12T10:57:12Z</time>
      </trkpt>
      <trkpt lat="43.29404" lon="-2.10925">
        <ele>275.6</ele>
        <time>2022-06-12T10:57:20Z</time>
      </trkpt>
      <trkpt lat="43.29424" lon="-2.10927">
        <ele>278.4</ele>
        <time>2022-06-12T10:57:44Z</time>
      </trkpt>
      <trkpt lat="43.29442" lon="-2.10923">
        <ele>276.4</ele>
        <time>2022-06-12T10:57:55Z</time>
      </trkpt>
      <trkpt lat="43.29458" lon="-2.10911">
        <ele>270.3</ele>
        <time>2022-06-12T10:58:02Z</time>
      </trkpt>
      <trkpt lat="43.29477" lon="-2.10903">
        <ele>265.6</ele>
        <time>2022-06-12T10:58:10Z</time>
      </trkpt>
      <trkpt lat="43.29498" lon="-2.1091">
        <ele>258.3</ele>
        <time>2022-06-12T10:58:19Z</time>
      </trkpt>
      <trkpt lat="43.29515" lon="-2.10908">
        <ele>250.5</ele>
        <time>2022-06-12T10:58:25Z</time>
      </trkpt>
      <trkpt lat="43.29534" lon="-2.10906">
        <ele>243</ele>
        <time>2022-06-12T10:58:34Z</time>
      </trkpt>
      <trkpt lat="43.29555" lon="-2.109">
        <ele>238.7</ele>
        <time>2022-06-12T10:58:39Z</time>
      </trkpt>
      <trkpt lat="43.29573" lon="-2.10889">
        <ele>233</ele>
        <time>2022-06-12T10:59:03Z</time>
      </trkpt>
      <trkpt lat="43.29589" lon="-2.10876">
        <ele>232.4</ele>
        <time>2022-06-12T10:59:08Z</time>
      </trkpt>
      <trkpt lat="43.29606" lon="-2.1086">
        <ele>223.3</ele>
        <time>2022-06-12T10:59:14Z</time>
      </trkpt>
      <trkpt lat="43.29624" lon="-2.10846">
        <ele>215.4</ele>
        <time>2022-06-12T10:59:20Z</time>
      </trkpt>
      <trkpt lat="43.29645" lon="-2.10838">
        <ele>207.1</ele>
        <time>2022-06-12T10:59:26Z</time>
      </trkpt>
      <trkpt lat="43.29669" lon="-2.10838">
        <ele>204</ele>
        <time>2022-06-12T10:59:30Z</time>
      </trkpt>
      <trkpt lat="43.29691" lon="-2.10845">
        <ele>200.3</ele>
        <time>2022-06-12T10:59:34Z</time>
      </trkpt>
      <trkpt lat="43.29705" lon="-2.10862">
        <ele>194.3</ele>
        <time>2022-06-12T10:59:38Z</time>
      </trkpt>
      <trkpt lat="43.29703" lon="-2.10892">
        <ele>189</ele>
        <time>2022-06-12T10:59:43Z</time>
      </trkpt>
      <trkpt lat="43.29711" lon="-2.10915">
        <ele>187.9</ele>
        <time>2022-06-12T10:59:47Z</time>
      </trkpt>
      <trkpt lat="43.29726" lon="-2.10935">
        <ele>183.2</ele>
        <time>2022-06-12T11:00:05Z</time>
      </trkpt>
      <trkpt lat="43.29724" lon="-2.10969">
        <ele>178.3</ele>
        <time>2022-06-12T11:00:09Z</time>
      </trkpt>
      <trkpt lat="43.29724" lon="-2.10999">
        <ele>176.5</ele>
        <time>2022-06-12T11:00:12Z</time>
      </trkpt>
      <trkpt lat="43.29724" lon="-2.11028">
        <ele>174.5</ele>
        <time>2022-06-12T11:00:15Z</time>
      </trkpt>
      <trkpt lat="43.29721" lon="-2.11058">
        <ele>171.8</ele>
        <time>2022-06-12T11:00:18Z</time>
      </trkpt>
      <trkpt lat="43.29712" lon="-2.11084">
        <ele>169.1</ele>
        <time>2022-06-12T11:00:21Z</time>
      </trkpt>
      <trkpt lat="43.29695" lon="-2.11098">
        <ele>164.6</ele>
        <time>2022-06-12T11:00:35Z</time>
      </trkpt>
      <trkpt lat="43.29677" lon="-2.11086">
        <ele>154.9</ele>
        <time>2022-06-12T11:00:39Z</time>
      </trkpt>
      <trkpt lat="43.29656" lon="-2.11087">
        <ele>153.1</ele>
        <time>2022-06-12T11:00:48Z</time>
      </trkpt>
      <trkpt lat="43.29642" lon="-2.11103">
        <ele>153.8</ele>
        <time>2022-06-12T11:00:55Z</time>
      </trkpt>
      <trkpt lat="43.29624" lon="-2.11109">
        <ele>151.8</ele>
        <time>2022-06-12T11:01:03Z</time>
      </trkpt>
      <trkpt lat="43.29605" lon="-2.11114">
        <ele>156.2</ele>
        <time>2022-06-12T11:01:13Z</time>
      </trkpt>
      <trkpt lat="43.29591" lon="-2.11129">
        <ele>155.8</ele>
        <time>2022-06-12T11:01:23Z</time>
      </trkpt>
      <trkpt lat="43.29577" lon="-2.11147">
        <ele>160.8</ele>
        <time>2022-06-12T11:01:35Z</time>
      </trkpt>
      <trkpt lat="43.29564" lon="-2.11165">
        <ele>159.8</ele>
        <time>2022-06-12T11:01:45Z</time>
      </trkpt>
      <trkpt lat="43.29553" lon="-2.11184">
        <ele>160.8</ele>
        <time>2022-06-12T11:01:58Z</time>
      </trkpt>
      <trkpt lat="43.29536" lon="-2.11197">
        <ele>153.3</ele>
        <time>2022-06-12T11:04:29Z</time>
      </trkpt>
      <trkpt lat="43.29524" lon="-2.11215">
        <ele>152.9</ele>
        <time>2022-06-12T11:04:34Z</time>
      </trkpt>
      <trkpt lat="43.29516" lon="-2.11241">
        <ele>149.1</ele>
        <time>2022-06-12T11:04:39Z</time>
      </trkpt>
      <trkpt lat="43.29502" lon="-2.11263">
        <ele>144.6</ele>
        <time>2022-06-12T11:04:44Z</time>
      </trkpt>
      <trkpt lat="43.29487" lon="-2.11284">
        <ele>140.8</ele>
        <time>2022-06-12T11:04:48Z</time>
      </trkpt>
      <trkpt lat="43.29485" lon="-2.11313">
        <ele>137.4</ele>
        <time>2022-06-12T11:04:52Z</time>
      </trkpt>
      <trkpt lat="43.29478" lon="-2.11338">
        <ele>134.1</ele>
        <time>2022-06-12T11:04:58Z</time>
      </trkpt>
      <trkpt lat="43.29473" lon="-2.11363">
        <ele>134</ele>
        <time>2022-06-12T11:05:23Z</time>
      </trkpt>
      <trkpt lat="43.29461" lon="-2.1139">
        <ele>132.8</ele>
        <time>2022-06-12T11:05:28Z</time>
      </trkpt>
      <trkpt lat="43.29453" lon="-2.11418">
        <ele>131</ele>
        <time>2022-06-12T11:05:32Z</time>
      </trkpt>
      <trkpt lat="43.29444" lon="-2.11446">
        <ele>129.9</ele>
        <time>2022-06-12T11:05:36Z</time>
      </trkpt>
      <trkpt lat="43.29459" lon="-2.11423">
        <ele>125.7</ele>
        <time>2022-06-12T11:05:48Z</time>
      </trkpt>
      <trkpt lat="43.2947" lon="-2.11402">
        <ele>124.6</ele>
        <time>2022-06-12T11:05:51Z</time>
      </trkpt>
      <trkpt lat="43.29487" lon="-2.11388">
        <ele>124.2</ele>
        <time>2022-06-12T11:05:56Z</time>
      </trkpt>
      <trkpt lat="43.29495" lon="-2.11411">
        <ele>117.8</ele>
        <time>2022-06-12T11:06:12Z</time>
      </trkpt>
      <trkpt lat="43.29491" lon="-2.11438">
        <ele>114.9</ele>
        <time>2022-06-12T11:06:16Z</time>
      </trkpt>
      <trkpt lat="43.29484" lon="-2.11463">
        <ele>113</ele>
        <time>2022-06-12T11:06:19Z</time>
      </trkpt>
      <trkpt lat="43.29478" lon="-2.11492">
        <ele>110.9</ele>
        <time>2022-06-12T11:06:22Z</time>
      </trkpt>
      <trkpt lat="43.29475" lon="-2.11524">
        <ele>110</ele>
        <time>2022-06-12T11:06:25Z</time>
      </trkpt>
      <trkpt lat="43.29466" lon="-2.11556">
        <ele>109.2</ele>
        <time>2022-06-12T11:06:28Z</time>
      </trkpt>
      <trkpt lat="43.2946" lon="-2.1159">
        <ele>108.2</ele>
        <time>2022-06-12T11:06:31Z</time>
      </trkpt>
      <trkpt lat="43.29454" lon="-2.11616">
        <ele>108.6</ele>
        <time>2022-06-12T11:06:34Z</time>
      </trkpt>
      <trkpt lat="43.29444" lon="-2.11639">
        <ele>109.8</ele>
        <time>2022-06-12T11:06:37Z</time>
      </trkpt>
      <trkpt lat="43.29441" lon="-2.11667">
        <ele>110.6</ele>
        <time>2022-06-12T11:06:42Z</time>
      </trkpt>
      <trkpt lat="43.29454" lon="-2.11687">
        <ele>113.6</ele>
        <time>2022-06-12T11:06:50Z</time>
      </trkpt>
      <trkpt lat="43.29454" lon="-2.11713">
        <ele>111.9</ele>
        <time>2022-06-12T11:07:02Z</time>
      </trkpt>
      <trkpt lat="43.29446" lon="-2.11742">
        <ele>108.1</ele>
        <time>2022-06-12T11:07:09Z</time>
      </trkpt>
      <trkpt lat="43.2944" lon="-2.11767">
        <ele>104.8</ele>
        <time>2022-06-12T11:07:12Z</time>
      </trkpt>
      <trkpt lat="43.29431" lon="-2.11793">
        <ele>104.2</ele>
        <time>2022-06-12T11:07:16Z</time>
      </trkpt>
      <trkpt lat="43.29424" lon="-2.11823">
        <ele>95.5</ele>
        <time>2022-06-12T11:07:21Z</time>
      </trkpt>
      <trkpt lat="43.29413" lon="-2.11848">
        <ele>88.1</ele>
        <time>2022-06-12T11:07:25Z</time>
      </trkpt>
      <trkpt lat="43.29394" lon="-2.11856">
        <ele>83.1</ele>
        <time>2022-06-12T11:07:29Z</time>
      </trkpt>
      <trkpt lat="43.29378" lon="-2.11869">
        <ele>79.4</ele>
        <time>2022-06-12T11:07:32Z</time>
      </trkpt>
      <trkpt lat="43.29357" lon="-2.11884">
        <ele>75.7</ele>
        <time>2022-06-12T11:07:35Z</time>
      </trkpt>
      <trkpt lat="43.29346" lon="-2.11914">
        <ele>72.6</ele>
        <time>2022-06-12T11:07:38Z</time>
      </trkpt>
      <trkpt lat="43.29336" lon="-2.11937">
        <ele>70.6</ele>
        <time>2022-06-12T11:07:40Z</time>
      </trkpt>
      <trkpt lat="43.29319" lon="-2.11962">
        <ele>69.5</ele>
        <time>2022-06-12T11:07:43Z</time>
      </trkpt>
      <trkpt lat="43.29303" lon="-2.11975">
        <ele>70.5</ele>
        <time>2022-06-12T11:07:47Z</time>
      </trkpt>
      <trkpt lat="43.29292" lon="-2.11997">
        <ele>71.6</ele>
        <time>2022-06-12T11:07:56Z</time>
      </trkpt>
      <trkpt lat="43.2928" lon="-2.12018">
        <ele>71.5</ele>
        <time>2022-06-12T11:08:06Z</time>
      </trkpt>
      <trkpt lat="43.29269" lon="-2.12041">
        <ele>70.4</ele>
        <time>2022-06-12T11:08:12Z</time>
      </trkpt>
      <trkpt lat="43.29264" lon="-2.12073">
        <ele>69.7</ele>
        <time>2022-06-12T11:08:16Z</time>
      </trkpt>
      <trkpt lat="43.29255" lon="-2.12105">
        <ele>66.3</ele>
        <time>2022-06-12T11:08:19Z</time>
      </trkpt>
      <trkpt lat="43.29249" lon="-2.12128">
        <ele>64.2</ele>
        <time>2022-06-12T11:08:21Z</time>
      </trkpt>
      <trkpt lat="43.29243" lon="-2.1216">
        <ele>64</ele>
        <time>2022-06-12T11:08:24Z</time>
      </trkpt>
      <trkpt lat="43.29246" lon="-2.12186">
        <ele>64.7</ele>
        <time>2022-06-12T11:08:27Z</time>
      </trkpt>
      <trkpt lat="43.2926" lon="-2.12203">
        <ele>66.4</ele>
        <time>2022-06-12T11:08:32Z</time>
      </trkpt>
      <trkpt lat="43.29263" lon="-2.12229">
        <ele>64</ele>
        <time>2022-06-12T11:08:41Z</time>
      </trkpt>
      <trkpt lat="43.2925" lon="-2.12249">
        <ele>63.3</ele>
        <time>2022-06-12T11:08:52Z</time>
      </trkpt>
      <trkpt lat="43.2923" lon="-2.12256">
        <ele>63.5</ele>
        <time>2022-06-12T11:09:00Z</time>
      </trkpt>
      <trkpt lat="43.29209" lon="-2.12261">
        <ele>62.2</ele>
        <time>2022-06-12T11:09:05Z</time>
      </trkpt>
      <trkpt lat="43.2919" lon="-2.12272">
        <ele>61.9</ele>
        <time>2022-06-12T11:09:10Z</time>
      </trkpt>
      <trkpt lat="43.29172" lon="-2.12289">
        <ele>62.9</ele>
        <time>2022-06-12T11:09:15Z</time>
      </trkpt>
      <trkpt lat="43.29155" lon="-2.12305">
        <ele>62.8</ele>
        <time>2022-06-12T11:09:20Z</time>
      </trkpt>
      <trkpt lat="43.29142" lon="-2.12326">
        <ele>65</ele>
        <time>2022-06-12T11:09:26Z</time>
      </trkpt>
      <trkpt lat="43.29131" lon="-2.12346">
        <ele>66.7</ele>
        <time>2022-06-12T11:09:32Z</time>
      </trkpt>
      <trkpt lat="43.29124" lon="-2.1237">
        <ele>67.5</ele>
        <time>2022-06-12T11:09:38Z</time>
      </trkpt>
      <trkpt lat="43.2912" lon="-2.12397">
        <ele>68.1</ele>
        <time>2022-06-12T11:09:45Z</time>
      </trkpt>
      <trkpt lat="43.2911" lon="-2.12418">
        <ele>66.3</ele>
        <time>2022-06-12T11:09:51Z</time>
      </trkpt>
      <trkpt lat="43.29096" lon="-2.12438">
        <ele>66.3</ele>
        <time>2022-06-12T11:09:56Z</time>
      </trkpt>
      <trkpt lat="43.29083" lon="-2.12458">
        <ele>66.5</ele>
        <time>2022-06-12T11:10:02Z</time>
      </trkpt>
      <trkpt lat="43.29075" lon="-2.12481">
        <ele>66.9</ele>
        <time>2022-06-12T11:10:10Z</time>
      </trkpt>
      <trkpt lat="43.2906" lon="-2.12497">
        <ele>65.2</ele>
        <time>2022-06-12T11:10:58Z</time>
      </trkpt>
      <trkpt lat="43.29043" lon="-2.12512">
        <ele>62.3</ele>
        <time>2022-06-12T11:11:03Z</time>
      </trkpt>
      <trkpt lat="43.29034" lon="-2.12534">
        <ele>58.8</ele>
        <time>2022-06-12T11:11:08Z</time>
      </trkpt>
      <trkpt lat="43.29026" lon="-2.12559">
        <ele>55.8</ele>
        <time>2022-06-12T11:11:13Z</time>
      </trkpt>
      <trkpt lat="43.2902" lon="-2.12586">
        <ele>51.7</ele>
        <time>2022-06-12T11:11:18Z</time>
      </trkpt>
      <trkpt lat="43.29015" lon="-2.12609">
        <ele>48.4</ele>
        <time>2022-06-12T11:11:22Z</time>
      </trkpt>
      <trkpt lat="43.29007" lon="-2.12633">
        <ele>43.7</ele>
        <time>2022-06-12T11:11:26Z</time>
      </trkpt>
      <trkpt lat="43.28999" lon="-2.12657">
        <ele>40.1</ele>
        <time>2022-06-12T11:11:30Z</time>
      </trkpt>
      <trkpt lat="43.28983" lon="-2.1267">
        <ele>34.1</ele>
        <time>2022-06-12T11:11:36Z</time>
      </trkpt>
      <trkpt lat="43.28964" lon="-2.12657">
        <ele>28.1</ele>
        <time>2022-06-12T11:11:41Z</time>
      </trkpt>
      <trkpt lat="43.28968" lon="-2.12682">
        <ele>22.3</ele>
        <time>2022-06-12T11:11:55Z</time>
      </trkpt>
      <trkpt lat="43.28951" lon="-2.12668">
        <ele>19</ele>
        <time>2022-06-12T11:12:00Z</time>
      </trkpt>
      <trkpt lat="43.28937" lon="-2.12646">
        <ele>14.6</ele>
        <time>2022-06-12T11:12:06Z</time>
      </trkpt>
      <trkpt lat="43.28916" lon="-2.12637">
        <ele>12.4</ele>
        <time>2022-06-12T11:12:11Z</time>
      </trkpt>
      <trkpt lat="43.28899" lon="-2.1263">
        <ele>12.5</ele>
        <time>2022-06-12T11:12:16Z</time>
      </trkpt>
      <trkpt lat="43.2888" lon="-2.12623">
        <ele>12.8</ele>
        <time>2022-06-12T11:12:24Z</time>
      </trkpt>
      <trkpt lat="43.28862" lon="-2.12612">
        <ele>13.6</ele>
        <time>2022-06-12T11:12:35Z</time>
      </trkpt>
      <trkpt lat="43.28847" lon="-2.12627">
        <ele>14.5</ele>
        <time>2022-06-12T11:12:46Z</time>
      </trkpt>
      <trkpt lat="43.28838" lon="-2.12649">
        <ele>13.5</ele>
        <time>2022-06-12T11:12:54Z</time>
      </trkpt>
      <trkpt lat="43.28828" lon="-2.12671">
        <ele>12.1</ele>
        <time>2022-06-12T11:15:30Z</time>
      </trkpt>
      <trkpt lat="43.28815" lon="-2.12691">
        <ele>13</ele>
        <time>2022-06-12T11:15:49Z</time>
      </trkpt>
      <trkpt lat="43.28806" lon="-2.12712">
        <ele>13.2</ele>
        <time>2022-06-12T11:16:01Z</time>
      </trkpt>
      <trkpt lat="43.28797" lon="-2.12736">
        <ele>13.2</ele>
        <time>2022-06-12T11:16:10Z</time>
      </trkpt>
      <trkpt lat="43.28786" lon="-2.12759">
        <ele>13.1</ele>
        <time>2022-06-12T11:16:19Z</time>
      </trkpt>
      <trkpt lat="43.28779" lon="-2.12782">
        <ele>13.4</ele>
        <time>2022-06-12T11:16:26Z</time>
      </trkpt>
      <trkpt lat="43.28767" lon="-2.12804">
        <ele>13.5</ele>
        <time>2022-06-12T11:16:33Z</time>
      </trkpt>
      <trkpt lat="43.28751" lon="-2.12816">
        <ele>14.3</ele>
        <time>2022-06-12T11:16:41Z</time>
      </trkpt>
      <trkpt lat="43.28732" lon="-2.12812">
        <ele>13.5</ele>
        <time>2022-06-12T11:16:49Z</time>
      </trkpt>
      <trkpt lat="43.28716" lon="-2.12799">
        <ele>13.6</ele>
        <time>2022-06-12T11:16:57Z</time>
      </trkpt>
      <trkpt lat="43.28698" lon="-2.12793">
        <ele>13.3</ele>
        <time>2022-06-12T11:17:06Z</time>
      </trkpt>
      <trkpt lat="43.28681" lon="-2.12781">
        <ele>14.8</ele>
        <time>2022-06-12T11:17:14Z</time>
      </trkpt>
      <trkpt lat="43.28662" lon="-2.12773">
        <ele>14.2</ele>
        <time>2022-06-12T11:17:21Z</time>
      </trkpt>
      <trkpt lat="43.28643" lon="-2.12767">
        <ele>14.3</ele>
        <time>2022-06-12T11:17:27Z</time>
      </trkpt>
      <trkpt lat="43.28625" lon="-2.12764">
        <ele>14.1</ele>
        <time>2022-06-12T11:17:33Z</time>
      </trkpt>
      <trkpt lat="43.28606" lon="-2.12764">
        <ele>13.6</ele>
        <time>2022-06-12T11:17:39Z</time>
      </trkpt>
      <trkpt lat="43.28588" lon="-2.12762">
        <ele>12.5</ele>
        <time>2022-06-12T11:17:43Z</time>
      </trkpt>
      <trkpt lat="43.28568" lon="-2.12764">
        <ele>12</ele>
        <time>2022-06-12T11:17:48Z</time>
      </trkpt>
      <trkpt lat="43.28578" lon="-2.12741">
        <ele>12</ele>
        <time>2022-06-12T11:17:59Z</time>
      </trkpt>
      <trkpt lat="43.2857" lon="-2.12715">
        <ele>12.6</ele>
        <time>2022-06-12T11:18:04Z</time>
      </trkpt>
      <trkpt lat="43.28557" lon="-2.12695">
        <ele>12.1</ele>
        <time>2022-06-12T11:18:09Z</time>
      </trkpt>
      <trkpt lat="43.28537" lon="-2.12693">
        <ele>12.3</ele>
        <time>2022-06-12T11:18:14Z</time>
      </trkpt>
      <trkpt lat="43.28517" lon="-2.12692">
        <ele>12.1</ele>
        <time>2022-06-12T11:18:19Z</time>
      </trkpt>
      <trkpt lat="43.28496" lon="-2.12696">
        <ele>13.5</ele>
        <time>2022-06-12T11:18:25Z</time>
      </trkpt>
      <trkpt lat="43.28478" lon="-2.1269">
        <ele>11.9</ele>
        <time>2022-06-12T11:18:30Z</time>
      </trkpt>
      <trkpt lat="43.2846" lon="-2.12687">
        <ele>12.3</ele>
        <time>2022-06-12T11:18:35Z</time>
      </trkpt>
      <trkpt lat="43.28441" lon="-2.12693">
        <ele>12.6</ele>
        <time>2022-06-12T11:18:40Z</time>
      </trkpt>
      <trkpt lat="43.28423" lon="-2.12702">
        <ele>13.5</ele>
        <time>2022-06-12T11:18:45Z</time>
      </trkpt>
      <trkpt lat="43.28404" lon="-2.12709">
        <ele>13.5</ele>
        <time>2022-06-12T11:18:50Z</time>
      </trkpt>
      <trkpt lat="43.28386" lon="-2.12708">
        <ele>12.6</ele>
        <time>2022-06-12T11:18:55Z</time>
      </trkpt>
      <trkpt lat="43.28366" lon="-2.12705">
        <ele>13.1</ele>
        <time>2022-06-12T11:19:00Z</time>
      </trkpt>
      <trkpt lat="43.28347" lon="-2.12709">
        <ele>12.7</ele>
        <time>2022-06-12T11:19:05Z</time>
      </trkpt>
      <trkpt lat="43.28328" lon="-2.1272">
        <ele>12.4</ele>
        <time>2022-06-12T11:19:10Z</time>
      </trkpt>
      <trkpt lat="43.2831" lon="-2.12732">
        <ele>12.5</ele>
        <time>2022-06-12T11:19:15Z</time>
      </trkpt>
      <trkpt lat="43.28282" lon="-2.1276">
        <ele>5.3</ele>
      </trkpt>
      <trkpt lat="43.28299" lon="-2.12893">
        <ele>4.5</ele>
      </trkpt>
      <trkpt lat="43.28261" lon="-2.1293">
        <ele>4</ele>
        <time>2022-06-12T11:21:33Z</time>
      </trkpt>
      <trkpt lat="43.28244" lon="-2.12948">
        <ele>11</ele>
        <time>2022-06-12T11:21:40Z</time>
      </trkpt>
      <trkpt lat="43.28226" lon="-2.12965">
        <ele>10.4</ele>
        <time>2022-06-12T11:21:46Z</time>
      </trkpt>
      <trkpt lat="43.28208" lon="-2.12976">
        <ele>11</ele>
        <time>2022-06-12T11:21:50Z</time>
      </trkpt>
      <trkpt lat="43.28192" lon="-2.12988">
        <ele>11.3</ele>
        <time>2022-06-12T11:21:54Z</time>
      </trkpt>
      <trkpt lat="43.28175" lon="-2.13">
        <ele>11.5</ele>
        <time>2022-06-12T11:21:58Z</time>
      </trkpt>
      <trkpt lat="43.28158" lon="-2.13013">
        <ele>11.5</ele>
        <time>2022-06-12T11:22:02Z</time>
      </trkpt>
      <trkpt lat="43.2814" lon="-2.13026">
        <ele>11.1</ele>
        <time>2022-06-12T11:22:06Z</time>
      </trkpt>
      <trkpt lat="43.28123" lon="-2.13039">
        <ele>9.8</ele>
        <time>2022-06-12T11:22:10Z</time>
      </trkpt>
      <trkpt lat="43.28106" lon="-2.13051">
        <ele>9</ele>
        <time>2022-06-12T11:22:15Z</time>
      </trkpt>
      <trkpt lat="43.28088" lon="-2.13063">
        <ele>10.1</ele>
        <time>2022-06-12T11:22:21Z</time>
      </trkpt>
      <trkpt lat="43.28068" lon="-2.13076">
        <ele>9.7</ele>
        <time>2022-06-12T11:22:26Z</time>
      </trkpt>
      <trkpt lat="43.28048" lon="-2.13089">
        <ele>9.8</ele>
        <time>2022-06-12T11:22:32Z</time>
      </trkpt>
      <trkpt lat="43.28029" lon="-2.13105">
        <ele>10.1</ele>
        <time>2022-06-12T11:22:37Z</time>
      </trkpt>
      <trkpt lat="43.28013" lon="-2.13116">
        <ele>9.9</ele>
        <time>2022-06-12T11:22:41Z</time>
      </trkpt>
      <trkpt lat="43.27995" lon="-2.13132">
        <ele>10.7</ele>
        <time>2022-06-12T11:22:46Z</time>
      </trkpt>
      <trkpt lat="43.27977" lon="-2.13145">
        <ele>11.5</ele>
        <time>2022-06-12T11:22:51Z</time>
      </trkpt>
      <trkpt lat="43.27955" lon="-2.13156">
        <ele>11.9</ele>
        <time>2022-06-12T11:22:56Z</time>
      </trkpt>
      <trkpt lat="43.27934" lon="-2.13165">
        <ele>12.3</ele>
        <time>2022-06-12T11:23:01Z</time>
      </trkpt>
      <trkpt lat="43.27915" lon="-2.13172">
        <ele>12.9</ele>
        <time>2022-06-12T11:23:05Z</time>
      </trkpt>
      <trkpt lat="43.27897" lon="-2.13179">
        <ele>12.2</ele>
        <time>2022-06-12T11:23:09Z</time>
      </trkpt>
      <trkpt lat="43.27876" lon="-2.13186">
        <ele>12.4</ele>
        <time>2022-06-12T11:23:14Z</time>
      </trkpt>
      <trkpt lat="43.27854" lon="-2.13188">
        <ele>12.8</ele>
        <time>2022-06-12T11:23:19Z</time>
      </trkpt>
      <trkpt lat="43.27833" lon="-2.13187">
        <ele>12.9</ele>
        <time>2022-06-12T11:23:24Z</time>
      </trkpt>
      <trkpt lat="43.27811" lon="-2.13181">
        <ele>12.4</ele>
        <time>2022-06-12T11:23:29Z</time>
      </trkpt>
      <trkpt lat="43.27792" lon="-2.13171">
        <ele>11.9</ele>
        <time>2022-06-12T11:23:34Z</time>
      </trkpt>
      <trkpt lat="43.27774" lon="-2.13162">
        <ele>11.1</ele>
        <time>2022-06-12T11:23:39Z</time>
      </trkpt>
      <trkpt lat="43.27756" lon="-2.13151">
        <ele>11.9</ele>
        <time>2022-06-12T11:23:44Z</time>
      </trkpt>
      <trkpt lat="43.2774" lon="-2.13134">
        <ele>11.4</ele>
        <time>2022-06-12T11:23:49Z</time>
      </trkpt>
      <trkpt lat="43.27723" lon="-2.13117">
        <ele>10.9</ele>
        <time>2022-06-12T11:23:54Z</time>
      </trkpt>
      <trkpt lat="43.27706" lon="-2.13099">
        <ele>10.5</ele>
        <time>2022-06-12T11:23:59Z</time>
      </trkpt>
      <trkpt lat="43.27691" lon="-2.13078">
        <ele>9.9</ele>
        <time>2022-06-12T11:24:04Z</time>
      </trkpt>
      <trkpt lat="43.27677" lon="-2.13054">
        <ele>9.6</ele>
        <time>2022-06-12T11:24:09Z</time>
      </trkpt>
      <trkpt lat="43.27664" lon="-2.1303">
        <ele>9.8</ele>
        <time>2022-06-12T11:24:14Z</time>
      </trkpt>
      <trkpt lat="43.27653" lon="-2.13004">
        <ele>11.1</ele>
        <time>2022-06-12T11:24:19Z</time>
      </trkpt>
      <trkpt lat="43.27641" lon="-2.12978">
        <ele>12.8</ele>
        <time>2022-06-12T11:24:24Z</time>
      </trkpt>
      <trkpt lat="43.27631" lon="-2.12957">
        <ele>13.7</ele>
        <time>2022-06-12T11:24:28Z</time>
      </trkpt>
      <trkpt lat="43.27622" lon="-2.12932">
        <ele>13.2</ele>
        <time>2022-06-12T11:24:33Z</time>
      </trkpt>
      <trkpt lat="43.27613" lon="-2.1291">
        <ele>12.7</ele>
        <time>2022-06-12T11:24:41Z</time>
      </trkpt>
      <trkpt lat="43.27606" lon="-2.12887">
        <ele>12.6</ele>
        <time>2022-06-12T11:24:47Z</time>
      </trkpt>
      <trkpt lat="43.27587" lon="-2.12895">
        <ele>15.3</ele>
        <time>2022-06-12T11:24:56Z</time>
      </trkpt>
      <trkpt lat="43.27578" lon="-2.12874">
        <ele>14.7</ele>
        <time>2022-06-12T11:25:03Z</time>
      </trkpt>
      <trkpt lat="43.27572" lon="-2.12846">
        <ele>13.5</ele>
        <time>2022-06-12T11:25:10Z</time>
      </trkpt>
      <trkpt lat="43.27569" lon="-2.12817">
        <ele>12.7</ele>
        <time>2022-06-12T11:25:16Z</time>
      </trkpt>
      <trkpt lat="43.27564" lon="-2.12791">
        <ele>13.4</ele>
        <time>2022-06-12T11:25:22Z</time>
      </trkpt>
      <trkpt lat="43.27559" lon="-2.12764">
        <ele>12.2</ele>
        <time>2022-06-12T11:25:28Z</time>
      </trkpt>
      <trkpt lat="43.27564" lon="-2.1274">
        <ele>11.7</ele>
        <time>2022-06-12T11:25:33Z</time>
      </trkpt>
      <trkpt lat="43.27568" lon="-2.12714">
        <ele>11.7</ele>
        <time>2022-06-12T11:25:39Z</time>
      </trkpt>
      <trkpt lat="43.27573" lon="-2.12685">
        <ele>12.2</ele>
        <time>2022-06-12T11:25:45Z</time>
      </trkpt>
      <trkpt lat="43.27578" lon="-2.1266">
        <ele>11.9</ele>
        <time>2022-06-12T11:25:50Z</time>
      </trkpt>
      <trkpt lat="43.27582" lon="-2.12636">
        <ele>11.8</ele>
        <time>2022-06-12T11:25:55Z</time>
      </trkpt>
      <trkpt lat="43.27589" lon="-2.12611">
        <ele>12.3</ele>
        <time>2022-06-12T11:26:02Z</time>
      </trkpt>
      <trkpt lat="43.27607" lon="-2.12614">
        <ele>13.9</ele>
        <time>2022-06-12T11:26:11Z</time>
      </trkpt>
      <trkpt lat="43.2761" lon="-2.12589">
        <ele>14.9</ele>
        <time>2022-06-12T11:26:20Z</time>
      </trkpt>
      <trkpt lat="43.27591" lon="-2.12581">
        <ele>16.5</ele>
        <time>2022-06-12T11:26:29Z</time>
      </trkpt>
      <trkpt lat="43.27573" lon="-2.12575">
        <ele>17.8</ele>
        <time>2022-06-12T11:26:36Z</time>
      </trkpt>
      <trkpt lat="43.27554" lon="-2.12571">
        <ele>17.7</ele>
        <time>2022-06-12T11:26:42Z</time>
      </trkpt>
      <trkpt lat="43.27534" lon="-2.12568">
        <ele>16.9</ele>
        <time>2022-06-12T11:26:48Z</time>
      </trkpt>
      <trkpt lat="43.27516" lon="-2.12566">
        <ele>15.5</ele>
        <time>2022-06-12T11:26:53Z</time>
      </trkpt>
      <trkpt lat="43.27496" lon="-2.12563">
        <ele>14.9</ele>
        <time>2022-06-12T11:26:58Z</time>
      </trkpt>
      <trkpt lat="43.27475" lon="-2.1256">
        <ele>13.8</ele>
        <time>2022-06-12T11:27:03Z</time>
      </trkpt>
      <trkpt lat="43.27454" lon="-2.12559">
        <ele>13.2</ele>
        <time>2022-06-12T11:27:08Z</time>
      </trkpt>
      <trkpt lat="43.27438" lon="-2.12577">
        <ele>12.2</ele>
        <time>2022-06-12T11:27:13Z</time>
      </trkpt>
      <trkpt lat="43.27437" lon="-2.12604">
        <ele>14.1</ele>
        <time>2022-06-12T11:27:18Z</time>
      </trkpt>
      <trkpt lat="43.27439" lon="-2.12634">
        <ele>14.4</ele>
        <time>2022-06-12T11:27:23Z</time>
      </trkpt>
      <trkpt lat="43.27439" lon="-2.12664">
        <ele>14.5</ele>
        <time>2022-06-12T11:27:28Z</time>
      </trkpt>
      <trkpt lat="43.27441" lon="-2.12695">
        <ele>15</ele>
        <time>2022-06-12T11:27:33Z</time>
      </trkpt>
      <trkpt lat="43.27441" lon="-2.12722">
        <ele>15.8</ele>
        <time>2022-06-12T11:27:38Z</time>
      </trkpt>
      <trkpt lat="43.27443" lon="-2.12751">
        <ele>16.2</ele>
        <time>2022-06-12T11:27:43Z</time>
      </trkpt>
      <trkpt lat="43.27443" lon="-2.12777">
        <ele>16.2</ele>
        <time>2022-06-12T11:27:47Z</time>
      </trkpt>
      <trkpt lat="43.27442" lon="-2.12806">
        <ele>15.6</ele>
        <time>2022-06-12T11:27:51Z</time>
      </trkpt>
      <trkpt lat="43.27441" lon="-2.12837">
        <ele>14.7</ele>
        <time>2022-06-12T11:27:55Z</time>
      </trkpt>
      <trkpt lat="43.27442" lon="-2.12869">
        <ele>12.7</ele>
        <time>2022-06-12T11:27:59Z</time>
      </trkpt>
      <trkpt lat="43.27442" lon="-2.129">
        <ele>12.4</ele>
        <time>2022-06-12T11:28:03Z</time>
      </trkpt>
      <trkpt lat="43.27443" lon="-2.1293">
        <ele>12.4</ele>
        <time>2022-06-12T11:28:07Z</time>
      </trkpt>
      <trkpt lat="43.27443" lon="-2.1296">
        <ele>13.8</ele>
        <time>2022-06-12T11:28:11Z</time>
      </trkpt>
      <trkpt lat="43.27445" lon="-2.12991">
        <ele>13.2</ele>
        <time>2022-06-12T11:28:15Z</time>
      </trkpt>
      <trkpt lat="43.27449" lon="-2.13021">
        <ele>12.8</ele>
        <time>2022-06-12T11:28:19Z</time>
      </trkpt>
      <trkpt lat="43.27455" lon="-2.13046">
        <ele>12.9</ele>
        <time>2022-06-12T11:28:23Z</time>
      </trkpt>
      <trkpt lat="43.27463" lon="-2.1307">
        <ele>14.3</ele>
        <time>2022-06-12T11:28:28Z</time>
      </trkpt>
      <trkpt lat="43.27472" lon="-2.13094">
        <ele>15.3</ele>
        <time>2022-06-12T11:28:34Z</time>
      </trkpt>
      <trkpt lat="43.27477" lon="-2.1312">
        <ele>16.5</ele>
        <time>2022-06-12T11:28:41Z</time>
      </trkpt>
      <trkpt lat="43.27483" lon="-2.13145">
        <ele>18.1</ele>
        <time>2022-06-12T11:28:48Z</time>
      </trkpt>
      <trkpt lat="43.27487" lon="-2.13171">
        <ele>17.9</ele>
        <time>2022-06-12T11:28:56Z</time>
      </trkpt>
      <trkpt lat="43.27489" lon="-2.1321">
        <ele>10.4</ele>
        <time>2022-06-12T11:29:05Z</time>
      </trkpt>
      <trkpt lat="43.27521" lon="-2.13267">
        <ele>8.7</ele>
      </trkpt>
      <trkpt lat="43.2756" lon="-2.13253">
        <ele>5</ele>
      </trkpt>
      <trkpt lat="43.27615" lon="-2.1328">
        <ele>5.4</ele>
      </trkpt>
      <trkpt lat="43.27674" lon="-2.1333">
        <ele>5.6</ele>
      </trkpt>
      <trkpt lat="43.27753" lon="-2.13364">
        <ele>4</ele>
      </trkpt>
      <trkpt lat="43.27791" lon="-2.13375">
        <ele>5.7</ele>
      </trkpt>
      <trkpt lat="43.27831" lon="-2.13364">
        <ele>3.8</ele>
      </trkpt>
      <trkpt lat="43.27971" lon="-2.13341">
        <ele>2.6</ele>
      </trkpt>
      <trkpt lat="43.28039" lon="-2.13319">
        <ele>5</ele>
      </trkpt>
      <trkpt lat="43.28094" lon="-2.13321">
        <ele>7.28</ele>
      </trkpt>
      <trkpt lat="43.28228" lon="-2.1327">
        <ele>9</ele>
      </trkpt>
      <trkpt lat="43.28288" lon="-2.13195">
        <ele>2.2</ele>
      </trkpt>
      <trkpt lat="43.28374" lon="-2.13163">
        <ele>5.8</ele>
      </trkpt>
      <trkpt lat="43.28408" lon="-2.13197">
        <ele>4</ele>
      </trkpt>
      <trkpt lat="43.28497" lon="-2.13196">
        <ele>4</ele>
      </trkpt>
      <trkpt lat="43.28501" lon="-2.13212">
        <ele>4</ele>
        <time>2022-06-12T11:36:36Z</time>
      </trkpt>
      <trkpt lat="43.28491" lon="-2.13295">
        <ele>11</ele>
        <time>2022-06-12T11:36:48Z</time>
      </trkpt>
      <trkpt lat="43.2849" lon="-2.13321">
        <ele>12.3</ele>
        <time>2022-06-12T11:36:59Z</time>
      </trkpt>
      <trkpt lat="43.28487" lon="-2.13345">
        <ele>15</ele>
        <time>2022-06-12T11:37:08Z</time>
      </trkpt>
      <trkpt lat="43.28484" lon="-2.13372">
        <ele>15.9</ele>
        <time>2022-06-12T11:37:16Z</time>
      </trkpt>
      <trkpt lat="43.28481" lon="-2.13399">
        <ele>15.3</ele>
        <time>2022-06-12T11:37:24Z</time>
      </trkpt>
      <trkpt lat="43.28478" lon="-2.13426">
        <ele>17</ele>
        <time>2022-06-12T11:37:32Z</time>
      </trkpt>
      <trkpt lat="43.28478" lon="-2.13454">
        <ele>17.9</ele>
        <time>2022-06-12T11:37:40Z</time>
      </trkpt>
      <trkpt lat="43.2848" lon="-2.13478">
        <ele>17.8</ele>
        <time>2022-06-12T11:37:46Z</time>
      </trkpt>
      <trkpt lat="43.28485" lon="-2.13504">
        <ele>17.4</ele>
        <time>2022-06-12T11:37:50Z</time>
      </trkpt>
      <trkpt lat="43.2848" lon="-2.13531">
        <ele>16.5</ele>
        <time>2022-06-12T11:37:54Z</time>
      </trkpt>
      <trkpt lat="43.28469" lon="-2.13555">
        <ele>16.4</ele>
        <time>2022-06-12T11:37:59Z</time>
      </trkpt>
      <trkpt lat="43.28465" lon="-2.13581">
        <ele>17.3</ele>
        <time>2022-06-12T11:38:08Z</time>
      </trkpt>
      <trkpt lat="43.28464" lon="-2.13606">
        <ele>20.5</ele>
        <time>2022-06-12T11:38:19Z</time>
      </trkpt>
      <trkpt lat="43.28466" lon="-2.13632">
        <ele>23.8</ele>
        <time>2022-06-12T11:38:30Z</time>
      </trkpt>
      <trkpt lat="43.28466" lon="-2.13656">
        <ele>25</ele>
        <time>2022-06-12T11:38:42Z</time>
      </trkpt>
      <trkpt lat="43.28463" lon="-2.13682">
        <ele>28.5</ele>
        <time>2022-06-12T11:38:57Z</time>
      </trkpt>
      <trkpt lat="43.28465" lon="-2.13707">
        <ele>30.9</ele>
        <time>2022-06-12T11:39:10Z</time>
      </trkpt>
      <trkpt lat="43.28467" lon="-2.13732">
        <ele>33.8</ele>
        <time>2022-06-12T11:39:24Z</time>
      </trkpt>
      <trkpt lat="43.28466" lon="-2.13757">
        <ele>36.8</ele>
        <time>2022-06-12T11:39:38Z</time>
      </trkpt>
      <trkpt lat="43.28472" lon="-2.1378">
        <ele>39.3</ele>
        <time>2022-06-12T11:39:52Z</time>
      </trkpt>
      <trkpt lat="43.28481" lon="-2.13803">
        <ele>39.1</ele>
        <time>2022-06-12T11:40:04Z</time>
      </trkpt>
      <trkpt lat="43.28487" lon="-2.13826">
        <ele>41.7</ele>
        <time>2022-06-12T11:40:15Z</time>
      </trkpt>
      <trkpt lat="43.28494" lon="-2.1385">
        <ele>43.4</ele>
        <time>2022-06-12T11:40:25Z</time>
      </trkpt>
      <trkpt lat="43.28501" lon="-2.13874">
        <ele>44.3</ele>
        <time>2022-06-12T11:40:35Z</time>
      </trkpt>
      <trkpt lat="43.28504" lon="-2.13899">
        <ele>45.3</ele>
        <time>2022-06-12T11:40:46Z</time>
      </trkpt>
      <trkpt lat="43.28507" lon="-2.13924">
        <ele>48.3</ele>
        <time>2022-06-12T11:40:57Z</time>
      </trkpt>
      <trkpt lat="43.28508" lon="-2.1395">
        <ele>51.7</ele>
        <time>2022-06-12T11:41:09Z</time>
      </trkpt>
      <trkpt lat="43.28509" lon="-2.13975">
        <ele>54.3</ele>
        <time>2022-06-12T11:41:19Z</time>
      </trkpt>
      <trkpt lat="43.28513" lon="-2.13999">
        <ele>56.9</ele>
        <time>2022-06-12T11:41:29Z</time>
      </trkpt>
      <trkpt lat="43.28519" lon="-2.14026">
        <ele>56.2</ele>
        <time>2022-06-12T11:41:38Z</time>
      </trkpt>
      <trkpt lat="43.28528" lon="-2.14051">
        <ele>54.6</ele>
        <time>2022-06-12T11:41:43Z</time>
      </trkpt>
      <trkpt lat="43.28538" lon="-2.14077">
        <ele>54.2</ele>
        <time>2022-06-12T11:41:48Z</time>
      </trkpt>
      <trkpt lat="43.28548" lon="-2.14099">
        <ele>54.1</ele>
        <time>2022-06-12T11:41:54Z</time>
      </trkpt>
      <trkpt lat="43.28559" lon="-2.14122">
        <ele>53.9</ele>
        <time>2022-06-12T11:42:00Z</time>
      </trkpt>
      <trkpt lat="43.28572" lon="-2.14143">
        <ele>53.4</ele>
        <time>2022-06-12T11:42:07Z</time>
      </trkpt>
      <trkpt lat="43.28579" lon="-2.14167">
        <ele>55.8</ele>
        <time>2022-06-12T11:42:15Z</time>
      </trkpt>
      <trkpt lat="43.28582" lon="-2.14192">
        <ele>58</ele>
        <time>2022-06-12T11:42:25Z</time>
      </trkpt>
      <trkpt lat="43.28591" lon="-2.14215">
        <ele>61.5</ele>
        <time>2022-06-12T11:42:36Z</time>
      </trkpt>
      <trkpt lat="43.28603" lon="-2.14234">
        <ele>64</ele>
        <time>2022-06-12T11:42:48Z</time>
      </trkpt>
      <trkpt lat="43.28615" lon="-2.14255">
        <ele>64.8</ele>
        <time>2022-06-12T11:43:00Z</time>
      </trkpt>
      <trkpt lat="43.28627" lon="-2.14274">
        <ele>65.7</ele>
        <time>2022-06-12T11:43:11Z</time>
      </trkpt>
      <trkpt lat="43.28642" lon="-2.1429">
        <ele>67.3</ele>
        <time>2022-06-12T11:43:22Z</time>
      </trkpt>
      <trkpt lat="43.28657" lon="-2.14306">
        <ele>68.1</ele>
        <time>2022-06-12T11:43:32Z</time>
      </trkpt>
      <trkpt lat="43.28672" lon="-2.14321">
        <ele>69.3</ele>
        <time>2022-06-12T11:43:41Z</time>
      </trkpt>
      <trkpt lat="43.28688" lon="-2.14336">
        <ele>69.2</ele>
        <time>2022-06-12T11:43:50Z</time>
      </trkpt>
      <trkpt lat="43.28704" lon="-2.14348">
        <ele>70.6</ele>
        <time>2022-06-12T11:43:58Z</time>
      </trkpt>
      <trkpt lat="43.28717" lon="-2.14367">
        <ele>71.9</ele>
        <time>2022-06-12T11:44:07Z</time>
      </trkpt>
      <trkpt lat="43.28724" lon="-2.14391">
        <ele>72.8</ele>
        <time>2022-06-12T11:44:16Z</time>
      </trkpt>
      <trkpt lat="43.28724" lon="-2.14419">
        <ele>74.5</ele>
        <time>2022-06-12T11:44:25Z</time>
      </trkpt>
      <trkpt lat="43.2872" lon="-2.14443">
        <ele>76</ele>
        <time>2022-06-12T11:44:33Z</time>
      </trkpt>
      <trkpt lat="43.28729" lon="-2.14465">
        <ele>77.5</ele>
        <time>2022-06-12T11:44:42Z</time>
      </trkpt>
      <trkpt lat="43.2874" lon="-2.14486">
        <ele>80.1</ele>
        <time>2022-06-12T11:44:51Z</time>
      </trkpt>
      <trkpt lat="43.28752" lon="-2.14505">
        <ele>81.7</ele>
        <time>2022-06-12T11:45:00Z</time>
      </trkpt>
      <trkpt lat="43.28771" lon="-2.14512">
        <ele>84.6</ele>
        <time>2022-06-12T11:45:11Z</time>
      </trkpt>
      <trkpt lat="43.28789" lon="-2.14517">
        <ele>86.8</ele>
        <time>2022-06-12T11:45:23Z</time>
      </trkpt>
      <trkpt lat="43.28803" lon="-2.14536">
        <ele>88.6</ele>
        <time>2022-06-12T11:45:34Z</time>
      </trkpt>
      <trkpt lat="43.28808" lon="-2.1456">
        <ele>91</ele>
        <time>2022-06-12T11:45:49Z</time>
      </trkpt>
      <trkpt lat="43.28766" lon="-2.14611">
        <ele>104.1</ele>
        <time>2022-06-12T11:46:30Z</time>
      </trkpt>
      <trkpt lat="43.28757" lon="-2.14635">
        <ele>104.9</ele>
        <time>2022-06-12T11:46:44Z</time>
      </trkpt>
      <trkpt lat="43.28745" lon="-2.14658">
        <ele>99.3</ele>
      </trkpt>
      <trkpt lat="43.28803" lon="-2.14686">
        <ele>97.8</ele>
      </trkpt>
      <trkpt lat="43.28875" lon="-2.14682">
        <ele>102</ele>
      </trkpt>
      <trkpt lat="43.28917" lon="-2.14706">
        <ele>105.1</ele>
      </trkpt>
      <trkpt lat="43.28964" lon="-2.14763">
        <ele>111.2</ele>
      </trkpt>
      <trkpt lat="43.29059" lon="-2.14819">
        <ele>114</ele>
      </trkpt>
      <trkpt lat="43.2909" lon="-2.1481">
        <ele>114</ele>
      </trkpt>
      <trkpt lat="43.2912" lon="-2.14772">
        <ele>109.5</ele>
      </trkpt>
      <trkpt lat="43.29148" lon="-2.14791">
        <ele>104.3</ele>
      </trkpt>
      <trkpt lat="43.29162" lon="-2.14807">
        <ele>102.8</ele>
      </trkpt>
      <trkpt lat="43.29176" lon="-2.14851">
        <ele>99.1</ele>
      </trkpt>
      <trkpt lat="43.29195" lon="-2.14876">
        <ele>95.2</ele>
      </trkpt>
      <trkpt lat="43.29214" lon="-2.14943">
        <ele>88.3</ele>
      </trkpt>
      <trkpt lat="43.29226" lon="-2.14997">
        <ele>85.3</ele>
      </trkpt>
      <trkpt lat="43.29211" lon="-2.15011">
        <ele>92.9</ele>
        <time>2022-06-12T12:10:13Z</time>
      </trkpt>
      <trkpt lat="43.29193" lon="-2.15018">
        <ele>93.9</ele>
        <time>2022-06-12T12:10:26Z</time>
      </trkpt>
      <trkpt lat="43.29174" lon="-2.15017">
        <ele>94.4</ele>
        <time>2022-06-12T12:10:39Z</time>
      </trkpt>
      <trkpt lat="43.29155" lon="-2.15012">
        <ele>94.9</ele>
        <time>2022-06-12T12:10:51Z</time>
      </trkpt>
      <trkpt lat="43.29137" lon="-2.15011">
        <ele>94.4</ele>
        <time>2022-06-12T12:11:23Z</time>
      </trkpt>
      <trkpt lat="43.29118" lon="-2.15008">
        <ele>93.6</ele>
        <time>2022-06-12T12:12:03Z</time>
      </trkpt>
      <trkpt lat="43.29098" lon="-2.15004">
        <ele>92</ele>
        <time>2022-06-12T12:12:11Z</time>
      </trkpt>
      <trkpt lat="43.29076" lon="-2.15007">
        <ele>90.3</ele>
        <time>2022-06-12T12:12:16Z</time>
      </trkpt>
      <trkpt lat="43.29055" lon="-2.15009">
        <ele>88.7</ele>
        <time>2022-06-12T12:12:20Z</time>
      </trkpt>
      <trkpt lat="43.29033" lon="-2.15012">
        <ele>85.5</ele>
        <time>2022-06-12T12:12:24Z</time>
      </trkpt>
      <trkpt lat="43.29013" lon="-2.1502">
        <ele>80.9</ele>
        <time>2022-06-12T12:12:28Z</time>
      </trkpt>
      <trkpt lat="43.28992" lon="-2.15022">
        <ele>76.3</ele>
        <time>2022-06-12T12:12:32Z</time>
      </trkpt>
      <trkpt lat="43.28974" lon="-2.15029">
        <ele>73.7</ele>
        <time>2022-06-12T12:12:35Z</time>
      </trkpt>
      <trkpt lat="43.28955" lon="-2.1503">
        <ele>70.5</ele>
        <time>2022-06-12T12:12:38Z</time>
      </trkpt>
      <trkpt lat="43.28932" lon="-2.15032">
        <ele>67.6</ele>
        <time>2022-06-12T12:12:41Z</time>
      </trkpt>
      <trkpt lat="43.2891" lon="-2.15029">
        <ele>65.1</ele>
        <time>2022-06-12T12:12:44Z</time>
      </trkpt>
      <trkpt lat="43.28885" lon="-2.15024">
        <ele>63.8</ele>
        <time>2022-06-12T12:12:47Z</time>
      </trkpt>
      <trkpt lat="43.28865" lon="-2.15026">
        <ele>62.9</ele>
        <time>2022-06-12T12:12:51Z</time>
      </trkpt>
      <trkpt lat="43.2887" lon="-2.15052">
        <ele>62.8</ele>
        <time>2022-06-12T12:13:01Z</time>
      </trkpt>
      <trkpt lat="43.28875" lon="-2.15077">
        <ele>64.7</ele>
        <time>2022-06-12T12:13:12Z</time>
      </trkpt>
      <trkpt lat="43.2887" lon="-2.15101">
        <ele>66.6</ele>
        <time>2022-06-12T12:13:23Z</time>
      </trkpt>
      <trkpt lat="43.28856" lon="-2.15119">
        <ele>67.8</ele>
        <time>2022-06-12T12:15:54Z</time>
      </trkpt>
      <trkpt lat="43.28836" lon="-2.15127">
        <ele>65.4</ele>
        <time>2022-06-12T12:15:59Z</time>
      </trkpt>
      <trkpt lat="43.28814" lon="-2.15138">
        <ele>62.3</ele>
        <time>2022-06-12T12:16:03Z</time>
      </trkpt>
      <trkpt lat="43.288" lon="-2.15156">
        <ele>60.8</ele>
        <time>2022-06-12T12:16:06Z</time>
      </trkpt>
      <trkpt lat="43.28792" lon="-2.15184">
        <ele>58.3</ele>
        <time>2022-06-12T12:16:10Z</time>
      </trkpt>
      <trkpt lat="43.28777" lon="-2.15204">
        <ele>52.6</ele>
        <time>2022-06-12T12:16:14Z</time>
      </trkpt>
      <trkpt lat="43.28762" lon="-2.15221">
        <ele>47.3</ele>
        <time>2022-06-12T12:16:17Z</time>
      </trkpt>
      <trkpt lat="43.28749" lon="-2.15241">
        <ele>41.8</ele>
        <time>2022-06-12T12:16:20Z</time>
      </trkpt>
      <trkpt lat="43.2873" lon="-2.15257">
        <ele>35.5</ele>
        <time>2022-06-12T12:16:24Z</time>
      </trkpt>
      <trkpt lat="43.28721" lon="-2.15282">
        <ele>30.8</ele>
        <time>2022-06-12T12:16:28Z</time>
      </trkpt>
      <trkpt lat="43.28708" lon="-2.15301">
        <ele>29.5</ele>
        <time>2022-06-12T12:16:31Z</time>
      </trkpt>
      <trkpt lat="43.28696" lon="-2.15325">
        <ele>27.2</ele>
        <time>2022-06-12T12:16:34Z</time>
      </trkpt>
      <trkpt lat="43.28684" lon="-2.15346">
        <ele>27.7</ele>
        <time>2022-06-12T12:16:37Z</time>
      </trkpt>
      <trkpt lat="43.28672" lon="-2.15367">
        <ele>27.1</ele>
        <time>2022-06-12T12:16:41Z</time>
      </trkpt>
      <trkpt lat="43.28659" lon="-2.15387">
        <ele>25.5</ele>
        <time>2022-06-12T12:16:46Z</time>
      </trkpt>
      <trkpt lat="43.2865" lon="-2.1541">
        <ele>24.4</ele>
        <time>2022-06-12T12:16:50Z</time>
      </trkpt>
      <trkpt lat="43.28634" lon="-2.15424">
        <ele>22.7</ele>
        <time>2022-06-12T12:16:59Z</time>
      </trkpt>
      <trkpt lat="43.28618" lon="-2.15438">
        <ele>22.5</ele>
        <time>2022-06-12T12:17:08Z</time>
      </trkpt>
      <trkpt lat="43.286" lon="-2.1545">
        <ele>22.4</ele>
        <time>2022-06-12T12:17:17Z</time>
      </trkpt>
      <trkpt lat="43.28584" lon="-2.15472">
        <ele>20.5</ele>
        <time>2022-06-12T12:17:23Z</time>
      </trkpt>
      <trkpt lat="43.28573" lon="-2.15492">
        <ele>19.6</ele>
        <time>2022-06-12T12:17:27Z</time>
      </trkpt>
      <trkpt lat="43.28554" lon="-2.15496">
        <ele>18.4</ele>
        <time>2022-06-12T12:17:34Z</time>
      </trkpt>
      <trkpt lat="43.28535" lon="-2.15492">
        <ele>19</ele>
        <time>2022-06-12T12:17:43Z</time>
      </trkpt>
      <trkpt lat="43.28517" lon="-2.15495">
        <ele>18.5</ele>
        <time>2022-06-12T12:17:50Z</time>
      </trkpt>
      <trkpt lat="43.285" lon="-2.15504">
        <ele>18.4</ele>
        <time>2022-06-12T12:17:56Z</time>
      </trkpt>
      <trkpt lat="43.28481" lon="-2.15502">
        <ele>17.8</ele>
        <time>2022-06-12T12:18:02Z</time>
      </trkpt>
      <trkpt lat="43.28465" lon="-2.1549">
        <ele>19.6</ele>
        <time>2022-06-12T12:18:07Z</time>
      </trkpt>
      <trkpt lat="43.28446" lon="-2.15485">
        <ele>21.9</ele>
        <time>2022-06-12T12:18:15Z</time>
      </trkpt>
      <trkpt lat="43.28447" lon="-2.15516">
        <ele>18.1</ele>
        <time>2022-06-12T12:18:21Z</time>
      </trkpt>
      <trkpt lat="43.28444" lon="-2.15549">
        <ele>15.3</ele>
        <time>2022-06-12T12:18:25Z</time>
      </trkpt>
      <trkpt lat="43.2844" lon="-2.15576">
        <ele>13.8</ele>
        <time>2022-06-12T12:18:28Z</time>
      </trkpt>
      <trkpt lat="43.28433" lon="-2.15603">
        <ele>13.9</ele>
        <time>2022-06-12T12:18:31Z</time>
      </trkpt>
      <trkpt lat="43.28427" lon="-2.15632">
        <ele>13.3</ele>
        <time>2022-06-12T12:18:34Z</time>
      </trkpt>
      <trkpt lat="43.28431" lon="-2.15657">
        <ele>12.5</ele>
        <time>2022-06-12T12:18:37Z</time>
      </trkpt>
      <trkpt lat="43.28434" lon="-2.15688">
        <ele>11.2</ele>
        <time>2022-06-12T12:18:41Z</time>
      </trkpt>
      <trkpt lat="43.28435" lon="-2.15715">
        <ele>8.9</ele>
        <time>2022-06-12T12:18:46Z</time>
      </trkpt>
      <trkpt lat="43.28445" lon="-2.15737">
        <ele>10.2</ele>
        <time>2022-06-12T12:18:52Z</time>
      </trkpt>
      <trkpt lat="43.28455" lon="-2.15762">
        <ele>8.6</ele>
        <time>2022-06-12T12:19:00Z</time>
      </trkpt>
      <trkpt lat="43.28472" lon="-2.15772">
        <ele>7.2</ele>
        <time>2022-06-12T12:19:08Z</time>
      </trkpt>
      <trkpt lat="43.28487" lon="-2.15759">
        <ele>6.7</ele>
        <time>2022-06-12T12:19:20Z</time>
      </trkpt>
      <trkpt lat="43.28473" lon="-2.15778">
        <ele>8</ele>
        <time>2022-06-12T12:27:50Z</time>
      </trkpt>
      <trkpt lat="43.2847" lon="-2.15804">
        <ele>9</ele>
        <time>2022-06-12T12:28:01Z</time>
      </trkpt>
      <trkpt lat="43.28479" lon="-2.15826">
        <ele>8.5</ele>
        <time>2022-06-12T12:28:07Z</time>
      </trkpt>
      <trkpt lat="43.28488" lon="-2.15847">
        <ele>9.1</ele>
        <time>2022-06-12T12:28:13Z</time>
      </trkpt>
      <trkpt lat="43.28499" lon="-2.15871">
        <ele>9.6</ele>
        <time>2022-06-12T12:28:19Z</time>
      </trkpt>
      <trkpt lat="43.28509" lon="-2.15895">
        <ele>10.2</ele>
        <time>2022-06-12T12:28:25Z</time>
      </trkpt>
      <trkpt lat="43.28519" lon="-2.15918">
        <ele>10.1</ele>
        <time>2022-06-12T12:28:31Z</time>
      </trkpt>
      <trkpt lat="43.28529" lon="-2.1594">
        <ele>9.7</ele>
        <time>2022-06-12T12:28:37Z</time>
      </trkpt>
      <trkpt lat="43.28538" lon="-2.15963">
        <ele>10.6</ele>
        <time>2022-06-12T12:28:43Z</time>
      </trkpt>
      <trkpt lat="43.28547" lon="-2.15988">
        <ele>11.6</ele>
        <time>2022-06-12T12:28:51Z</time>
      </trkpt>
      <trkpt lat="43.28553" lon="-2.16015">
        <ele>12.2</ele>
        <time>2022-06-12T12:28:57Z</time>
      </trkpt>
      <trkpt lat="43.28559" lon="-2.16043">
        <ele>11.8</ele>
        <time>2022-06-12T12:29:03Z</time>
      </trkpt>
      <trkpt lat="43.28565" lon="-2.16067">
        <ele>12.8</ele>
        <time>2022-06-12T12:29:09Z</time>
      </trkpt>
      <trkpt lat="43.28583" lon="-2.16081">
        <ele>14.6</ele>
        <time>2022-06-12T12:29:15Z</time>
      </trkpt>
      <trkpt lat="43.28602" lon="-2.16082">
        <ele>16.5</ele>
        <time>2022-06-12T12:29:20Z</time>
      </trkpt>
      <trkpt lat="43.28623" lon="-2.16083">
        <ele>18.5</ele>
        <time>2022-06-12T12:29:26Z</time>
      </trkpt>
      <trkpt lat="43.28642" lon="-2.16093">
        <ele>21.3</ele>
        <time>2022-06-12T12:29:34Z</time>
      </trkpt>
      <trkpt lat="43.2866" lon="-2.16094">
        <ele>21.4</ele>
        <time>2022-06-12T12:29:41Z</time>
      </trkpt>
      <trkpt lat="43.2868" lon="-2.16095">
        <ele>17.5</ele>
        <time>2022-06-12T12:29:48Z</time>
      </trkpt>
      <trkpt lat="43.28698" lon="-2.16093">
        <ele>16.6</ele>
        <time>2022-06-12T12:29:54Z</time>
      </trkpt>
      <trkpt lat="43.28718" lon="-2.16095">
        <ele>17.9</ele>
        <time>2022-06-12T12:30:00Z</time>
      </trkpt>
      <trkpt lat="43.28739" lon="-2.16095">
        <ele>17</ele>
        <time>2022-06-12T12:30:06Z</time>
      </trkpt>
      <trkpt lat="43.28759" lon="-2.16094">
        <ele>17.4</ele>
        <time>2022-06-12T12:30:12Z</time>
      </trkpt>
      <trkpt lat="43.2878" lon="-2.16095">
        <ele>17.2</ele>
        <time>2022-06-12T12:30:18Z</time>
      </trkpt>
      <trkpt lat="43.28802" lon="-2.16093">
        <ele>14.5</ele>
        <time>2022-06-12T12:30:23Z</time>
      </trkpt>
      <trkpt lat="43.28821" lon="-2.16088">
        <ele>12.4</ele>
        <time>2022-06-12T12:30:27Z</time>
      </trkpt>
      <trkpt lat="43.28841" lon="-2.16091">
        <ele>10</ele>
        <time>2022-06-12T12:30:32Z</time>
      </trkpt>
      <trkpt lat="43.28801" lon="-2.16342">
        <ele>15.4</ele>
        <time>2022-06-12T12:31:54Z</time>
      </trkpt>
      <trkpt lat="43.28797" lon="-2.16367">
        <ele>15.6</ele>
        <time>2022-06-12T12:32:00Z</time>
      </trkpt>
      <trkpt lat="43.28794" lon="-2.16396">
        <ele>13.7</ele>
        <time>2022-06-12T12:32:06Z</time>
      </trkpt>
      <trkpt lat="43.28793" lon="-2.16421">
        <ele>15.1</ele>
        <time>2022-06-12T12:32:12Z</time>
      </trkpt>
      <trkpt lat="43.2881" lon="-2.16432">
        <ele>14.9</ele>
        <time>2022-06-12T12:32:18Z</time>
      </trkpt>
      <trkpt lat="43.28829" lon="-2.1644">
        <ele>14.1</ele>
        <time>2022-06-12T12:32:23Z</time>
      </trkpt>
      <trkpt lat="43.28831" lon="-2.16467">
        <ele>12.9</ele>
        <time>2022-06-12T12:32:29Z</time>
      </trkpt>
      <trkpt lat="43.28823" lon="-2.16493">
        <ele>12.7</ele>
        <time>2022-06-12T12:32:34Z</time>
      </trkpt>
      <trkpt lat="43.2882" lon="-2.16519">
        <ele>11.7</ele>
        <time>2022-06-12T12:32:39Z</time>
      </trkpt>
      <trkpt lat="43.28815" lon="-2.16544">
        <ele>10.8</ele>
        <time>2022-06-12T12:32:44Z</time>
      </trkpt>
      <trkpt lat="43.28801" lon="-2.16566">
        <ele>10.8</ele>
        <time>2022-06-12T12:32:49Z</time>
      </trkpt>
      <trkpt lat="43.28795" lon="-2.16591">
        <ele>10.8</ele>
        <time>2022-06-12T12:32:53Z</time>
      </trkpt>
      <trkpt lat="43.28792" lon="-2.16615">
        <ele>10.1</ele>
        <time>2022-06-12T12:32:57Z</time>
      </trkpt>
      <trkpt lat="43.28787" lon="-2.16645">
        <ele>10.5</ele>
        <time>2022-06-12T12:33:02Z</time>
      </trkpt>
      <trkpt lat="43.28785" lon="-2.16674">
        <ele>10.3</ele>
        <time>2022-06-12T12:33:07Z</time>
      </trkpt>
      <trkpt lat="43.28786" lon="-2.16703">
        <ele>11.4</ele>
        <time>2022-06-12T12:33:12Z</time>
      </trkpt>
      <trkpt lat="43.28782" lon="-2.16731">
        <ele>10.8</ele>
        <time>2022-06-12T12:33:17Z</time>
      </trkpt>
      <trkpt lat="43.28781" lon="-2.16759">
        <ele>11.8</ele>
        <time>2022-06-12T12:33:22Z</time>
      </trkpt>
      <trkpt lat="43.28778" lon="-2.16787">
        <ele>12.6</ele>
        <time>2022-06-12T12:33:27Z</time>
      </trkpt>
      <trkpt lat="43.28772" lon="-2.16813">
        <ele>11.7</ele>
        <time>2022-06-12T12:33:32Z</time>
      </trkpt>
      <trkpt lat="43.28767" lon="-2.16841">
        <ele>11</ele>
        <time>2022-06-12T12:33:37Z</time>
      </trkpt>
      <trkpt lat="43.28764" lon="-2.16867">
        <ele>10.5</ele>
        <time>2022-06-12T12:33:42Z</time>
      </trkpt>
      <trkpt lat="43.28759" lon="-2.16894">
        <ele>10.3</ele>
        <time>2022-06-12T12:33:47Z</time>
      </trkpt>
      <trkpt lat="43.28752" lon="-2.16921">
        <ele>10.4</ele>
        <time>2022-06-12T12:33:52Z</time>
      </trkpt>
      <trkpt lat="43.28748" lon="-2.1695">
        <ele>9.6</ele>
        <time>2022-06-12T12:33:57Z</time>
      </trkpt>
      <trkpt lat="43.28744" lon="-2.16979">
        <ele>8.8</ele>
        <time>2022-06-12T12:34:02Z</time>
      </trkpt>
      <trkpt lat="43.28738" lon="-2.17006">
        <ele>8.2</ele>
        <time>2022-06-12T12:34:07Z</time>
      </trkpt>
      <trkpt lat="43.28734" lon="-2.1703">
        <ele>8.3</ele>
        <time>2022-06-12T12:34:11Z</time>
      </trkpt>
      <trkpt lat="43.28731" lon="-2.17055">
        <ele>8.9</ele>
        <time>2022-06-12T12:34:15Z</time>
      </trkpt>
      <trkpt lat="43.28726" lon="-2.17084">
        <ele>9.5</ele>
        <time>2022-06-12T12:34:20Z</time>
      </trkpt>
      <trkpt lat="43.28726" lon="-2.1711">
        <ele>10.2</ele>
        <time>2022-06-12T12:34:24Z</time>
      </trkpt>
      <trkpt lat="43.28726" lon="-2.17136">
        <ele>11</ele>
        <time>2022-06-12T12:34:28Z</time>
      </trkpt>
      <trkpt lat="43.28728" lon="-2.17166">
        <ele>10.1</ele>
        <time>2022-06-12T12:34:33Z</time>
      </trkpt>
      <trkpt lat="43.28726" lon="-2.17196">
        <ele>10.1</ele>
        <time>2022-06-12T12:34:38Z</time>
      </trkpt>
      <trkpt lat="43.28725" lon="-2.17225">
        <ele>10.1</ele>
        <time>2022-06-12T12:34:43Z</time>
      </trkpt>
      <trkpt lat="43.28717" lon="-2.17253">
        <ele>10.4</ele>
        <time>2022-06-12T12:34:48Z</time>
      </trkpt>
      <trkpt lat="43.28727" lon="-2.17275">
        <ele>11.2</ele>
        <time>2022-06-12T12:34:53Z</time>
      </trkpt>
      <trkpt lat="43.28728" lon="-2.17304">
        <ele>12</ele>
        <time>2022-06-12T12:34:58Z</time>
      </trkpt>
      <trkpt lat="43.28729" lon="-2.17333">
        <ele>11.5</ele>
        <time>2022-06-12T12:35:03Z</time>
      </trkpt>
      <trkpt lat="43.28728" lon="-2.17358">
        <ele>13.2</ele>
        <time>2022-06-12T12:35:09Z</time>
      </trkpt>
      <trkpt lat="43.28723" lon="-2.17383">
        <ele>13.8</ele>
        <time>2022-06-12T12:35:14Z</time>
      </trkpt>
      <trkpt lat="43.28725" lon="-2.17408">
        <ele>13.6</ele>
        <time>2022-06-12T12:35:18Z</time>
      </trkpt>
      <trkpt lat="43.28727" lon="-2.17436">
        <ele>12.3</ele>
        <time>2022-06-12T12:35:23Z</time>
      </trkpt>
      <trkpt lat="43.28732" lon="-2.17466">
        <ele>11.3</ele>
        <time>2022-06-12T12:35:28Z</time>
      </trkpt>
      <trkpt lat="43.28732" lon="-2.17494">
        <ele>10</ele>
        <time>2022-06-12T12:35:33Z</time>
      </trkpt>
      <trkpt lat="43.28731" lon="-2.17521">
        <ele>10.3</ele>
        <time>2022-06-12T12:35:38Z</time>
      </trkpt>
      <trkpt lat="43.28729" lon="-2.17548">
        <ele>9.1</ele>
        <time>2022-06-12T12:35:43Z</time>
      </trkpt>
      <trkpt lat="43.28729" lon="-2.17577">
        <ele>7.5</ele>
        <time>2022-06-12T12:35:49Z</time>
      </trkpt>
      <trkpt lat="43.28731" lon="-2.17606">
        <ele>8.2</ele>
        <time>2022-06-12T12:35:55Z</time>
      </trkpt>
      <trkpt lat="43.28738" lon="-2.17635">
        <ele>7.4</ele>
        <time>2022-06-12T12:36:00Z</time>
      </trkpt>
      <trkpt lat="43.28736" lon="-2.17662">
        <ele>8.9</ele>
        <time>2022-06-12T12:36:05Z</time>
      </trkpt>
      <trkpt lat="43.28733" lon="-2.17687">
        <ele>9.4</ele>
        <time>2022-06-12T12:36:09Z</time>
      </trkpt>
      <trkpt lat="43.2873" lon="-2.17716">
        <ele>10.2</ele>
        <time>2022-06-12T12:36:14Z</time>
      </trkpt>
      <trkpt lat="43.28731" lon="-2.17743">
        <ele>11.1</ele>
        <time>2022-06-12T12:36:19Z</time>
      </trkpt>
      <trkpt lat="43.28729" lon="-2.17768">
        <ele>10.1</ele>
        <time>2022-06-12T12:36:24Z</time>
      </trkpt>
      <trkpt lat="43.28734" lon="-2.17793">
        <ele>13.3</ele>
        <time>2022-06-12T12:36:31Z</time>
      </trkpt>
      <trkpt lat="43.28748" lon="-2.17814">
        <ele>8.9</ele>
        <time>2022-06-12T12:37:12Z</time>
      </trkpt>
      <trkpt lat="43.28764" lon="-2.17833">
        <ele>8.2</ele>
        <time>2022-06-12T12:37:16Z</time>
      </trkpt>
      <trkpt lat="43.28782" lon="-2.17853">
        <ele>7.3</ele>
        <time>2022-06-12T12:37:20Z</time>
      </trkpt>
      <trkpt lat="43.28802" lon="-2.17868">
        <ele>7.9</ele>
        <time>2022-06-12T12:37:24Z</time>
      </trkpt>
      <trkpt lat="43.28823" lon="-2.17877">
        <ele>6.8</ele>
        <time>2022-06-12T12:37:28Z</time>
      </trkpt>
      <trkpt lat="43.28844" lon="-2.17879">
        <ele>6.6</ele>
        <time>2022-06-12T12:37:32Z</time>
      </trkpt>
      <trkpt lat="43.28864" lon="-2.17882">
        <ele>7.4</ele>
        <time>2022-06-12T12:37:36Z</time>
      </trkpt>
      <trkpt lat="43.28885" lon="-2.17885">
        <ele>7.6</ele>
        <time>2022-06-12T12:37:40Z</time>
      </trkpt>
      <trkpt lat="43.28906" lon="-2.17888">
        <ele>8</ele>
        <time>2022-06-12T12:37:44Z</time>
      </trkpt>
      <trkpt lat="43.28926" lon="-2.17891">
        <ele>8.2</ele>
        <time>2022-06-12T12:37:48Z</time>
      </trkpt>
      <trkpt lat="43.28945" lon="-2.17892">
        <ele>9.4</ele>
        <time>2022-06-12T12:37:52Z</time>
      </trkpt>
      <trkpt lat="43.28967" lon="-2.17894">
        <ele>10.6</ele>
        <time>2022-06-12T12:37:57Z</time>
      </trkpt>
      <trkpt lat="43.28986" lon="-2.17895">
        <ele>10.4</ele>
        <time>2022-06-12T12:38:01Z</time>
      </trkpt>
      <trkpt lat="43.29004" lon="-2.17899">
        <ele>11.3</ele>
        <time>2022-06-12T12:38:05Z</time>
      </trkpt>
      <trkpt lat="43.29026" lon="-2.17902">
        <ele>10.9</ele>
        <time>2022-06-12T12:38:10Z</time>
      </trkpt>
      <trkpt lat="43.29047" lon="-2.179">
        <ele>11.3</ele>
        <time>2022-06-12T12:38:15Z</time>
      </trkpt>
      <trkpt lat="43.29067" lon="-2.17896">
        <ele>11</ele>
        <time>2022-06-12T12:38:20Z</time>
      </trkpt>
      <trkpt lat="43.29086" lon="-2.17893">
        <ele>12.8</ele>
        <time>2022-06-12T12:38:25Z</time>
      </trkpt>
      <trkpt lat="43.29105" lon="-2.17892">
        <ele>13.2</ele>
        <time>2022-06-12T12:38:30Z</time>
      </trkpt>
      <trkpt lat="43.29122" lon="-2.17902">
        <ele>12.9</ele>
        <time>2022-06-12T12:38:35Z</time>
      </trkpt>
      <trkpt lat="43.29132" lon="-2.17923">
        <ele>13.2</ele>
        <time>2022-06-12T12:38:40Z</time>
      </trkpt>
      <trkpt lat="43.29143" lon="-2.17948">
        <ele>14.1</ele>
        <time>2022-06-12T12:38:45Z</time>
      </trkpt>
      <trkpt lat="43.29153" lon="-2.17974">
        <ele>15.1</ele>
        <time>2022-06-12T12:38:50Z</time>
      </trkpt>
      <trkpt lat="43.29162" lon="-2.18001">
        <ele>16</ele>
        <time>2022-06-12T12:38:55Z</time>
      </trkpt>
      <trkpt lat="43.29167" lon="-2.18026">
        <ele>16</ele>
        <time>2022-06-12T12:38:59Z</time>
      </trkpt>
      <trkpt lat="43.29171" lon="-2.18052">
        <ele>16</ele>
        <time>2022-06-12T12:39:03Z</time>
      </trkpt>
      <trkpt lat="43.29178" lon="-2.1808">
        <ele>16.1</ele>
        <time>2022-06-12T12:39:07Z</time>
      </trkpt>
      <trkpt lat="43.29189" lon="-2.18103">
        <ele>16.1</ele>
        <time>2022-06-12T12:39:11Z</time>
      </trkpt>
      <trkpt lat="43.29207" lon="-2.18121">
        <ele>14.7</ele>
        <time>2022-06-12T12:39:15Z</time>
      </trkpt>
      <trkpt lat="43.29227" lon="-2.18135">
        <ele>12.6</ele>
        <time>2022-06-12T12:39:19Z</time>
      </trkpt>
      <trkpt lat="43.29245" lon="-2.1815">
        <ele>13.3</ele>
        <time>2022-06-12T12:39:23Z</time>
      </trkpt>
      <trkpt lat="43.29264" lon="-2.18165">
        <ele>13.2</ele>
        <time>2022-06-12T12:39:27Z</time>
      </trkpt>
      <trkpt lat="43.29282" lon="-2.18183">
        <ele>14.3</ele>
        <time>2022-06-12T12:39:31Z</time>
      </trkpt>
      <trkpt lat="43.29297" lon="-2.18207">
        <ele>14.7</ele>
        <time>2022-06-12T12:39:35Z</time>
      </trkpt>
      <trkpt lat="43.29312" lon="-2.18231">
        <ele>14.7</ele>
        <time>2022-06-12T12:39:39Z</time>
      </trkpt>
      <trkpt lat="43.29326" lon="-2.18252">
        <ele>15.4</ele>
        <time>2022-06-12T12:39:43Z</time>
      </trkpt>
      <trkpt lat="43.29342" lon="-2.18276">
        <ele>15.6</ele>
        <time>2022-06-12T12:39:47Z</time>
      </trkpt>
      <trkpt lat="43.29359" lon="-2.183">
        <ele>14.7</ele>
        <time>2022-06-12T12:39:51Z</time>
      </trkpt>
      <trkpt lat="43.29375" lon="-2.18324">
        <ele>14.8</ele>
        <time>2022-06-12T12:39:55Z</time>
      </trkpt>
      <trkpt lat="43.29387" lon="-2.18343">
        <ele>14.8</ele>
        <time>2022-06-12T12:39:58Z</time>
      </trkpt>
      <trkpt lat="43.29402" lon="-2.18367">
        <ele>15.2</ele>
        <time>2022-06-12T12:40:02Z</time>
      </trkpt>
      <trkpt lat="43.29413" lon="-2.18393">
        <ele>14.8</ele>
        <time>2022-06-12T12:40:06Z</time>
      </trkpt>
      <trkpt lat="43.29409" lon="-2.18424">
        <ele>13.9</ele>
        <time>2022-06-12T12:40:10Z</time>
      </trkpt>
      <trkpt lat="43.29392" lon="-2.18446">
        <ele>13.7</ele>
        <time>2022-06-12T12:40:14Z</time>
      </trkpt>
      <trkpt lat="43.29377" lon="-2.18462">
        <ele>13.8</ele>
        <time>2022-06-12T12:40:17Z</time>
      </trkpt>
      <trkpt lat="43.29362" lon="-2.18478">
        <ele>13.1</ele>
        <time>2022-06-12T12:40:20Z</time>
      </trkpt>
      <trkpt lat="43.29347" lon="-2.18493">
        <ele>12.7</ele>
        <time>2022-06-12T12:40:23Z</time>
      </trkpt>
      <trkpt lat="43.29332" lon="-2.18509">
        <ele>11</ele>
        <time>2022-06-12T12:40:26Z</time>
      </trkpt>
      <trkpt lat="43.29317" lon="-2.18525">
        <ele>11.1</ele>
        <time>2022-06-12T12:40:29Z</time>
      </trkpt>
      <trkpt lat="43.29302" lon="-2.18544">
        <ele>11.4</ele>
        <time>2022-06-12T12:40:32Z</time>
      </trkpt>
      <trkpt lat="43.29288" lon="-2.18562">
        <ele>11.5</ele>
        <time>2022-06-12T12:40:35Z</time>
      </trkpt>
      <trkpt lat="43.29276" lon="-2.18585">
        <ele>10.3</ele>
        <time>2022-06-12T12:40:38Z</time>
      </trkpt>
      <trkpt lat="43.29269" lon="-2.1861">
        <ele>9.2</ele>
        <time>2022-06-12T12:40:41Z</time>
      </trkpt>
      <trkpt lat="43.29261" lon="-2.18635">
        <ele>8.6</ele>
        <time>2022-06-12T12:40:44Z</time>
      </trkpt>
      <trkpt lat="43.29254" lon="-2.18661">
        <ele>10</ele>
        <time>2022-06-12T12:40:47Z</time>
      </trkpt>
      <trkpt lat="43.29247" lon="-2.18687">
        <ele>10.3</ele>
        <time>2022-06-12T12:40:50Z</time>
      </trkpt>
      <trkpt lat="43.29246" lon="-2.18712">
        <ele>10.2</ele>
        <time>2022-06-12T12:40:53Z</time>
      </trkpt>
      <trkpt lat="43.2925" lon="-2.18738">
        <ele>11.3</ele>
        <time>2022-06-12T12:40:56Z</time>
      </trkpt>
      <trkpt lat="43.29252" lon="-2.18763">
        <ele>11.5</ele>
        <time>2022-06-12T12:40:59Z</time>
      </trkpt>
      <trkpt lat="43.29254" lon="-2.18795">
        <ele>10.8</ele>
        <time>2022-06-12T12:41:03Z</time>
      </trkpt>
      <trkpt lat="43.29246" lon="-2.18824">
        <ele>12</ele>
        <time>2022-06-12T12:41:07Z</time>
      </trkpt>
      <trkpt lat="43.29236" lon="-2.18853">
        <ele>10.8</ele>
        <time>2022-06-12T12:41:11Z</time>
      </trkpt>
      <trkpt lat="43.29225" lon="-2.18872">
        <ele>9.4</ele>
        <time>2022-06-12T12:41:14Z</time>
      </trkpt>
      <trkpt lat="43.29212" lon="-2.18894">
        <ele>6.9</ele>
        <time>2022-06-12T12:41:17Z</time>
      </trkpt>
      <trkpt lat="43.29203" lon="-2.18917">
        <ele>8.2</ele>
        <time>2022-06-12T12:41:20Z</time>
      </trkpt>
      <trkpt lat="43.29201" lon="-2.18945">
        <ele>8.2</ele>
        <time>2022-06-12T12:41:23Z</time>
      </trkpt>
      <trkpt lat="43.29203" lon="-2.18972">
        <ele>10.3</ele>
        <time>2022-06-12T12:41:26Z</time>
      </trkpt>
      <trkpt lat="43.2921" lon="-2.18998">
        <ele>12.2</ele>
        <time>2022-06-12T12:41:29Z</time>
      </trkpt>
      <trkpt lat="43.29223" lon="-2.1902">
        <ele>11.2</ele>
        <time>2022-06-12T12:41:32Z</time>
      </trkpt>
      <trkpt lat="43.29242" lon="-2.19036">
        <ele>11.1</ele>
        <time>2022-06-12T12:41:35Z</time>
      </trkpt>
      <trkpt lat="43.29261" lon="-2.19051">
        <ele>11.2</ele>
        <time>2022-06-12T12:41:38Z</time>
      </trkpt>
      <trkpt lat="43.29277" lon="-2.19065">
        <ele>11.3</ele>
        <time>2022-06-12T12:41:41Z</time>
      </trkpt>
      <trkpt lat="43.29295" lon="-2.1908">
        <ele>10.1</ele>
        <time>2022-06-12T12:41:44Z</time>
      </trkpt>
      <trkpt lat="43.29312" lon="-2.19093">
        <ele>10.1</ele>
        <time>2022-06-12T12:41:47Z</time>
      </trkpt>
      <trkpt lat="43.29329" lon="-2.19105">
        <ele>9.9</ele>
        <time>2022-06-12T12:41:50Z</time>
      </trkpt>
      <trkpt lat="43.29346" lon="-2.19116">
        <ele>9.6</ele>
        <time>2022-06-12T12:41:53Z</time>
      </trkpt>
      <trkpt lat="43.29365" lon="-2.19121">
        <ele>8.7</ele>
        <time>2022-06-12T12:41:56Z</time>
      </trkpt>
      <trkpt lat="43.29384" lon="-2.19122">
        <ele>8.9</ele>
        <time>2022-06-12T12:41:59Z</time>
      </trkpt>
      <trkpt lat="43.29405" lon="-2.19125">
        <ele>8.4</ele>
        <time>2022-06-12T12:42:02Z</time>
      </trkpt>
      <trkpt lat="43.29426" lon="-2.19127">
        <ele>8.7</ele>
        <time>2022-06-12T12:42:05Z</time>
      </trkpt>
      <trkpt lat="43.29446" lon="-2.19129">
        <ele>8.6</ele>
        <time>2022-06-12T12:42:08Z</time>
      </trkpt>
      <trkpt lat="43.29467" lon="-2.19131">
        <ele>8.1</ele>
        <time>2022-06-12T12:42:11Z</time>
      </trkpt>
      <trkpt lat="43.29488" lon="-2.19141">
        <ele>7.7</ele>
        <time>2022-06-12T12:42:15Z</time>
      </trkpt>
      <trkpt lat="43.29504" lon="-2.19156">
        <ele>8.4</ele>
        <time>2022-06-12T12:42:18Z</time>
      </trkpt>
      <trkpt lat="43.29518" lon="-2.19174">
        <ele>7.8</ele>
        <time>2022-06-12T12:42:21Z</time>
      </trkpt>
      <trkpt lat="43.29532" lon="-2.19195">
        <ele>4.3</ele>
        <time>2022-06-12T12:42:24Z</time>
      </trkpt>
      <trkpt lat="43.29546" lon="-2.19211">
        <ele>4.8</ele>
        <time>2022-06-12T12:42:27Z</time>
      </trkpt>
      <trkpt lat="43.29566" lon="-2.19219">
        <ele>3.5</ele>
        <time>2022-06-12T12:42:30Z</time>
      </trkpt>
      <trkpt lat="43.2959" lon="-2.19228">
        <ele>2.5</ele>
        <time>2022-06-12T12:42:34Z</time>
      </trkpt>
      <trkpt lat="43.29608" lon="-2.19234">
        <ele>3.7</ele>
        <time>2022-06-12T12:42:37Z</time>
      </trkpt>
      <trkpt lat="43.29626" lon="-2.19241">
        <ele>5.3</ele>
        <time>2022-06-12T12:42:40Z</time>
      </trkpt>
      <trkpt lat="43.29645" lon="-2.19247">
        <ele>4.7</ele>
        <time>2022-06-12T12:42:43Z</time>
      </trkpt>
      <trkpt lat="43.29668" lon="-2.19244">
        <ele>5.9</ele>
        <time>2022-06-12T12:42:47Z</time>
      </trkpt>
      <trkpt lat="43.29692" lon="-2.19241">
        <ele>5.2</ele>
        <time>2022-06-12T12:42:51Z</time>
      </trkpt>
      <trkpt lat="43.29714" lon="-2.19237">
        <ele>3.7</ele>
        <time>2022-06-12T12:42:55Z</time>
      </trkpt>
      <trkpt lat="43.29735" lon="-2.19235">
        <ele>3.4</ele>
        <time>2022-06-12T12:42:59Z</time>
      </trkpt>
      <trkpt lat="43.29756" lon="-2.19231">
        <ele>5.5</ele>
        <time>2022-06-12T12:43:03Z</time>
      </trkpt>
      <trkpt lat="43.29776" lon="-2.19225">
        <ele>6.5</ele>
        <time>2022-06-12T12:43:07Z</time>
      </trkpt>
      <trkpt lat="43.29798" lon="-2.19222">
        <ele>6.5</ele>
        <time>2022-06-12T12:43:11Z</time>
      </trkpt>
      <trkpt lat="43.29816" lon="-2.19221">
        <ele>7.5</ele>
        <time>2022-06-12T12:43:15Z</time>
      </trkpt>
      <trkpt lat="43.29836" lon="-2.19229">
        <ele>11.9</ele>
        <time>2022-06-12T12:43:21Z</time>
      </trkpt>
      <trkpt lat="43.29852" lon="-2.19244">
        <ele>13.2</ele>
        <time>2022-06-12T12:43:26Z</time>
      </trkpt>
      <trkpt lat="43.29865" lon="-2.19268">
        <ele>12.7</ele>
        <time>2022-06-12T12:43:31Z</time>
      </trkpt>
      <trkpt lat="43.29874" lon="-2.19291">
        <ele>13.2</ele>
        <time>2022-06-12T12:43:35Z</time>
      </trkpt>
      <trkpt lat="43.29883" lon="-2.19314">
        <ele>13.7</ele>
        <time>2022-06-12T12:43:39Z</time>
      </trkpt>
      <trkpt lat="43.29893" lon="-2.19336">
        <ele>15</ele>
        <time>2022-06-12T12:43:43Z</time>
      </trkpt>
      <trkpt lat="43.29902" lon="-2.19359">
        <ele>15.1</ele>
        <time>2022-06-12T12:43:47Z</time>
      </trkpt>
      <trkpt lat="43.29912" lon="-2.19381">
        <ele>17.1</ele>
        <time>2022-06-12T12:43:51Z</time>
      </trkpt>
      <trkpt lat="43.29918" lon="-2.19406">
        <ele>16.5</ele>
        <time>2022-06-12T12:43:55Z</time>
      </trkpt>
      <trkpt lat="43.2992" lon="-2.19433">
        <ele>15.2</ele>
        <time>2022-06-12T12:44:00Z</time>
      </trkpt>
      <trkpt lat="43.2991" lon="-2.1946">
        <ele>16</ele>
        <time>2022-06-12T12:44:05Z</time>
      </trkpt>
      <trkpt lat="43.29902" lon="-2.19483">
        <ele>15.6</ele>
        <time>2022-06-12T12:44:09Z</time>
      </trkpt>
      <trkpt lat="43.29895" lon="-2.19507">
        <ele>16.6</ele>
        <time>2022-06-12T12:44:13Z</time>
      </trkpt>
      <trkpt lat="43.29887" lon="-2.19534">
        <ele>16.6</ele>
        <time>2022-06-12T12:44:17Z</time>
      </trkpt>
      <trkpt lat="43.29881" lon="-2.19558">
        <ele>18.1</ele>
        <time>2022-06-12T12:44:21Z</time>
      </trkpt>
      <trkpt lat="43.29876" lon="-2.19582">
        <ele>18.9</ele>
        <time>2022-06-12T12:44:25Z</time>
      </trkpt>
      <trkpt lat="43.2987" lon="-2.19606">
        <ele>18.4</ele>
        <time>2022-06-12T12:44:29Z</time>
      </trkpt>
      <trkpt lat="43.29866" lon="-2.19632">
        <ele>17.9</ele>
        <time>2022-06-12T12:44:33Z</time>
      </trkpt>
      <trkpt lat="43.29862" lon="-2.19662">
        <ele>17.8</ele>
        <time>2022-06-12T12:44:38Z</time>
      </trkpt>
      <trkpt lat="43.29861" lon="-2.1969">
        <ele>18.3</ele>
        <time>2022-06-12T12:44:42Z</time>
      </trkpt>
      <trkpt lat="43.29861" lon="-2.19718">
        <ele>19.7</ele>
        <time>2022-06-12T12:44:46Z</time>
      </trkpt>
      <trkpt lat="43.29863" lon="-2.19744">
        <ele>20.5</ele>
        <time>2022-06-12T12:44:50Z</time>
      </trkpt>
      <trkpt lat="43.29866" lon="-2.19769">
        <ele>22.2</ele>
        <time>2022-06-12T12:44:54Z</time>
      </trkpt>
      <trkpt lat="43.29869" lon="-2.19795">
        <ele>23.9</ele>
        <time>2022-06-12T12:44:58Z</time>
      </trkpt>
      <trkpt lat="43.29876" lon="-2.19819">
        <ele>23.2</ele>
        <time>2022-06-12T12:45:02Z</time>
      </trkpt>
      <trkpt lat="43.29881" lon="-2.19844">
        <ele>22.9</ele>
        <time>2022-06-12T12:45:06Z</time>
      </trkpt>
      <trkpt lat="43.29887" lon="-2.19869">
        <ele>24.4</ele>
        <time>2022-06-12T12:45:10Z</time>
      </trkpt>
      <trkpt lat="43.29894" lon="-2.19893">
        <ele>26.5</ele>
        <time>2022-06-12T12:45:14Z</time>
      </trkpt>
      <trkpt lat="43.29903" lon="-2.19922">
        <ele>27.1</ele>
        <time>2022-06-12T12:45:19Z</time>
      </trkpt>
      <trkpt lat="43.29911" lon="-2.19946">
        <ele>27.6</ele>
        <time>2022-06-12T12:45:24Z</time>
      </trkpt>
      <trkpt lat="43.29919" lon="-2.1997">
        <ele>27.8</ele>
        <time>2022-06-12T12:45:29Z</time>
      </trkpt>
      <trkpt lat="43.2993" lon="-2.19993">
        <ele>29.1</ele>
        <time>2022-06-12T12:45:34Z</time>
      </trkpt>
      <trkpt lat="43.29944" lon="-2.20012">
        <ele>28.9</ele>
        <time>2022-06-12T12:45:39Z</time>
      </trkpt>
      <trkpt lat="43.29957" lon="-2.2003">
        <ele>27</ele>
        <time>2022-06-12T12:45:44Z</time>
      </trkpt>
      <trkpt lat="43.29971" lon="-2.20047">
        <ele>27.4</ele>
        <time>2022-06-12T12:45:49Z</time>
      </trkpt>
      <trkpt lat="43.29985" lon="-2.20066">
        <ele>29.1</ele>
        <time>2022-06-12T12:45:55Z</time>
      </trkpt>
      <trkpt lat="43.29999" lon="-2.20084">
        <ele>29.4</ele>
        <time>2022-06-12T12:46:00Z</time>
      </trkpt>
      <trkpt lat="43.30012" lon="-2.20101">
        <ele>30.4</ele>
        <time>2022-06-12T12:46:05Z</time>
      </trkpt>
      <trkpt lat="43.30026" lon="-2.2012">
        <ele>30.1</ele>
        <time>2022-06-12T12:46:11Z</time>
      </trkpt>
      <trkpt lat="43.30039" lon="-2.20139">
        <ele>29.7</ele>
        <time>2022-06-12T12:46:19Z</time>
      </trkpt>
      <trkpt lat="43.30109" lon="-2.20271">
        <ele>19.1</ele>
      </trkpt>
      <trkpt lat="43.30218" lon="-2.20334">
        <ele>11.2</ele>
      </trkpt>
      <trkpt lat="43.30246" lon="-2.20324">
        <ele>9.3</ele>
      </trkpt>
      <trkpt lat="43.3027" lon="-2.20298">
        <ele>7.2</ele>
      </trkpt>
      <trkpt lat="43.30357" lon="-2.20298">
        <ele>6.9</ele>
      </trkpt>
      <trkpt lat="43.30406" lon="-2.20281">
        <ele>6</ele>
      </trkpt>
      <trkpt lat="43.3044" lon="-2.20237">
        <ele>4</ele>
      </trkpt>
      <trkpt lat="43.30468" lon="-2.2026">
        <ele>3.3</ele>
      </trkpt>
      <trkpt lat="43.30496" lon="-2.20286">
        <ele>5.6</ele>
      </trkpt>
      <trkpt lat="43.30486" lon="-2.20303">
        <ele>9.9</ele>
      </trkpt>
      <trkpt lat="43.3044" lon="-2.20264">
        <ele>6.6</ele>
      </trkpt>
      <trkpt lat="43.30437" lon="-2.20274">
        <ele>8</ele>
      </trkpt>
      <trkpt lat="43.30474" lon="-2.20311">
        <ele>12.5</ele>
      </trkpt>
      <trkpt lat="43.30453" lon="-2.20335">
        <ele>15.9</ele>
      </trkpt>
      <trkpt lat="43.30431" lon="-2.20346">
        <ele>18.4</ele>
      </trkpt>
      <trkpt lat="43.30425" lon="-2.20363">
        <ele>19</ele>
      </trkpt>
      <trkpt lat="43.30409" lon="-2.20377">
        <ele>20.8</ele>
      </trkpt>
      <trkpt lat="43.30358" lon="-2.20406">
        <ele>23.7</ele>
      </trkpt>
      <trkpt lat="43.30314" lon="-2.20426">
        <ele>26.6</ele>
      </trkpt>
      <trkpt lat="43.30293" lon="-2.20444">
        <ele>28.5</ele>
      </trkpt>
      <trkpt lat="43.303" lon="-2.20478">
        <ele>33.7</ele>
        <time>2022-06-12T12:49:41Z</time>
      </trkpt>
      <trkpt lat="43.30297" lon="-2.20504">
        <ele>32.9</ele>
        <time>2022-06-12T12:49:48Z</time>
      </trkpt>
      <trkpt lat="43.30294" lon="-2.20531">
        <ele>33.8</ele>
        <time>2022-06-12T12:49:56Z</time>
      </trkpt>
      <trkpt lat="43.30289" lon="-2.20557">
        <ele>30.8</ele>
        <time>2022-06-12T12:50:05Z</time>
      </trkpt>
      <trkpt lat="43.30283" lon="-2.2058">
        <ele>30.7</ele>
        <time>2022-06-12T12:50:14Z</time>
      </trkpt>
      <trkpt lat="43.3028" lon="-2.20606">
        <ele>37</ele>
        <time>2022-06-12T12:50:25Z</time>
      </trkpt>
      <trkpt lat="43.30277" lon="-2.20632">
        <ele>40.3</ele>
        <time>2022-06-12T12:50:34Z</time>
      </trkpt>
      <trkpt lat="43.30279" lon="-2.2066">
        <ele>36.5</ele>
        <time>2022-06-12T12:50:43Z</time>
      </trkpt>
      <trkpt lat="43.30277" lon="-2.20713">
        <ele>39.3</ele>
      </trkpt>
      <trkpt lat="43.30261" lon="-2.20749">
        <ele>43.9</ele>
      </trkpt>
      <trkpt lat="43.30225" lon="-2.20801">
        <ele>57</ele>
        <time>2022-06-12T12:51:58Z</time>
      </trkpt>
      <trkpt lat="43.30211" lon="-2.20816">
        <ele>60.3</ele>
        <time>2022-06-12T12:52:07Z</time>
      </trkpt>
      <trkpt lat="43.30193" lon="-2.20826">
        <ele>59.2</ele>
        <time>2022-06-12T12:52:18Z</time>
      </trkpt>
      <trkpt lat="43.30174" lon="-2.2083">
        <ele>60.3</ele>
        <time>2022-06-12T12:52:28Z</time>
      </trkpt>
      <trkpt lat="43.30155" lon="-2.20833">
        <ele>62.3</ele>
        <time>2022-06-12T12:52:38Z</time>
      </trkpt>
      <trkpt lat="43.30137" lon="-2.20833">
        <ele>63.7</ele>
        <time>2022-06-12T12:52:49Z</time>
      </trkpt>
      <trkpt lat="43.30124" lon="-2.20815">
        <ele>65.6</ele>
        <time>2022-06-12T12:53:00Z</time>
      </trkpt>
      <trkpt lat="43.30134" lon="-2.20794">
        <ele>65.8</ele>
        <time>2022-06-12T12:53:11Z</time>
      </trkpt>
      <trkpt lat="43.30141" lon="-2.2077">
        <ele>63.6</ele>
        <time>2022-06-12T12:53:21Z</time>
      </trkpt>
      <trkpt lat="43.30138" lon="-2.20743">
        <ele>64.7</ele>
        <time>2022-06-12T12:53:31Z</time>
      </trkpt>
      <trkpt lat="43.30133" lon="-2.20716">
        <ele>67.9</ele>
        <time>2022-06-12T12:53:41Z</time>
      </trkpt>
      <trkpt lat="43.30134" lon="-2.2069">
        <ele>71.1</ele>
        <time>2022-06-12T12:53:51Z</time>
      </trkpt>
      <trkpt lat="43.30135" lon="-2.20664">
        <ele>72</ele>
        <time>2022-06-12T12:54:01Z</time>
      </trkpt>
      <trkpt lat="43.30136" lon="-2.2064">
        <ele>72.4</ele>
        <time>2022-06-12T12:54:12Z</time>
      </trkpt>
      <trkpt lat="43.30135" lon="-2.20613">
        <ele>75.5</ele>
        <time>2022-06-12T12:54:23Z</time>
      </trkpt>
      <trkpt lat="43.30121" lon="-2.20596">
        <ele>72.4</ele>
      </trkpt>
      <trkpt lat="43.30118" lon="-2.2062">
        <ele>79.4</ele>
        <time>2022-06-12T12:54:43Z</time>
      </trkpt>
      <trkpt lat="43.30112" lon="-2.20644">
        <ele>82.1</ele>
        <time>2022-06-12T12:54:54Z</time>
      </trkpt>
      <trkpt lat="43.30103" lon="-2.20667">
        <ele>81</ele>
        <time>2022-06-12T12:55:03Z</time>
      </trkpt>
      <trkpt lat="43.30093" lon="-2.2069">
        <ele>82.2</ele>
        <time>2022-06-12T12:55:13Z</time>
      </trkpt>
      <trkpt lat="43.30078" lon="-2.20707">
        <ele>83.6</ele>
        <time>2022-06-12T12:55:23Z</time>
      </trkpt>
      <trkpt lat="43.30062" lon="-2.20722">
        <ele>85.1</ele>
        <time>2022-06-12T12:55:33Z</time>
      </trkpt>
      <trkpt lat="43.30047" lon="-2.20736">
        <ele>87.5</ele>
        <time>2022-06-12T12:55:43Z</time>
      </trkpt>
      <trkpt lat="43.30029" lon="-2.20747">
        <ele>89</ele>
        <time>2022-06-12T12:55:54Z</time>
      </trkpt>
      <trkpt lat="43.3001" lon="-2.20749">
        <ele>89.1</ele>
        <time>2022-06-12T12:56:05Z</time>
      </trkpt>
      <trkpt lat="43.30014" lon="-2.20724">
        <ele>91.7</ele>
        <time>2022-06-12T12:56:17Z</time>
      </trkpt>
      <trkpt lat="43.30018" lon="-2.20699">
        <ele>93.9</ele>
        <time>2022-06-12T12:56:30Z</time>
      </trkpt>
      <trkpt lat="43.30024" lon="-2.20675">
        <ele>95.1</ele>
        <time>2022-06-12T12:56:47Z</time>
      </trkpt>
      <trkpt lat="43.3002" lon="-2.2065">
        <ele>98.3</ele>
        <time>2022-06-12T12:57:04Z</time>
      </trkpt>
      <trkpt lat="43.30006" lon="-2.20633">
        <ele>102.9</ele>
        <time>2022-06-12T12:57:22Z</time>
      </trkpt>
      <trkpt lat="43.29988" lon="-2.20625">
        <ele>104.6</ele>
        <time>2022-06-12T12:57:41Z</time>
      </trkpt>
      <trkpt lat="43.2997" lon="-2.20614">
        <ele>107.3</ele>
        <time>2022-06-12T12:57:58Z</time>
      </trkpt>
      <trkpt lat="43.29954" lon="-2.20598">
        <ele>111.1</ele>
        <time>2022-06-12T12:58:12Z</time>
      </trkpt>
      <trkpt lat="43.29936" lon="-2.20592">
        <ele>110.7</ele>
        <time>2022-06-12T12:58:24Z</time>
      </trkpt>
      <trkpt lat="43.29917" lon="-2.20587">
        <ele>109.9</ele>
        <time>2022-06-12T12:58:33Z</time>
      </trkpt>
      <trkpt lat="43.29899" lon="-2.20581">
        <ele>109.6</ele>
        <time>2022-06-12T12:58:41Z</time>
      </trkpt>
      <trkpt lat="43.29879" lon="-2.20576">
        <ele>111.8</ele>
        <time>2022-06-12T12:58:51Z</time>
      </trkpt>
      <trkpt lat="43.29861" lon="-2.20574">
        <ele>110.4</ele>
        <time>2022-06-12T12:58:57Z</time>
      </trkpt>
      <trkpt lat="43.29842" lon="-2.20573">
        <ele>109.8</ele>
        <time>2022-06-12T12:59:03Z</time>
      </trkpt>
      <trkpt lat="43.29823" lon="-2.20573">
        <ele>111</ele>
        <time>2022-06-12T12:59:11Z</time>
      </trkpt>
      <trkpt lat="43.29803" lon="-2.20574">
        <ele>112.3</ele>
        <time>2022-06-12T12:59:21Z</time>
      </trkpt>
      <trkpt lat="43.29785" lon="-2.20561">
        <ele>112.7</ele>
        <time>2022-06-12T12:59:30Z</time>
      </trkpt>
      <trkpt lat="43.2977" lon="-2.20544">
        <ele>113.6</ele>
        <time>2022-06-12T12:59:37Z</time>
      </trkpt>
      <trkpt lat="43.29763" lon="-2.20519">
        <ele>113.7</ele>
        <time>2022-06-12T12:59:48Z</time>
      </trkpt>
      <trkpt lat="43.29755" lon="-2.20497">
        <ele>117.4</ele>
        <time>2022-06-12T13:00:00Z</time>
      </trkpt>
      <trkpt lat="43.29751" lon="-2.20473">
        <ele>120.3</ele>
        <time>2022-06-12T13:00:16Z</time>
      </trkpt>
      <trkpt lat="43.29741" lon="-2.20451">
        <ele>122</ele>
        <time>2022-06-12T13:00:33Z</time>
      </trkpt>
      <trkpt lat="43.29724" lon="-2.2044">
        <ele>124.2</ele>
        <time>2022-06-12T13:00:47Z</time>
      </trkpt>
      <trkpt lat="43.29706" lon="-2.2043">
        <ele>125.1</ele>
        <time>2022-06-12T13:00:57Z</time>
      </trkpt>
      <trkpt lat="43.29688" lon="-2.20426">
        <ele>124.8</ele>
        <time>2022-06-12T13:01:04Z</time>
      </trkpt>
      <trkpt lat="43.29668" lon="-2.20427">
        <ele>123.4</ele>
        <time>2022-06-12T13:01:10Z</time>
      </trkpt>
      <trkpt lat="43.29648" lon="-2.20431">
        <ele>121.8</ele>
        <time>2022-06-12T13:01:14Z</time>
      </trkpt>
      <trkpt lat="43.29627" lon="-2.20437">
        <ele>121.2</ele>
        <time>2022-06-12T13:01:18Z</time>
      </trkpt>
      <trkpt lat="43.29609" lon="-2.20434">
        <ele>122</ele>
        <time>2022-06-12T13:01:22Z</time>
      </trkpt>
      <trkpt lat="43.2959" lon="-2.2043">
        <ele>121.8</ele>
        <time>2022-06-12T13:01:27Z</time>
      </trkpt>
      <trkpt lat="43.2957" lon="-2.20431">
        <ele>121</ele>
        <time>2022-06-12T13:01:32Z</time>
      </trkpt>
      <trkpt lat="43.2955" lon="-2.20424">
        <ele>123.2</ele>
        <time>2022-06-12T13:01:38Z</time>
      </trkpt>
      <trkpt lat="43.29535" lon="-2.20411">
        <ele>125.7</ele>
        <time>2022-06-12T13:01:45Z</time>
      </trkpt>
      <trkpt lat="43.29519" lon="-2.204">
        <ele>125.6</ele>
        <time>2022-06-12T13:01:56Z</time>
      </trkpt>
      <trkpt lat="43.29502" lon="-2.20387">
        <ele>130</ele>
        <time>2022-06-12T13:02:10Z</time>
      </trkpt>
      <trkpt lat="43.29485" lon="-2.20378">
        <ele>128.8</ele>
        <time>2022-06-12T13:02:21Z</time>
      </trkpt>
      <trkpt lat="43.29466" lon="-2.20377">
        <ele>128.9</ele>
        <time>2022-06-12T13:02:26Z</time>
      </trkpt>
      <trkpt lat="43.29446" lon="-2.20373">
        <ele>127.6</ele>
        <time>2022-06-12T13:02:31Z</time>
      </trkpt>
      <trkpt lat="43.29428" lon="-2.20374">
        <ele>127.2</ele>
        <time>2022-06-12T13:02:37Z</time>
      </trkpt>
      <trkpt lat="43.29423" lon="-2.2035">
        <ele>127.1</ele>
        <time>2022-06-12T13:02:48Z</time>
      </trkpt>
      <trkpt lat="43.2942" lon="-2.20323">
        <ele>132.3</ele>
        <time>2022-06-12T13:03:00Z</time>
      </trkpt>
      <trkpt lat="43.29425" lon="-2.20298">
        <ele>135.6</ele>
        <time>2022-06-12T13:03:13Z</time>
      </trkpt>
      <trkpt lat="43.29424" lon="-2.20272">
        <ele>140.6</ele>
        <time>2022-06-12T13:03:29Z</time>
      </trkpt>
      <trkpt lat="43.29423" lon="-2.20247">
        <ele>141.9</ele>
        <time>2022-06-12T13:03:43Z</time>
      </trkpt>
      <trkpt lat="43.29411" lon="-2.20228">
        <ele>146</ele>
        <time>2022-06-12T13:05:13Z</time>
      </trkpt>
      <trkpt lat="43.29393" lon="-2.20221">
        <ele>150.1</ele>
        <time>2022-06-12T13:05:26Z</time>
      </trkpt>
      <trkpt lat="43.29376" lon="-2.20209">
        <ele>149.9</ele>
        <time>2022-06-12T13:05:34Z</time>
      </trkpt>
      <trkpt lat="43.29362" lon="-2.20188">
        <ele>148.3</ele>
        <time>2022-06-12T13:05:39Z</time>
      </trkpt>
      <trkpt lat="43.29349" lon="-2.20165">
        <ele>146.5</ele>
        <time>2022-06-12T13:05:43Z</time>
      </trkpt>
      <trkpt lat="43.29341" lon="-2.20135">
        <ele>144</ele>
        <time>2022-06-12T13:05:47Z</time>
      </trkpt>
      <trkpt lat="43.29336" lon="-2.2011">
        <ele>143</ele>
        <time>2022-06-12T13:05:50Z</time>
      </trkpt>
      <trkpt lat="43.29329" lon="-2.20079">
        <ele>143</ele>
        <time>2022-06-12T13:05:54Z</time>
      </trkpt>
      <trkpt lat="43.29321" lon="-2.2005">
        <ele>143.9</ele>
        <time>2022-06-12T13:05:58Z</time>
      </trkpt>
      <trkpt lat="43.29312" lon="-2.20022">
        <ele>143.6</ele>
        <time>2022-06-12T13:06:02Z</time>
      </trkpt>
      <trkpt lat="43.29306" lon="-2.19997">
        <ele>143</ele>
        <time>2022-06-12T13:06:07Z</time>
      </trkpt>
      <trkpt lat="43.29296" lon="-2.19975">
        <ele>141.5</ele>
        <time>2022-06-12T13:06:15Z</time>
      </trkpt>
      <trkpt lat="43.29286" lon="-2.19954">
        <ele>141.1</ele>
        <time>2022-06-12T13:06:23Z</time>
      </trkpt>
      <trkpt lat="43.29275" lon="-2.19933">
        <ele>143.4</ele>
        <time>2022-06-12T13:06:30Z</time>
      </trkpt>
      <trkpt lat="43.29267" lon="-2.19911">
        <ele>142.3</ele>
        <time>2022-06-12T13:08:05Z</time>
      </trkpt>
      <trkpt lat="43.29257" lon="-2.19888">
        <ele>143.2</ele>
        <time>2022-06-12T13:08:14Z</time>
      </trkpt>
      <trkpt lat="43.29248" lon="-2.19865">
        <ele>144.5</ele>
        <time>2022-06-12T13:08:21Z</time>
      </trkpt>
      <trkpt lat="43.29238" lon="-2.19842">
        <ele>145.9</ele>
        <time>2022-06-12T13:08:29Z</time>
      </trkpt>
      <trkpt lat="43.29232" lon="-2.19818">
        <ele>146.6</ele>
        <time>2022-06-12T13:08:37Z</time>
      </trkpt>
      <trkpt lat="43.29225" lon="-2.19794">
        <ele>147.8</ele>
        <time>2022-06-12T13:08:45Z</time>
      </trkpt>
      <trkpt lat="43.29214" lon="-2.19771">
        <ele>146.4</ele>
        <time>2022-06-12T13:08:53Z</time>
      </trkpt>
      <trkpt lat="43.29204" lon="-2.19749">
        <ele>146.5</ele>
        <time>2022-06-12T13:09:00Z</time>
      </trkpt>
      <trkpt lat="43.29192" lon="-2.19726">
        <ele>147.6</ele>
        <time>2022-06-12T13:09:07Z</time>
      </trkpt>
      <trkpt lat="43.29186" lon="-2.19701">
        <ele>147.7</ele>
        <time>2022-06-12T13:09:14Z</time>
      </trkpt>
      <trkpt lat="43.29178" lon="-2.19678">
        <ele>148.3</ele>
        <time>2022-06-12T13:09:20Z</time>
      </trkpt>
      <trkpt lat="43.29169" lon="-2.19653">
        <ele>148.6</ele>
        <time>2022-06-12T13:09:27Z</time>
      </trkpt>
      <trkpt lat="43.29161" lon="-2.19628">
        <ele>151.9</ele>
        <time>2022-06-12T13:09:34Z</time>
      </trkpt>
      <trkpt lat="43.29157" lon="-2.19603">
        <ele>152.1</ele>
        <time>2022-06-12T13:09:41Z</time>
      </trkpt>
      <trkpt lat="43.2915" lon="-2.19578">
        <ele>152.8</ele>
        <time>2022-06-12T13:09:48Z</time>
      </trkpt>
      <trkpt lat="43.29142" lon="-2.19553">
        <ele>154.2</ele>
        <time>2022-06-12T13:09:56Z</time>
      </trkpt>
      <trkpt lat="43.29132" lon="-2.19529">
        <ele>156.1</ele>
        <time>2022-06-12T13:10:05Z</time>
      </trkpt>
      <trkpt lat="43.29121" lon="-2.19507">
        <ele>157.9</ele>
        <time>2022-06-12T13:10:15Z</time>
      </trkpt>
      <trkpt lat="43.29109" lon="-2.19487">
        <ele>161.1</ele>
        <time>2022-06-12T13:10:24Z</time>
      </trkpt>
      <trkpt lat="43.29093" lon="-2.19472">
        <ele>160.6</ele>
        <time>2022-06-12T13:10:32Z</time>
      </trkpt>
      <trkpt lat="43.29079" lon="-2.19453">
        <ele>163.7</ele>
        <time>2022-06-12T13:10:41Z</time>
      </trkpt>
      <trkpt lat="43.29066" lon="-2.19436">
        <ele>168.5</ele>
        <time>2022-06-12T13:10:49Z</time>
      </trkpt>
      <trkpt lat="43.29054" lon="-2.19416">
        <ele>169.3</ele>
        <time>2022-06-12T13:10:57Z</time>
      </trkpt>
      <trkpt lat="43.29044" lon="-2.19393">
        <ele>171.2</ele>
        <time>2022-06-12T13:11:05Z</time>
      </trkpt>
      <trkpt lat="43.29032" lon="-2.19374">
        <ele>171.1</ele>
        <time>2022-06-12T13:11:13Z</time>
      </trkpt>
      <trkpt lat="43.29018" lon="-2.19354">
        <ele>170.9</ele>
        <time>2022-06-12T13:11:21Z</time>
      </trkpt>
      <trkpt lat="43.29002" lon="-2.19335">
        <ele>171.2</ele>
        <time>2022-06-12T13:11:28Z</time>
      </trkpt>
      <trkpt lat="43.28988" lon="-2.19316">
        <ele>173.5</ele>
        <time>2022-06-12T13:11:35Z</time>
      </trkpt>
      <trkpt lat="43.28976" lon="-2.19296">
        <ele>175.3</ele>
        <time>2022-06-12T13:11:42Z</time>
      </trkpt>
      <trkpt lat="43.28971" lon="-2.19272">
        <ele>176.1</ele>
        <time>2022-06-12T13:11:50Z</time>
      </trkpt>
      <trkpt lat="43.28973" lon="-2.19246">
        <ele>177.1</ele>
        <time>2022-06-12T13:11:59Z</time>
      </trkpt>
      <trkpt lat="43.28969" lon="-2.1922">
        <ele>178.1</ele>
        <time>2022-06-12T13:12:08Z</time>
      </trkpt>
      <trkpt lat="43.28963" lon="-2.19195">
        <ele>179.3</ele>
        <time>2022-06-12T13:12:16Z</time>
      </trkpt>
      <trkpt lat="43.28962" lon="-2.19169">
        <ele>175.4</ele>
        <time>2022-06-12T13:12:22Z</time>
      </trkpt>
      <trkpt lat="43.28952" lon="-2.19144">
        <ele>178.5</ele>
        <time>2022-06-12T13:12:29Z</time>
      </trkpt>
      <trkpt lat="43.28945" lon="-2.19121">
        <ele>181.1</ele>
        <time>2022-06-12T13:12:35Z</time>
      </trkpt>
      <trkpt lat="43.28941" lon="-2.19096">
        <ele>181.1</ele>
        <time>2022-06-12T13:12:41Z</time>
      </trkpt>
      <trkpt lat="43.28941" lon="-2.19071">
        <ele>179.7</ele>
        <time>2022-06-12T13:12:48Z</time>
      </trkpt>
      <trkpt lat="43.2894" lon="-2.19046">
        <ele>179.3</ele>
        <time>2022-06-12T13:12:54Z</time>
      </trkpt>
      <trkpt lat="43.28938" lon="-2.19017">
        <ele>180.1</ele>
        <time>2022-06-12T13:13:00Z</time>
      </trkpt>
      <trkpt lat="43.28939" lon="-2.18988">
        <ele>179.7</ele>
        <time>2022-06-12T13:13:05Z</time>
      </trkpt>
      <trkpt lat="43.28941" lon="-2.1896">
        <ele>179.2</ele>
        <time>2022-06-12T13:13:09Z</time>
      </trkpt>
      <trkpt lat="43.28944" lon="-2.18935">
        <ele>179.1</ele>
        <time>2022-06-12T13:13:13Z</time>
      </trkpt>
      <trkpt lat="43.28944" lon="-2.1891">
        <ele>177.7</ele>
        <time>2022-06-12T13:13:18Z</time>
      </trkpt>
      <trkpt lat="43.28944" lon="-2.18883">
        <ele>178.1</ele>
        <time>2022-06-12T13:13:24Z</time>
      </trkpt>
      <trkpt lat="43.28942" lon="-2.18858">
        <ele>177.3</ele>
        <time>2022-06-12T13:13:29Z</time>
      </trkpt>
      <trkpt lat="43.28948" lon="-2.18832">
        <ele>178.2</ele>
        <time>2022-06-12T13:13:34Z</time>
      </trkpt>
      <trkpt lat="43.2896" lon="-2.18814">
        <ele>179.8</ele>
        <time>2022-06-12T13:13:38Z</time>
      </trkpt>
      <trkpt lat="43.28967" lon="-2.18788">
        <ele>179.4</ele>
        <time>2022-06-12T13:13:44Z</time>
      </trkpt>
      <trkpt lat="43.28974" lon="-2.18765">
        <ele>179</ele>
        <time>2022-06-12T13:13:49Z</time>
      </trkpt>
      <trkpt lat="43.2898" lon="-2.18738">
        <ele>178</ele>
        <time>2022-06-12T13:13:55Z</time>
      </trkpt>
      <trkpt lat="43.28983" lon="-2.18712">
        <ele>179</ele>
        <time>2022-06-12T13:14:01Z</time>
      </trkpt>
      <trkpt lat="43.28992" lon="-2.18689">
        <ele>178.7</ele>
        <time>2022-06-12T13:14:12Z</time>
      </trkpt>
      <trkpt lat="43.29007" lon="-2.1867">
        <ele>178.6</ele>
        <time>2022-06-12T13:15:22Z</time>
      </trkpt>
      <trkpt lat="43.29019" lon="-2.18648">
        <ele>178.5</ele>
        <time>2022-06-12T13:15:28Z</time>
      </trkpt>
      <trkpt lat="43.29029" lon="-2.18625">
        <ele>178.8</ele>
        <time>2022-06-12T13:15:35Z</time>
      </trkpt>
      <trkpt lat="43.29037" lon="-2.18598">
        <ele>176.7</ele>
        <time>2022-06-12T13:15:41Z</time>
      </trkpt>
      <trkpt lat="43.29044" lon="-2.18572">
        <ele>176.5</ele>
        <time>2022-06-12T13:15:48Z</time>
      </trkpt>
      <trkpt lat="43.2904" lon="-2.18548">
        <ele>176.5</ele>
        <time>2022-06-12T13:15:53Z</time>
      </trkpt>
      <trkpt lat="43.29029" lon="-2.18525">
        <ele>174.4</ele>
        <time>2022-06-12T13:15:58Z</time>
      </trkpt>
      <trkpt lat="43.29019" lon="-2.18503">
        <ele>171.2</ele>
        <time>2022-06-12T13:16:02Z</time>
      </trkpt>
      <trkpt lat="43.29011" lon="-2.18478">
        <ele>169.9</ele>
        <time>2022-06-12T13:16:06Z</time>
      </trkpt>
      <trkpt lat="43.29002" lon="-2.1845">
        <ele>167.7</ele>
        <time>2022-06-12T13:16:11Z</time>
      </trkpt>
      <trkpt lat="43.28996" lon="-2.18423">
        <ele>165.3</ele>
        <time>2022-06-12T13:16:15Z</time>
      </trkpt>
      <trkpt lat="43.28991" lon="-2.18396">
        <ele>163.9</ele>
        <time>2022-06-12T13:16:19Z</time>
      </trkpt>
      <trkpt lat="43.28985" lon="-2.18366">
        <ele>160.9</ele>
        <time>2022-06-12T13:16:24Z</time>
      </trkpt>
      <trkpt lat="43.28977" lon="-2.18337">
        <ele>158.1</ele>
        <time>2022-06-12T13:16:29Z</time>
      </trkpt>
      <trkpt lat="43.28958" lon="-2.1832">
        <ele>155.2</ele>
        <time>2022-06-12T13:16:34Z</time>
      </trkpt>
      <trkpt lat="43.2894" lon="-2.18307">
        <ele>150.5</ele>
        <time>2022-06-12T13:17:03Z</time>
      </trkpt>
      <trkpt lat="43.2892" lon="-2.18288">
        <ele>149.4</ele>
        <time>2022-06-12T13:17:08Z</time>
      </trkpt>
      <trkpt lat="43.28903" lon="-2.18269">
        <ele>145.1</ele>
        <time>2022-06-12T13:17:12Z</time>
      </trkpt>
      <trkpt lat="43.28891" lon="-2.18248">
        <ele>141.1</ele>
        <time>2022-06-12T13:17:17Z</time>
      </trkpt>
      <trkpt lat="43.28885" lon="-2.18224">
        <ele>140.4</ele>
        <time>2022-06-12T13:17:36Z</time>
      </trkpt>
      <trkpt lat="43.28881" lon="-2.18199">
        <ele>141.2</ele>
        <time>2022-06-12T13:17:52Z</time>
      </trkpt>
      <trkpt lat="43.28887" lon="-2.18175">
        <ele>143.8</ele>
        <time>2022-06-12T13:18:11Z</time>
      </trkpt>
      <trkpt lat="43.28905" lon="-2.18176">
        <ele>153.3</ele>
        <time>2022-06-12T13:18:33Z</time>
      </trkpt>
      <trkpt lat="43.28923" lon="-2.18179">
        <ele>156.6</ele>
        <time>2022-06-12T13:18:54Z</time>
      </trkpt>
      <trkpt lat="43.28944" lon="-2.18186">
        <ele>154.4</ele>
        <time>2022-06-12T13:19:02Z</time>
      </trkpt>
      <trkpt lat="43.28964" lon="-2.18186">
        <ele>152</ele>
        <time>2022-06-12T13:19:07Z</time>
      </trkpt>
      <trkpt lat="43.28984" lon="-2.18183">
        <ele>150.7</ele>
        <time>2022-06-12T13:19:12Z</time>
      </trkpt>
      <trkpt lat="43.29004" lon="-2.18174">
        <ele>147.9</ele>
        <time>2022-06-12T13:19:18Z</time>
      </trkpt>
      <trkpt lat="43.2902" lon="-2.18156">
        <ele>142.5</ele>
        <time>2022-06-12T13:19:23Z</time>
      </trkpt>
      <trkpt lat="43.29031" lon="-2.18137">
        <ele>133.9</ele>
        <time>2022-06-12T13:19:34Z</time>
      </trkpt>
      <trkpt lat="43.29039" lon="-2.18114">
        <ele>125.8</ele>
        <time>2022-06-12T13:19:55Z</time>
      </trkpt>
      <trkpt lat="43.2905" lon="-2.18095">
        <ele>114.7</ele>
        <time>2022-06-12T13:20:58Z</time>
      </trkpt>
      <trkpt lat="43.29045" lon="-2.18071">
        <ele>105</ele>
        <time>2022-06-12T13:21:21Z</time>
      </trkpt>
      <trkpt lat="43.29049" lon="-2.18047">
        <ele>102.4</ele>
        <time>2022-06-12T13:21:58Z</time>
      </trkpt>
      <trkpt lat="43.29062" lon="-2.18022">
        <ele>92.9</ele>
        <time>2022-06-12T13:22:12Z</time>
      </trkpt>
      <trkpt lat="43.29071" lon="-2.17994">
        <ele>89.5</ele>
        <time>2022-06-12T13:22:16Z</time>
      </trkpt>
      <trkpt lat="43.29082" lon="-2.17973">
        <ele>87.5</ele>
        <time>2022-06-12T13:22:20Z</time>
      </trkpt>
      <trkpt lat="43.29061" lon="-2.17961">
        <ele>78.1</ele>
        <time>2022-06-12T13:22:35Z</time>
      </trkpt>
      <trkpt lat="43.29042" lon="-2.17963">
        <ele>72.8</ele>
        <time>2022-06-12T13:22:38Z</time>
      </trkpt>
      <trkpt lat="43.29021" lon="-2.1796">
        <ele>69.5</ele>
        <time>2022-06-12T13:22:42Z</time>
      </trkpt>
      <trkpt lat="43.29001" lon="-2.17959">
        <ele>67.1</ele>
        <time>2022-06-12T13:22:45Z</time>
      </trkpt>
      <trkpt lat="43.28975" lon="-2.17957">
        <ele>66.1</ele>
        <time>2022-06-12T13:22:49Z</time>
      </trkpt>
      <trkpt lat="43.28957" lon="-2.17953">
        <ele>65.3</ele>
        <time>2022-06-12T13:22:53Z</time>
      </trkpt>
      <trkpt lat="43.28939" lon="-2.17955">
        <ele>56.4</ele>
        <time>2022-06-12T13:23:00Z</time>
      </trkpt>
      <trkpt lat="43.28915" lon="-2.17955">
        <ele>51</ele>
        <time>2022-06-12T13:23:06Z</time>
      </trkpt>
      <trkpt lat="43.28891" lon="-2.17961">
        <ele>44.9</ele>
        <time>2022-06-12T13:23:10Z</time>
      </trkpt>
      <trkpt lat="43.28872" lon="-2.17963">
        <ele>42.5</ele>
        <time>2022-06-12T13:23:15Z</time>
      </trkpt>
      <trkpt lat="43.28858" lon="-2.17947">
        <ele>33.8</ele>
        <time>2022-06-12T13:23:22Z</time>
      </trkpt>
      <trkpt lat="43.2884" lon="-2.1794">
        <ele>28.6</ele>
        <time>2022-06-12T13:23:29Z</time>
      </trkpt>
      <trkpt lat="43.28833" lon="-2.17917">
        <ele>25</ele>
        <time>2022-06-12T13:23:36Z</time>
      </trkpt>
      <trkpt lat="43.28831" lon="-2.1789">
        <ele>17.1</ele>
        <time>2022-06-12T13:23:44Z</time>
      </trkpt>
      <trkpt lat="43.28812" lon="-2.17885">
        <ele>13.9</ele>
        <time>2022-06-12T13:23:53Z</time>
      </trkpt>
      <trkpt lat="43.28797" lon="-2.17872">
        <ele>13.9</ele>
        <time>2022-06-12T13:24:00Z</time>
      </trkpt>
      <trkpt lat="43.2878" lon="-2.17859">
        <ele>14</ele>
        <time>2022-06-12T13:24:06Z</time>
      </trkpt>
      <trkpt lat="43.28766" lon="-2.17843">
        <ele>14.2</ele>
        <time>2022-06-12T13:24:11Z</time>
      </trkpt>
      <trkpt lat="43.28752" lon="-2.17825">
        <ele>13.6</ele>
        <time>2022-06-12T13:24:16Z</time>
      </trkpt>
      <trkpt lat="43.28737" lon="-2.17805">
        <ele>12.8</ele>
        <time>2022-06-12T13:24:22Z</time>
      </trkpt>
      <trkpt lat="43.28719" lon="-2.17794">
        <ele>13.6</ele>
        <time>2022-06-12T13:24:28Z</time>
      </trkpt>
      <trkpt lat="43.28698" lon="-2.17788">
        <ele>14.8</ele>
        <time>2022-06-12T13:24:35Z</time>
      </trkpt>
      <trkpt lat="43.28681" lon="-2.17778">
        <ele>15.7</ele>
        <time>2022-06-12T13:24:40Z</time>
      </trkpt>
      <trkpt lat="43.28666" lon="-2.17756">
        <ele>15.2</ele>
        <time>2022-06-12T13:24:45Z</time>
      </trkpt>
      <trkpt lat="43.28658" lon="-2.17731">
        <ele>14</ele>
        <time>2022-06-12T13:24:49Z</time>
      </trkpt>
      <trkpt lat="43.28657" lon="-2.17705">
        <ele>11.9</ele>
        <time>2022-06-12T13:24:53Z</time>
      </trkpt>
      <trkpt lat="43.28663" lon="-2.17677">
        <ele>12.2</ele>
        <time>2022-06-12T13:24:58Z</time>
      </trkpt>
      <trkpt lat="43.2868" lon="-2.17672">
        <ele>14.9</ele>
        <time>2022-06-12T13:25:08Z</time>
      </trkpt>
      <trkpt lat="43.287" lon="-2.17665">
        <ele>14.7</ele>
        <time>2022-06-12T13:25:17Z</time>
      </trkpt>
      <trkpt lat="43.28715" lon="-2.1768">
        <ele>17.3</ele>
        <time>2022-06-12T13:25:30Z</time>
      </trkpt>
      <trkpt lat="43.2873" lon="-2.17667">
        <ele>14.1</ele>
        <time>2022-06-12T13:25:42Z</time>
      </trkpt>
      <trkpt lat="43.2873" lon="-2.17639">
        <ele>13.9</ele>
        <time>2022-06-12T13:25:49Z</time>
      </trkpt>
      <trkpt lat="43.28727" lon="-2.17611">
        <ele>12.5</ele>
        <time>2022-06-12T13:25:56Z</time>
      </trkpt>
      <trkpt lat="43.28732" lon="-2.17586">
        <ele>12.2</ele>
        <time>2022-06-12T13:26:01Z</time>
      </trkpt>
      <trkpt lat="43.2873" lon="-2.17558">
        <ele>10.3</ele>
        <time>2022-06-12T13:26:07Z</time>
      </trkpt>
      <trkpt lat="43.28729" lon="-2.17532">
        <ele>10.4</ele>
        <time>2022-06-12T13:26:13Z</time>
      </trkpt>
      <trkpt lat="43.28727" lon="-2.17504">
        <ele>10.6</ele>
        <time>2022-06-12T13:26:19Z</time>
      </trkpt>
      <trkpt lat="43.28726" lon="-2.17475">
        <ele>9.8</ele>
        <time>2022-06-12T13:26:25Z</time>
      </trkpt>
      <trkpt lat="43.28727" lon="-2.17447">
        <ele>10.4</ele>
        <time>2022-06-12T13:26:31Z</time>
      </trkpt>
      <trkpt lat="43.28728" lon="-2.17421">
        <ele>10</ele>
        <time>2022-06-12T13:26:36Z</time>
      </trkpt>
      <trkpt lat="43.28729" lon="-2.17394">
        <ele>9.7</ele>
        <time>2022-06-12T13:26:41Z</time>
      </trkpt>
      <trkpt lat="43.28727" lon="-2.17365">
        <ele>8.6</ele>
        <time>2022-06-12T13:26:47Z</time>
      </trkpt>
      <trkpt lat="43.28728" lon="-2.17336">
        <ele>9.2</ele>
        <time>2022-06-12T13:26:53Z</time>
      </trkpt>
      <trkpt lat="43.28724" lon="-2.17309">
        <ele>10.1</ele>
        <time>2022-06-12T13:26:59Z</time>
      </trkpt>
      <trkpt lat="43.28726" lon="-2.17283">
        <ele>9.9</ele>
        <time>2022-06-12T13:27:05Z</time>
      </trkpt>
      <trkpt lat="43.28732" lon="-2.17258">
        <ele>10.3</ele>
        <time>2022-06-12T13:27:12Z</time>
      </trkpt>
      <trkpt lat="43.28729" lon="-2.17231">
        <ele>11</ele>
        <time>2022-06-12T13:27:18Z</time>
      </trkpt>
      <trkpt lat="43.28723" lon="-2.17206">
        <ele>10</ele>
        <time>2022-06-12T13:27:25Z</time>
      </trkpt>
    </trkseg>
  </trk>
</gpx>